[[{"header":{"parameterUnit":"m.s-1","parameterCategory":1,"la1":30.6,"la2":29.2853,"lo1":-89.7004,"lo2":-87.6739,"dy":0.0162,"dx":0.0183,"nx":112,"ny":82,"refTime":"2023-08-15T06:00:00:Z","depth":0,"parameterNumber":2,"parameterNumberName":"U-component_of_WINDS"},"data":[0.0,0.0,0.0,0.0,0.0,0.0,0.0,0.0,0.0,0.0,0.0,0.0,0.0,0.0,0.0,0.0,0.0,0.0,0.0,0.0,0.0,0.0,0.0,0.0,0.0,0.0,0.0,0.0,0.0,0.0,0.0,0.0,0.0,0.0,0.0,0.0,0.0,0.0,0.0,0.0,0.0,0.0,0.0,0.0,0.0,0.0,0.0,0.0,0.0,0.0,0.0,0.0,0.0,0.0,0.0,0.0,0.0,0.0,0.0,0.0,0.0,0.0,0.0,0.0,0.0,0.0,0.0,0.0,0.0,0.0,0.0,0.0,0.0,0.0,0.0,0.0,0.0,0.0,0.0,0.0,0.0,0.0,0.0,0.0,0.0,0.0,0.0,0.0,0.0,0.0,0.0,2.0296,2.1336,2.1459,2.0314,1.9155,1.6595,1.2067,0.0,0.0,0.0,0.0,0.0,0.0,0.0,0.0,0.0,0.0,0.0,0.0,0.0,0.0,0.0,0.0,0.0,0.0,0.0,0.0,0.0,0.0,0.0,0.0,0.0,0.0,0.0,0.0,0.0,0.0,0.0,0.0,0.0,0.0,0.0,0.0,0.0,0.0,0.0,0.0,0.0,0.0,0.0,0.0,0.0,0.0,0.0,0.0,0.0,0.0,0.0,0.0,0.0,0.0,0.0,0.0,0.0,0.0,0.0,0.0,0.0,0.0,0.0,0.0,0.0,0.0,0.0,0.0,0.0,0.0,0.0,0.0,0.0,0.0,0.0,0.0,0.0,0.0,0.0,0.0,0.0,0.0,0.0,0.0,0.0,0.0,0.0,0.0,0.0,0.0,0.0,0.0,0.0,0.0,0.0,0.0,0.0,0.0,0.0,0.0,0.0,0.0,0.0,0.0,1.8193,1.9376,2.0445,2.0519,1.9101,1.7561,1.4773,1.0276,0.0,0.0,0.0,0.0,0.0,0.0,0.0,0.0,0.0,0.0,0.0,0.0,0.0,0.0,0.0,0.0,0.0,0.0,0.0,0.0,0.0,0.0,0.0,0.0,0.0,0.0,0.0,0.0,0.0,0.0,0.0,0.0,0.0,0.0,0.0,0.0,0.0,0.0,0.0,0.0,0.0,0.0,0.0,0.0,0.0,0.0,0.0,0.0,0.0,0.0,0.0,0.0,0.0,0.0,0.0,0.0,0.0,0.0,0.0,0.0,0.0,0.0,0.0,0.0,0.0,0.0,0.0,0.0,0.0,0.0,0.0,0.0,0.0,0.0,0.0,0.0,0.0,0.0,0.0,0.0,0.0,0.0,0.0,0.0,0.0,0.0,0.0,0.0,0.0,0.0,0.0,0.0,0.0,0.0,0.0,0.0,0.0,0.0,0.0,0.0,0.0,0.0,0.0,1.8401,1.8927,1.9664,2.0096,1.9805,1.8538,1.6877,1.3286,0.7064,0.5845,0.0,0.0,0.0,0.0,0.0,0.0,0.0,0.0,0.0,0.0,0.0,0.0,0.0,0.0,0.0,0.0,0.0,0.0,0.0,0.0,0.0,0.0,0.0,0.0,0.0,0.0,0.0,0.0,0.0,0.0,0.0,0.0,0.0,0.0,0.0,0.0,0.0,0.0,0.0,0.0,0.0,0.0,0.0,0.0,0.0,0.0,0.0,0.0,0.0,0.0,0.0,0.0,0.0,0.0,0.0,0.0,0.0,0.0,0.0,0.0,0.0,0.0,0.0,0.0,0.0,0.0,0.0,0.0,0.0,0.0,0.0,0.0,0.0,0.0,0.0,0.0,0.0,0.0,0.0,0.0,0.0,0.0,0.0,0.0,0.0,0.0,0.0,0.0,0.0,0.0,0.0,0.0,0.0,0.0,0.0,0.0,0.0,0.0,0.0,0.0,0.0,0.0,1.8626,1.8925,1.9299,1.9129,1.8565,1.7561,1.5536,1.1428,0.4598,0.1431,0.0,0.0,0.0,0.0,0.0,0.0,0.0,0.0,0.0,0.0,0.0,0.0,0.0,0.0,0.0,0.0,0.0,0.0,0.0,0.0,0.0,0.0,0.0,0.0,0.0,0.0,0.0,0.0,0.0,0.0,0.0,0.0,0.0,0.0,0.0,0.0,0.0,0.0,0.0,0.0,0.0,0.0,0.0,0.0,0.0,0.0,0.0,0.0,0.0,0.0,0.0,0.0,0.0,0.0,0.0,0.0,0.0,0.0,0.0,0.0,0.0,0.0,0.0,0.0,0.0,0.0,0.0,0.0,0.0,0.0,0.0,0.0,0.0,0.0,0.0,0.0,0.0,0.0,0.0,0.0,0.0,0.0,0.0,0.0,0.0,0.0,0.0,0.0,0.0,0.0,0.0,0.0,0.0,0.0,0.0,0.0,0.0,0.0,0.0,0.0,0.0,0.0,1.686,1.6538,1.7069,1.6776,1.6231,1.538,1.2449,0.8763,0.4296,-0.0391,0.0,0.0,0.0,0.0,0.0,0.0,0.0,0.0,0.0,0.0,0.0,0.0,0.0,0.0,0.0,0.0,0.0,0.0,0.0,0.0,0.0,0.0,0.0,0.0,0.0,0.0,0.0,0.0,0.0,0.0,0.0,0.0,0.0,0.0,0.0,0.0,0.0,0.0,0.0,0.0,0.0,0.0,0.0,0.0,0.0,0.0,0.0,0.0,0.0,0.0,0.0,0.0,0.0,0.0,0.0,0.0,0.0,0.0,0.0,0.0,0.0,0.0,0.0,0.0,0.0,0.0,0.0,0.0,0.0,0.0,0.0,0.0,0.0,0.0,0.0,0.0,0.0,0.0,0.0,0.0,0.0,0.0,0.0,0.0,0.0,0.0,0.0,0.0,0.0,0.0,0.0,0.0,0.0,0.0,0.0,0.0,0.0,0.0,0.0,0.0,0.0,0.0,1.7847,1.7555,0.0,1.7243,1.6658,1.5912,1.4896,1.1554,0.5082,0.0,0.0,0.0,0.0,0.0,0.0,0.0,0.0,0.0,0.0,0.0,0.0,0.0,0.0,0.0,0.0,0.0,0.0,0.0,0.0,0.0,0.0,0.0,0.0,0.0,0.0,0.0,0.0,0.0,0.0,0.0,0.0,0.0,0.0,0.0,0.0,0.0,0.0,0.0,0.0,0.0,0.0,0.0,0.0,0.0,0.0,0.0,0.0,0.0,0.0,0.0,0.0,0.0,0.0,0.0,0.0,0.0,0.0,0.0,0.0,0.0,0.0,0.0,0.0,0.0,0.0,0.0,0.0,0.0,0.0,0.0,0.0,0.0,0.0,0.0,0.0,0.0,0.0,0.0,0.0,0.0,0.0,0.0,0.0,0.0,0.0,0.0,0.0,0.0,0.0,0.0,0.0,0.0,0.0,0.0,0.0,0.0,0.0,0.0,0.0,0.0,0.0,1.8263,1.8128,1.7962,0.0,1.7379,1.692,1.6356,1.5612,1.2718,0.6987,0.0,0.0,0.0,0.0,0.0,0.0,0.0,0.0,0.0,0.0,0.0,0.0,0.0,0.0,0.0,0.0,0.0,0.0,0.0,0.0,0.0,0.0,0.0,0.0,0.0,0.0,0.0,0.0,0.0,0.0,0.0,0.0,0.0,0.0,0.0,0.0,0.0,0.0,0.0,0.0,0.0,0.0,0.0,0.0,0.0,0.0,0.0,0.0,0.0,0.0,0.0,0.0,0.0,0.0,0.0,0.0,0.0,0.0,0.0,0.0,0.0,0.0,0.0,0.0,0.0,0.0,0.0,0.0,0.0,0.0,0.0,0.0,0.0,0.0,0.0,0.0,0.0,0.0,0.0,0.0,0.0,0.0,0.0,0.0,0.0,0.0,0.0,0.0,0.0,0.0,0.0,0.0,0.0,0.0,0.0,0.0,0.0,0.0,0.0,0.0,0.0,0.0,1.7273,1.7253,1.7213,1.6948,1.6733,1.654,1.6337,1.359,1.1295,0.0,0.0,0.0,0.0,0.0,0.0,0.0,0.0,0.0,0.0,0.0,0.0,0.0,0.0,0.0,0.0,0.0,0.0,0.0,0.0,0.0,0.0,0.0,0.0,0.0,0.0,0.0,0.0,0.0,0.0,0.0,0.0,0.0,0.0,0.0,0.0,0.0,0.0,0.0,0.0,0.0,0.0,0.0,0.0,0.0,0.0,0.0,0.0,0.0,0.0,0.0,0.0,0.0,0.0,0.0,0.0,0.0,0.0,0.0,0.0,0.0,0.0,0.0,0.0,0.0,0.0,0.0,0.0,0.0,0.0,0.0,0.0,0.0,0.0,0.0,0.0,0.0,0.0,0.0,0.0,0.0,0.0,0.0,0.0,0.0,0.0,0.0,0.0,0.0,0.0,0.0,0.0,0.0,0.0,0.0,0.0,0.0,0.0,0.0,0.0,0.0,0.0,0.0,1.7661,1.796,1.8087,1.7757,1.7503,1.7299,1.7099,1.6387,1.4708,1.1757,0.0,0.0,0.0,0.0,0.0,0.0,0.0,0.0,0.0,0.0,0.0,0.0,0.0,0.0,0.0,0.0,0.0,0.0,0.0,0.0,0.0,0.0,0.0,0.0,0.0,0.0,0.0,0.0,0.0,0.0,0.0,0.0,0.0,0.0,0.0,0.0,0.0,0.0,0.0,0.0,0.0,0.0,0.0,0.0,0.0,0.0,0.0,0.0,0.0,0.0,0.0,0.0,0.0,0.0,0.0,0.0,0.0,0.0,0.0,0.0,0.0,0.0,0.0,0.0,0.0,0.0,0.0,0.0,0.0,0.0,0.0,0.0,0.0,0.0,0.0,0.0,0.0,0.0,0.0,0.0,0.0,0.0,0.0,0.0,0.0,0.0,0.0,0.0,0.0,0.0,0.0,0.0,0.0,0.0,0.0,0.0,0.0,0.0,0.0,0.0,0.0,0.0,1.796,1.8604,1.895,1.8617,1.8338,1.8108,1.7914,1.7776,1.6697,1.4315,0.0,0.0,0.0,0.0,0.0,0.0,0.0,0.0,0.0,0.0,0.0,0.0,0.0,0.0,0.0,0.0,0.0,0.0,0.0,0.0,0.0,0.0,0.0,0.0,0.0,0.0,0.0,0.0,0.0,0.0,0.0,0.0,0.0,0.0,0.0,0.0,0.0,0.0,0.0,0.0,0.0,0.0,0.0,0.0,0.0,0.0,0.0,0.0,0.0,0.0,0.0,0.0,0.0,0.0,0.0,0.0,0.0,0.0,0.0,0.0,0.0,0.0,0.0,0.0,0.0,0.0,0.0,0.0,0.0,0.0,0.0,0.0,0.0,0.0,0.0,0.0,0.0,0.0,0.0,0.0,0.0,0.0,0.0,0.0,0.0,0.0,0.0,0.0,0.0,0.0,0.0,0.0,0.0,0.0,0.0,0.0,0.0,0.0,0.0,0.0,0.0,0.0,1.8089,1.9055,1.9663,1.9286,1.9101,1.8896,1.8635,1.8057,1.7551,1.7143,0.0,0.0,0.0,0.0,0.0,0.0,0.0,0.0,0.0,0.0,0.0,0.0,0.0,0.0,0.0,0.0,0.0,0.0,0.0,0.0,0.0,0.0,0.0,0.0,0.0,0.0,0.0,0.0,0.0,0.0,0.0,0.0,0.0,0.0,0.0,0.0,0.0,0.0,0.0,0.0,0.0,0.0,0.0,0.0,0.0,0.0,0.0,0.0,0.0,0.0,0.0,0.0,0.0,0.0,0.0,0.0,0.0,0.0,0.0,0.0,3.0917,0.0,0.0,0.0,0.0,0.0,0.0,0.0,0.0,0.0,0.0,0.0,0.0,0.0,0.0,0.0,0.0,0.0,0.0,0.0,0.0,0.0,0.0,0.0,0.0,0.0,0.0,0.0,0.0,0.0,0.0,0.0,0.0,0.0,0.0,0.0,0.0,0.0,0.0,0.0,0.0,0.0,1.746,1.8731,1.9513,1.9101,1.9036,1.891,1.8688,1.83,1.8118,1.821,1.7263,0.0,0.0,0.0,0.0,0.0,0.0,0.0,0.0,0.0,0.0,0.0,0.0,0.0,0.0,0.0,0.0,0.0,0.0,0.0,0.0,0.0,0.0,0.0,0.0,0.0,0.0,0.0,0.0,0.0,0.0,0.0,0.0,0.0,0.0,0.0,0.0,0.0,0.0,0.0,0.0,0.0,0.0,0.0,0.0,0.0,0.0,0.0,0.0,0.0,0.0,0.0,0.0,0.0,0.0,0.0,0.0,0.0,0.0,0.0,0.0,3.2424,0.0,0.0,0.0,0.0,0.0,0.0,0.0,0.0,0.0,0.0,0.0,0.0,0.0,0.0,0.0,0.0,0.0,0.0,0.0,0.0,0.0,0.0,0.0,0.0,0.0,0.0,0.0,0.0,0.0,0.0,0.0,0.0,0.0,0.0,0.0,0.0,0.0,0.0,0.0,0.0,1.9726,2.0181,2.0409,2.012,1.9838,1.9534,1.9234,1.9,1.8914,1.9159,1.9228,0.0,0.0,0.0,0.0,0.0,0.0,0.0,0.0,0.0,0.0,0.0,0.0,0.0,0.0,0.0,0.0,0.0,0.0,0.0,0.0,0.0,0.0,0.0,0.0,0.0,0.0,0.0,0.0,0.0,0.0,0.0,0.0,0.0,0.0,0.0,0.0,0.0,0.0,0.0,0.0,0.0,0.0,0.0,0.0,0.0,0.0,0.0,0.0,0.0,0.0,0.0,0.0,0.0,0.0,3.9251,3.9007,3.9714,3.9662,3.8852,3.6497,3.5044,3.4263,0.0,0.0,0.0,0.0,0.0,0.0,0.0,0.0,0.0,0.0,0.0,0.0,0.0,0.0,0.0,0.0,0.0,0.0,0.0,0.0,0.0,0.0,0.0,0.0,0.0,2.5609,2.383,0.0,0.0,0.0,0.0,0.0,0.0,0.0,0.0,0.0,0.0,0.0,0.0,2.2032,2.1708,2.1388,2.1191,2.0692,2.0274,1.9941,1.9817,1.9904,2.0213,2.1247,2.1502,0.0,0.0,0.0,0.0,0.0,0.0,0.0,0.0,0.0,0.0,0.0,0.0,0.0,0.0,0.0,0.0,0.0,0.0,0.0,0.0,0.0,0.0,0.0,0.0,0.0,0.0,0.0,0.0,0.0,0.0,0.0,0.0,2.8727,2.8203,0.0,0.0,0.0,0.0,0.0,0.0,0.0,0.0,0.0,0.0,0.0,0.0,0.0,0.0,3.9242,4.0509,4.1524,4.231,4.3871,4.3833,4.2464,4.2563,4.2563,4.2332,4.0569,0.0,3.9444,3.6318,0.0,0.0,0.0,0.0,0.0,0.0,0.0,0.0,0.0,0.0,0.0,0.0,0.0,0.0,0.0,0.0,0.0,0.0,0.0,0.0,0.0,0.0,2.7459,2.6984,2.6597,2.6119,0.0,2.3203,2.1898,2.3074,0.0,0.0,0.0,0.0,0.0,0.0,0.0,0.0,2.0659,2.1041,2.1115,2.0592,2.0454,2.0406,2.0411,2.0659,2.1029,2.1547,2.2333,2.2829,2.2911,2.3247,0.0,0.0,0.0,0.0,0.0,0.0,0.0,0.0,0.0,0.0,0.0,0.0,0.0,0.0,0.0,0.0,0.0,0.0,0.0,0.0,0.0,0.0,0.0,0.0,0.0,0.0,0.0,0.0,0.0,3.015,3.2572,3.3217,3.3463,3.3145,0.0,0.0,0.0,0.0,0.0,0.0,0.0,0.0,0.0,3.7141,3.8644,4.0155,4.1765,4.3454,4.4498,4.4939,4.632,4.6624,4.5893,4.5893,4.5893,4.5855,4.5141,4.4306,4.3211,3.9827,3.8223,3.7661,0.0,0.0,0.0,0.0,0.0,3.237,3.1921,3.3066,0.0,0.0,0.0,0.0,0.0,0.0,0.0,0.0,0.0,0.0,0.0,0.0,0.0,2.8147,2.7839,2.7249,2.636,2.5273,2.4373,0.0,2.4282,2.453,2.4473,0.0,0.0,0.0,0.0,0.0,2.29,2.2422,2.1978,2.1725,2.1558,2.1434,2.1396,2.185,2.2203,2.246,2.3249,2.3782,2.3917,2.4104,2.294,0.0,0.0,0.0,0.0,0.0,0.0,0.0,0.0,0.0,0.0,0.0,0.0,0.0,0.0,0.0,0.0,0.0,0.0,0.0,0.0,0.0,0.0,0.0,0.0,0.0,0.0,0.0,0.0,3.2425,3.567,3.6656,3.6934,3.6558,0.0,0.0,0.0,0.0,0.0,0.0,3.6931,3.8409,3.9778,4.1008,4.2567,4.3774,4.4627,4.619,4.7014,4.7266,4.8066,4.8548,4.8779,4.8548,4.8432,4.8432,4.8202,4.7394,4.6026,4.288,4.0639,3.9057,3.8591,3.7471,3.6102,3.5439,3.578,3.6422,3.5533,3.6156,3.7364,3.7364,0.0,3.4463,3.3941,0.0,0.0,0.0,0.0,3.0207,3.0937,2.9907,2.8818,2.9206,2.8762,2.8094,2.7245,2.7072,2.6557,0.0,2.5202,2.5793,2.5598,0.0,0.0,0.0,0.0,2.4132,2.4532,2.3614,2.2923,2.2848,2.266,2.2493,2.2461,2.2961,2.3318,2.3399,2.4099,2.454,2.4567,2.4801,2.3934,2.1897,0.0,0.0,0.0,0.0,0.0,0.0,0.0,0.0,0.0,0.0,0.0,0.0,0.0,0.0,0.0,0.0,0.0,0.0,0.0,0.0,0.0,0.0,0.0,0.0,0.0,0.0,0.0,0.0,0.0,3.5483,3.9909,0.0,0.0,0.0,0.0,3.6597,3.7268,3.8728,4.088,4.1872,4.3361,4.5515,4.6783,4.7802,4.8621,4.8634,4.9072,4.9796,4.9486,4.9779,5.0548,4.9702,4.9317,4.9279,4.8471,4.8048,4.7778,4.5163,4.364,4.2739,4.0748,3.9967,3.9908,3.9814,3.9299,3.8784,3.9813,4.0223,4.0315,4.0315,3.9517,3.7832,3.3562,3.3423,0.0,0.0,3.1971,3.2456,3.1804,3.1559,3.1111,2.9574,2.9164,2.8945,2.8192,2.8047,2.7485,0.0,2.539,2.5568,2.6004,0.0,2.4962,2.5505,2.4778,2.4097,2.3789,2.3689,2.3522,2.3212,2.3165,2.3223,2.3408,2.3804,2.4154,2.4509,2.4909,2.5141,2.5074,2.5154,2.5095,2.4973,2.3454,0.0,0.0,0.0,0.0,0.0,0.0,0.0,0.0,0.0,0.0,0.0,0.0,0.0,0.0,0.0,0.0,0.0,0.0,0.0,0.0,0.0,0.0,0.0,0.0,0.0,0.0,0.0,0.0,4.1341,4.3701,0.0,0.0,4.1545,4.1021,4.0518,4.21,4.3631,4.4926,4.636,4.75,4.8233,4.9194,4.9823,5.0118,5.0284,5.0696,5.1291,5.1408,5.1743,5.2279,5.1395,5.1318,5.1779,5.0394,4.9779,4.9663,4.8202,4.6471,4.4564,4.2748,4.2044,4.2064,4.2044,4.2176,4.233,4.2223,4.2162,4.186,3.9795,3.8731,3.7774,3.5132,3.4785,3.507,3.4061,3.3637,3.3425,3.3325,3.29,3.2135,3.0852,3.0557,3.0174,2.8861,2.8605,2.8193,2.6617,2.6289,2.624,2.6303,2.552,2.5082,2.5563,2.5292,2.4968,2.4754,2.499,2.5127,2.5013,2.4385,2.4076,2.4374,2.4312,2.4392,2.4696,2.4944,2.5077,2.5109,2.5006,2.5015,2.513,2.4562,2.4523,0.0,0.0,0.0,0.0,0.0,0.0,0.0,0.0,0.0,0.0,0.0,0.0,0.0,0.0,0.0,0.0,0.0,0.0,0.0,0.0,0.0,0.0,0.0,0.0,0.0,0.0,4.36,4.5842,4.7537,4.7905,4.6284,4.5363,4.4773,4.4478,4.614,4.7609,4.871,5.0068,5.0802,5.0802,5.161,5.1903,5.161,5.1639,5.1887,5.2151,5.2437,5.2728,5.2976,5.2546,5.2664,5.3126,5.201,5.1395,5.1048,5.0202,4.8663,4.674,4.5355,4.4432,4.397,4.4278,4.4547,4.4662,4.4124,4.3688,4.2948,4.0463,3.9027,3.8021,3.6615,3.6036,3.5824,3.5475,3.5207,3.4907,3.4351,3.3928,3.3307,3.2027,3.1439,3.0874,2.987,2.9281,2.8679,2.7816,2.7136,2.6961,2.7735,2.7495,2.7708,2.918,2.9813,3.0053,2.9935,2.9119,2.8507,2.8503,2.6468,2.5308,2.5638,2.1115,2.0326,2.5091,2.107,2.0469,2.4815,2.6352,2.7128,2.7186,2.7164,2.7627,2.8615,0.0,0.0,0.0,0.0,0.0,0.0,0.0,0.0,0.0,0.0,0.0,0.0,0.0,0.0,0.0,0.0,0.0,0.0,0.0,0.0,0.0,0.0,0.0,3.8766,4.3088,4.6691,4.8458,5.1434,5.205,4.8857,4.9297,4.9407,4.8563,4.9297,5.0472,5.2013,5.2858,5.3298,5.3298,5.4032,5.4069,5.3261,5.2787,5.253,5.253,5.2597,5.2653,5.2679,5.3053,5.322,5.3259,5.3203,5.2702,5.1895,5.1048,5.0202,4.9317,4.8432,4.7086,4.574,4.6586,4.6355,4.5586,4.5586,4.4787,4.3618,4.2494,4.0816,3.8998,3.7853,3.7184,3.6646,3.6054,3.6689,3.6972,3.4822,3.4695,3.4687,3.2918,3.1724,3.1033,3.1217,3.0022,2.8976,2.9232,2.8007,2.7693,3.0193,3.107,3.2563,3.5883,3.7716,0.0,3.8621,3.5546,3.3156,3.273,2.9058,2.663,2.6622,1.4618,1.2651,2.5742,1.3879,1.1901,2.4249,2.9006,3.1256,3.1156,3.1109,3.1193,3.1404,0.0,0.0,0.0,0.0,0.0,0.0,0.0,0.0,0.0,0.0,0.0,0.0,0.0,0.0,0.0,0.0,0.0,0.0,0.0,0.0,0.0,0.0,4.0998,4.1898,4.6286,5.0251,5.2495,5.4546,5.5244,5.3739,5.3812,5.3592,5.2784,5.3482,5.4142,5.4583,5.4803,5.495,5.495,5.5133,5.4876,5.4069,5.3939,5.3746,5.346,5.3487,5.3644,5.3959,5.3746,5.3976,5.4498,5.2905,5.2472,5.2741,5.1279,5.0202,4.9317,4.8432,4.7471,4.6586,4.6817,4.6206,4.5243,4.5243,4.4659,4.3802,4.2894,4.2084,4.1051,3.8977,3.8272,3.7903,3.6807,3.6806,3.6952,3.5723,3.5683,3.5435,3.3368,3.266,3.2173,3.1222,3.1168,3.0935,2.9501,2.9411,2.9355,2.8627,2.8339,2.8426,2.9066,2.9943,0.0,3.032,2.9902,2.6203,1.7164,2.3226,2.4131,1.4847,1.8776,2.2968,2.5902,2.1628,2.054,2.4006,2.499,2.6088,2.7508,2.9842,3.1064,0.0,0.0,0.0,0.0,0.0,0.0,0.0,0.0,0.0,0.0,0.0,0.0,0.0,0.0,0.0,0.0,0.0,0.0,0.0,0.0,0.0,0.0,4.2886,4.5972,4.7673,5.0428,5.3188,5.5611,5.6748,5.7005,5.6161,5.6088,5.5757,5.495,5.5317,5.5574,5.5574,5.5904,5.5941,5.5611,5.5574,5.5354,5.4913,5.4583,5.4275,5.4044,5.4204,5.4278,5.4183,5.411,5.4363,0.0,5.3708,5.3123,5.2916,5.2085,5.1048,0.0,0.0,0.0,0.0,0.0,4.5822,4.5115,4.5115,4.4612,4.3923,4.3439,4.2828,4.2029,4.0634,3.9974,3.9412,3.8062,3.8065,3.8112,3.676,3.6432,3.6071,3.4442,3.3436,3.2632,3.1927,3.1938,3.1747,3.0676,3.0955,0.0,2.9814,2.9917,3.0131,2.9976,3.0217,2.9593,2.7296,2.4411,1.9339,1.0967,1.4956,1.5343,0.8305,0.9403,0.0,0.0,0.0,1.4623,2.3727,2.4088,0.0,0.0,0.0,3.2149,3.1996,0.0,0.0,0.0,2.3503,2.1249,0.0,0.0,0.0,0.0,0.0,0.0,0.0,0.0,0.0,0.0,0.0,0.0,0.0,0.0,0.0,0.0,4.7153,5.0926,5.4209,5.4766,5.5611,5.774,5.7997,5.7703,5.7005,5.6932,5.6638,5.5904,5.5868,5.5868,5.5868,0.0,0.0,0.0,0.0,5.5831,5.5721,5.5023,5.4583,5.4399,5.4751,5.4501,5.3758,5.4221,5.4414,5.4365,5.4676,5.3925,5.2526,5.2746,5.1949,5.0545,5.0489,4.9048,4.6877,4.5975,4.5339,4.4966,4.4966,0.0,0.0,4.3937,4.3278,4.2433,4.2323,4.1809,4.0993,3.9674,3.9816,3.9815,3.7802,3.7055,3.6621,3.5789,3.4227,3.293,3.3226,3.2701,3.2259,3.2316,3.2551,3.2656,3.2329,3.3326,3.4016,3.3689,3.3036,3.0693,2.5377,1.7871,1.1529,0.7526,0.0,0.0,0.3071,-0.5757,-0.4362,1.1893,0.0801,0.2332,2.1613,2.3549,2.6653,3.1904,3.2185,3.2448,3.2837,3.1202,2.9923,2.8915,2.3,2.0791,0.0,0.0,0.0,0.0,0.0,0.0,0.0,0.0,0.0,0.0,0.0,0.0,0.0,0.0,0.0,4.6888,5.0371,5.3508,5.6006,5.6895,5.7483,5.7923,5.7997,5.7923,5.7776,5.7776,5.7703,5.7556,5.7519,5.7519,5.7519,5.7666,0.0,5.7519,5.7519,5.7226,5.6565,5.6418,5.5684,5.4399,0.0,0.0,5.3318,5.3758,5.3743,5.3428,5.3166,5.2676,5.1984,5.1079,5.0329,4.9717,4.9325,4.8487,4.7319,4.6163,4.51,4.4204,4.4204,4.3943,4.3597,4.3597,4.3419,4.313,4.2506,4.2176,0.0,4.0956,4.0533,4.0002,3.8736,3.8035,3.7426,3.639,3.5331,3.4595,3.4872,3.4859,3.4456,3.3293,3.375,3.3809,3.2391,3.1373,2.9488,2.5719,2.1768,1.7105,1.1212,0.5997,-0.1595,-1.3267,-0.562,-0.3543,-1.2992,-0.5062,0.2267,0.6546,0.5349,0.6266,1.0215,1.4362,1.7609,1.9767,2.0942,2.4217,2.9487,2.0558,1.6296,1.6685,2.4141,2.69,0.0,0.0,0.0,0.0,0.0,0.0,0.0,0.0,0.0,0.0,0.0,4.0778,0.0,0.0,4.7527,4.9884,5.27,5.5124,5.6637,5.7517,5.7997,5.7997,5.7997,5.7997,5.7997,5.7997,5.7997,5.7997,5.7997,5.7997,5.7997,5.7997,5.7997,5.7997,5.7593,5.7409,5.7409,5.6602,5.5794,5.4987,5.4583,5.3995,5.3188,5.2998,5.2903,5.284,5.2462,5.2018,5.1507,5.0527,4.9872,4.9428,4.8598,4.784,4.7125,4.5708,4.4693,4.3998,4.3998,4.3791,4.3497,4.3497,4.3497,4.3424,4.302,4.291,4.2727,4.1919,4.1498,4.1071,4.0115,3.9393,3.8633,3.772,3.6853,3.6185,3.591,3.5653,3.5275,3.4565,3.4659,3.4492,3.3268,3.2124,2.9644,2.4599,1.8124,1.104,0.3224,-0.4982,-1.3553,-2.2496,-1.7476,-1.5577,-2.0713,-1.0908,-0.4185,-0.3463,-0.0902,0.1085,0.2264,0.514,0.7734,0.9969,1.0523,1.2846,1.7039,1.0428,0.7308,0.7598,1.1739,1.5568,0.0,0.0,0.0,0.0,0.0,0.0,0.0,0.0,4.1765,4.2278,4.3816,4.5436,4.676,4.8853,5.0854,5.2333,5.4509,5.6154,5.6804,5.7498,5.7997,5.7997,5.7997,5.7997,5.7997,5.7997,5.7997,5.7997,5.7997,5.7997,5.7997,5.7997,5.7997,5.7997,5.7373,5.7336,5.7997,5.6565,5.5757,5.5574,5.4766,5.3995,5.3188,5.238,5.2112,5.2268,5.1732,5.1301,5.09,5.0164,4.9617,4.9159,4.8021,4.7372,4.6824,4.5209,4.4296,4.3912,4.3912,4.3726,4.3497,4.3497,4.3497,4.3497,4.3497,4.3497,4.3351,4.2727,4.2433,4.2139,4.1515,4.0744,3.9974,3.9313,3.8542,3.7808,3.7174,3.6495,3.5915,3.5816,3.5498,3.5032,3.4243,3.3706,3.1421,2.5862,1.8377,0.9476,-0.1339,-1.231,-2.1224,-2.6823,-2.7537,-2.6702,-2.4418,-1.8183,-1.4066,-1.3509,-0.9943,-0.6936,-0.4797,-0.3723,-0.2033,0.0511,0.0492,0.0409,0.044,-0.0705,-0.2029,-0.3607,-0.5225,-0.0872,4.1831,3.9939,3.8744,4.0518,4.0636,4.1144,0.0,0.0,4.7358,4.7752,4.9054,5.0238,5.0521,5.1966,5.3376,5.4174,5.5679,5.6804,5.6912,5.7498,5.7997,5.7997,5.7997,5.7997,5.7997,5.7997,5.7997,5.7997,5.7997,5.7997,5.7997,5.7997,5.7997,5.7997,5.7923,5.7923,5.7997,5.7116,5.6308,5.5574,5.4766,5.3995,5.3188,5.238,5.178,5.1374,5.0266,4.9759,4.9683,4.9209,4.8813,4.8347,4.75,4.7132,4.6874,4.5291,4.4189,4.3529,4.3529,4.3529,4.3497,4.3497,4.3497,4.3497,4.3497,4.3497,4.3461,4.3387,4.2837,4.2286,4.2176,4.1589,4.0965,4.0855,4.023,3.9658,3.9732,3.8615,3.7503,3.7037,3.6323,3.5544,3.4765,3.4742,3.2702,2.6384,2.1012,1.2136,-0.3377,-1.1132,-1.928,-2.9879,-3.1538,-3.0287,-2.6198,-2.2356,-1.9792,-1.8995,-1.5468,-1.33,-1.2962,-1.1514,-1.056,-1.017,-0.922,-1.1681,-1.7643,-1.4889,-1.6963,-2.3393,-2.047,-1.3241,4.4529,4.3544,0.0,0.0,4.5544,4.7001,4.9543,5.142,5.2623,5.274,5.3634,5.4356,5.3889,5.3955,5.4219,0.0,5.5518,5.6204,5.6204,5.6817,5.7116,5.6638,5.6602,5.6785,5.7262,5.7299,5.7299,5.7299,5.774,5.7997,5.7997,5.7997,5.7997,5.7997,5.7997,5.7997,5.7997,5.6748,5.5941,5.5574,5.4326,5.3555,5.3188,5.238,5.1484,5.0554,4.9821,4.9356,4.9139,4.8945,4.8639,4.8233,4.7425,4.6838,4.6324,4.5663,4.4892,4.4195,4.4195,4.3901,4.3497,4.3497,4.3497,4.3497,4.3497,4.3497,4.3497,4.3497,4.324,4.2983,4.2983,4.2763,4.2396,4.1919,4.1552,4.1089,4.0384,3.9478,3.8673,3.8076,3.6784,3.5562,3.4737,3.426,3.2923,2.9965,2.4451,1.6116,0.3652,-0.7324,-1.8743,-3.1204,-3.237,-3.1205,-2.8639,-2.6755,-2.5245,-2.4119,-2.1744,-1.9965,-1.8878,-1.6936,-1.5584,-1.5035,-1.4311,-1.5875,-1.9813,-2.0447,-2.3258,-2.8015,-2.8294,-2.6043,4.6807,0.0,0.0,4.8733,5.0497,5.2425,5.4428,5.6176,5.7333,5.7007,5.7316,5.7382,5.6474,5.5416,0.0,5.46,5.5216,5.5724,5.5724,5.6161,5.6235,5.5647,5.4987,5.4913,5.5721,5.6235,5.6455,5.6455,5.7226,5.7666,5.7666,5.7886,5.7997,5.7997,5.7997,5.7997,5.7997,5.6381,5.5574,5.5574,5.3959,5.3225,5.3188,5.2123,5.1115,5.0035,4.9449,4.9043,4.8878,4.8779,4.8568,4.8233,4.7682,4.7095,4.6544,4.6544,4.5626,4.4378,4.4378,4.3975,4.3497,4.3497,4.3497,4.3497,4.3497,4.3497,4.3497,4.3497,4.3497,4.3497,4.3497,4.3497,4.3351,4.2763,4.2616,4.2262,4.0921,4.021,3.9476,3.8356,3.6779,3.5399,3.4448,3.3519,3.2611,3.1792,2.7161,2.0097,0.9845,-0.617,-2.0929,-3.2366,-3.3146,-3.2301,-3.0889,-2.9863,-2.8879,-2.7853,-2.6123,-2.4467,-2.294,-2.1037,-1.9471,-1.8299,-1.7929,-1.8517,-1.994,-2.3431,-2.6603,-2.9575,-3.2493,-3.4194,0.0,0.0,5.0443,5.3207,5.4671,5.6099,5.8528,6.0323,6.1256,6.0498,5.9727,5.89,5.8106,5.6098,5.46,5.46,5.5216,5.5724,5.5724,5.5654,5.5611,5.5574,5.3518,5.2417,0.0,5.473,5.5647,5.5647,5.6381,5.6859,5.6859,5.7593,5.7997,5.7997,5.7997,5.7997,5.7997,5.6381,5.5574,5.5574,5.3959,5.3225,5.3151,5.1573,5.0562,5.0001,4.8827,4.8532,4.8881,4.8495,4.8306,4.8306,4.8269,4.8269,4.8233,4.8233,4.625,4.3534,4.3534,4.3497,4.3497,4.3497,4.3497,4.3497,4.3497,4.3497,4.3497,4.3497,4.3497,4.3497,4.3497,4.3497,4.3497,4.3461,4.3461,4.3141,4.1991,4.1215,3.9896,3.7336,3.6224,3.525,3.3848,3.2919,3.1736,3.0033,2.8684,2.3675,1.2076,-0.9793,-2.6927,-3.382,-3.4869,-3.4357,-3.257,-3.103,-2.994,-2.9455,-2.7337,-2.5651,-2.4734,-2.3847,-2.2523,-2.0723,-2.0652,-2.1054,-2.1911,-2.4909,-2.7958,-3.0964,-3.3448,-3.5247,0.0,0.0,5.4563,5.6237,5.8537,6.0885,6.2844,6.4108,6.433,6.2443,6.1295,5.9951,5.7517,5.5549,5.4281,5.4415,5.5051,5.5598,5.5709,5.6125,5.5794,5.4216,5.3298,0.0,0.0,0.0,0.0,5.408,5.5305,5.6104,5.6152,5.6866,5.7498,5.7997,5.7997,5.7997,5.7997,5.6381,5.5574,5.5574,5.3959,5.3225,5.3188,5.2087,5.1213,5.0523,4.9559,4.8935,4.8495,4.8382,4.8306,4.8306,4.8306,4.7976,4.7498,4.7498,4.6471,4.5076,4.5076,4.4745,4.4195,4.3644,4.3497,4.3497,4.3497,4.3497,4.3497,4.3497,4.3497,4.3497,4.3497,4.3497,4.3391,4.3069,4.2995,4.2619,4.1429,4.1031,4.0205,3.8036,3.664,3.5123,3.3166,3.1248,2.8881,2.5549,2.8061,2.357,0.4946,-1.7622,-3.2144,-3.2858,-3.4568,-3.5431,-3.4833,-3.3857,-3.2978,-3.2258,-3.0526,-2.8987,-2.7651,-2.5219,-2.3395,-2.2209,-2.1268,-2.1237,-2.2047,-2.5941,-2.9015,-3.1335,-3.4555,-3.6594,0.0,5.5858,5.8945,6.0628,6.2805,6.4897,6.6292,6.6329,6.5437,6.3203,6.137,5.9307,5.6617,5.4803,5.3498,5.2831,5.3808,5.4629,5.4524,5.4858,5.484,5.4142,5.3298,0.0,0.0,0.0,0.0,5.2485,5.4206,5.5188,5.4948,5.59,5.6721,5.713,5.718,5.718,5.718,5.562,5.4626,5.4346,5.3324,5.2937,5.3188,5.238,5.1573,5.0765,4.9958,4.9114,4.8267,4.8075,4.7995,4.7919,4.7679,4.7306,4.6912,4.7113,4.69,4.6353,4.5993,4.5369,4.4635,4.4085,4.3718,4.3497,4.3497,4.3497,4.3463,4.325,4.3356,4.3391,4.2995,4.3032,4.3069,4.2501,4.2382,4.2139,4.1115,4.092,4.022,3.8038,3.6821,3.5331,3.2766,2.9121,2.5533,2.2628,2.236,1.659,0.0062,-1.7431,-2.8944,-3.0433,-3.3338,-3.5119,-3.4979,-3.4814,-3.4384,-3.3625,-3.1936,-3.0363,-2.9066,-2.6355,-2.435,-2.3127,-2.2243,-2.2018,-2.2562,-2.6859,-3.0018,-3.2026,-3.521,-3.7319,5.7751,6.0683,6.3356,6.5983,6.721,6.7944,6.8641,6.6953,6.4699,6.2874,5.9989,5.7208,0.0,0.0,5.2214,5.0264,5.1723,5.2931,5.259,5.2397,5.3072,0.0,0.0,0.0,0.0,0.0,0.0,5.0973,0.0,5.4107,5.3458,5.4783,5.5596,5.5724,5.5724,5.5724,5.5724,5.4201,5.2996,5.2137,5.2137,5.2463,5.3146,5.2339,5.1532,5.0765,4.9994,4.915,4.8341,4.7674,4.7421,4.7378,4.6682,4.6365,4.646,4.7088,4.7342,4.7211,4.6243,4.5443,4.4819,4.4782,4.4232,4.3608,4.3571,4.3534,4.3429,4.288,4.3069,4.3142,4.2139,4.2221,4.2498,4.1895,4.1768,4.1595,4.1013,4.0827,3.9993,3.7329,3.6614,3.5471,3.2333,2.6505,2.193,2.0771,1.2382,0.4074,-0.2015,-1.0284,-1.8633,-2.683,-3.131,-3.3584,-3.3275,-3.3924,-3.4064,-3.3531,-3.1545,-3.0021,-2.9085,-2.7245,-2.5392,-2.3519,-2.3519,-2.3497,-2.3548,-2.7685,-3.0794,-3.3031,-3.5368,-3.7292,5.9347,6.2668,6.5946,6.7834,6.8458,6.8348,6.7357,6.5653,6.3423,6.0567,5.7753,5.5281,0.0,0.0,0.0,5.1067,5.186,0.0,5.4646,5.5307,0.0,0.0,0.0,5.4078,5.249,5.2335,0.0,0.0,5.1794,5.3014,5.3439,5.3833,5.4583,5.5688,5.5724,5.5724,5.5724,5.4712,5.3548,5.218,5.218,5.2215,5.2381,5.2164,5.1588,5.0802,5.0582,5.0031,4.9148,4.7928,4.7746,4.8171,4.6895,4.6365,4.6413,4.6553,4.6646,4.6611,4.6355,4.639,4.6397,4.581,4.5443,4.5186,4.4599,4.409,4.3754,4.3559,4.2893,4.2292,4.2526,4.2321,4.1895,4.1251,4.1115,4.0967,4.0417,3.98,3.8911,3.7141,3.4364,3.134,2.8017,2.3547,1.8462,1.2833,0.602,0.045,-0.255,-1.214,-2.044,-2.4949,-2.8792,-3.1297,-3.2122,-3.3756,-3.4305,-3.3246,-3.2705,-3.1444,-2.9281,-2.7347,-2.5396,-2.336,-2.336,-2.3578,-2.3988,-2.8465,-3.122,-3.2458,-3.5304,-3.6577,6.3012,6.5778,6.8385,6.9633,6.9155,6.8017,6.6663,6.3972,6.0884,5.7802,5.552,0.0,0.0,0.0,0.0,0.0,0.0,0.0,5.3477,5.4665,5.5644,0.0,5.6345,0.0,5.4236,5.3845,5.3218,0.0,5.1829,5.1986,5.2454,5.2769,5.3535,5.4695,5.473,5.4556,5.4174,5.3758,5.2962,5.1745,5.1745,5.1917,5.2112,5.2112,5.1819,5.1316,0.0,5.0497,4.9081,4.7975,4.7426,4.7098,4.604,4.5597,4.5648,4.5915,4.6014,4.6063,4.6318,4.6579,4.6602,4.5482,4.4867,4.4469,4.4035,4.3944,4.39,4.3606,4.3156,4.2661,4.2265,4.2033,4.1614,4.0334,4.0018,3.9868,3.9209,3.8778,3.806,3.6901,3.3938,3.0502,2.7184,2.3429,1.804,0.9627,0.2163,-0.3971,-0.8044,-1.4327,-1.9495,-2.2257,-2.5852,-2.849,-2.9659,-3.1599,-3.2458,-3.1801,-3.1114,-3.0038,-2.8563,-2.6297,-2.4168,-2.2554,-2.2473,-2.2674,-2.304,-2.6692,-2.8795,-2.952,-3.1321,-3.1892,6.7104,6.8916,7.0291,7.1081,6.9412,6.7193,6.5952,6.1931,5.7679,5.4785,0.0,0.0,4.7897,0.0,4.7487,4.5788,0.0,4.9356,5.1556,5.2709,5.4508,5.7517,5.7235,5.6749,5.6525,5.5808,5.508,5.431,5.2439,5.1408,5.1454,5.2029,5.2672,5.3484,5.3518,5.3179,5.2469,5.2469,5.2077,5.1208,5.1208,5.143,5.1838,5.1886,5.1946,5.1857,0.0,0.0,4.8676,4.7879,4.6786,4.5615,4.492,4.4587,4.4665,4.5196,4.5372,4.5477,4.5965,4.6007,4.569,4.4728,4.3925,4.3324,4.3218,4.3588,4.3933,4.3478,4.3568,4.3406,4.1732,4.1614,4.1339,3.9367,3.881,3.858,3.7937,3.7706,3.7381,3.6415,3.4196,3.1223,2.7442,2.3737,1.7962,0.8189,-0.039,-0.8112,-1.4808,-1.6239,-1.7383,-1.9571,-2.2953,-2.5378,-2.6198,-2.8265,-2.9495,-2.9507,-2.8371,-2.7582,-2.7236,-2.4679,-2.2655,-2.1294,-2.1024,-2.0987,-2.1078,-2.3353,-2.4843,-2.5613,-2.602,-2.541,6.7605,6.9224,7.0168,7.1076,6.9009,6.6093,6.3633,5.9297,0.0,0.0,0.0,4.8279,4.5152,4.5889,0.0,4.7511,0.0,0.0,0.0,0.0,5.4963,0.0,0.0,0.0,0.0,0.0,0.0,0.0,0.0,0.0,5.3077,5.2604,5.2672,5.3484,5.3518,5.345,5.3281,5.3281,5.2603,5.1206,5.1206,5.0918,5.039,5.0981,5.1213,5.1058,0.0,0.0,4.9433,4.7568,4.6691,4.636,4.509,4.4587,4.4643,4.472,4.4776,4.4776,4.4852,4.4045,4.3283,4.532,4.587,4.5658,4.4986,4.4589,4.4292,4.4177,4.3374,4.2513,4.2109,4.1199,4.0183,3.9095,3.8412,3.7994,3.7822,3.7263,3.6353,3.4721,3.2695,2.953,2.4175,1.8551,1.1702,0.2702,-0.3707,-0.9437,-1.4956,-1.5832,-1.6863,-1.9282,-2.0923,-2.193,-2.2111,-2.5022,-2.6767,-2.6747,-2.7451,-2.7032,-2.5044,-2.3696,-2.2082,-1.9911,-1.8749,-1.8434,-1.8969,-1.954,-2.124,-2.3819,-2.479,-2.1312,6.7212,6.9095,7.0401,7.0072,6.7213,6.3951,6.1579,0.0,0.0,0.0,0.0,4.7643,4.4916,0.0,0.0,0.0,0.0,0.0,0.0,0.0,0.0,0.0,0.0,0.0,0.0,0.0,0.0,0.0,0.0,0.0,5.3524,5.3524,5.3471,5.3484,5.3518,5.3518,5.3518,5.3078,5.2334,5.1217,5.0811,5.0434,5.0033,5.0335,5.0717,5.0972,5.0972,0.0,4.923,4.7823,4.6803,4.6097,4.4992,4.4327,4.3948,4.3948,4.3621,4.3229,4.3229,4.2724,4.2341,4.3662,4.4177,4.4213,4.4216,4.4406,4.438,4.3931,4.3306,4.2617,4.1727,4.1026,4.0079,3.8309,3.6637,3.5502,3.5502,3.5001,3.4129,3.2695,3.0203,2.7325,2.4134,1.6892,0.855,-0.0097,-0.6675,-1.1869,-1.524,-1.6317,-1.7453,-1.9298,-2.0532,-2.0944,-2.0318,-2.1627,-2.2551,-2.2551,-2.2407,-2.1854,-2.0658,-1.963,-1.83,-1.6528,-1.5939,-1.6071,-1.7018,-1.7139,-1.6478,-1.5197,-1.4807,-1.1399,6.6426,6.8467,7.0141,6.873,6.5265,6.1719,5.9598,5.4919,0.0,0.0,4.8054,4.7088,4.436,0.0,0.0,0.0,0.0,0.0,0.0,0.0,0.0,0.0,0.0,0.0,0.0,0.0,0.0,0.0,0.0,0.0,5.374,5.426,5.4264,5.3484,5.3518,5.3416,5.3247,5.2604,5.186,5.098,5.0371,4.9971,4.978,4.9919,5.0279,5.0876,5.0876,0.0,0.0,4.7859,4.6635,4.5134,4.4562,4.3798,4.2986,4.2737,4.2267,4.1595,4.1367,4.111,4.0884,4.1081,4.1626,4.2315,4.2932,4.3504,4.3914,4.3229,4.2892,4.2326,4.0896,4.0002,3.8723,3.5996,3.3684,3.2165,3.2165,3.1389,3.0351,2.9353,2.6916,2.4262,2.1933,1.4431,0.6053,-0.2144,-0.8608,-1.3158,-1.5063,-1.6209,-1.7252,-1.8164,-1.9356,-1.9629,-1.8364,-1.8362,-1.8482,-1.8482,-1.6401,-1.5192,-1.514,-1.4714,-1.3862,-1.2587,-1.3143,-1.3908,-1.4896,-1.3221,-0.9912,-0.5138,-0.3198,-0.0291,6.5579,6.7238,6.8339,6.7621,6.3929,5.9905,5.7882,0.0,0.0,0.0,4.5436,4.49,4.1038,4.2834,0.0,0.0,0.0,0.0,0.0,0.0,0.0,0.0,0.0,0.0,0.0,0.0,0.0,0.0,0.0,0.0,0.0,5.4537,5.4264,5.3484,5.3518,5.3145,5.2435,5.2334,5.1589,5.0202,5.0135,4.9757,4.9107,4.9722,5.0033,5.009,0.0,0.0,0.0,4.7158,4.5555,4.3542,4.3476,4.2925,4.1981,4.1009,4.0613,4.0411,3.9464,3.8228,3.7315,3.8142,3.9987,4.2013,4.2109,4.2204,4.2236,4.2109,4.1401,4.0479,3.9516,3.6996,3.3918,3.0794,2.9048,2.8053,2.8053,2.6188,2.4266,2.3267,2.2742,2.0041,1.2178,0.7794,0.2915,-0.4532,-0.835,-1.1151,-1.3695,-1.4076,-1.4171,-1.4349,-1.551,-1.5725,-1.453,-1.5369,-1.5994,-1.5994,-1.1368,-0.8581,-0.8592,-1.0001,-1.0071,-0.8466,-1.0815,-1.2122,-1.2231,-0.4984,-0.0,0.2867,0.5387,0.93,6.2144,6.4932,6.7225,6.6066,6.1912,5.7932,5.6766,0.0,0.0,4.5705,4.5255,4.4343,4.2652,4.3527,4.4698,0.0,0.0,0.0,0.0,0.0,0.0,0.0,0.0,0.0,0.0,0.0,0.0,0.0,0.0,0.0,0.0,5.4606,5.4264,5.3484,5.3044,5.2638,5.23,5.142,5.0676,5.0067,4.9627,4.9289,4.9018,4.9256,4.9402,4.9402,0.0,0.0,0.0,4.5845,4.4504,4.3167,4.2682,4.1595,4.0163,3.9786,3.8427,3.6702,3.6319,3.5128,3.3909,3.4217,3.5045,3.6396,3.8857,3.9838,3.9841,3.8597,3.7887,3.6985,3.4579,3.1838,2.9197,2.6713,2.5168,2.4395,2.4995,2.3998,2.1367,1.592,1.4773,1.309,0.7699,0.2726,-0.2365,-0.797,-0.9493,-1.0672,-1.2394,-1.2684,-1.2684,-1.2684,-1.3814,-1.422,-1.3568,-1.2997,-1.1258,-0.7993,-0.3798,-0.165,-0.1948,-0.1842,-0.1454,-0.0779,-0.2654,-0.3959,-0.4765,-0.1594,0.2691,0.7991,1.0006,1.2641,5.9439,6.2566,6.5262,6.3727,5.9969,5.6399,0.0,0.0,4.5159,4.5258,4.4354,4.3261,4.245,4.2738,4.3296,0.0,0.0,0.0,0.0,0.0,0.0,0.0,0.0,0.0,0.0,0.0,0.0,0.0,0.0,0.0,0.0,5.4253,5.4042,5.3518,5.2706,5.2198,5.1995,5.071,4.9965,4.9763,4.9255,4.9018,4.9018,4.9018,4.9018,4.8951,0.0,0.0,0.0,4.465,4.3363,4.2325,4.1456,4.0125,3.8634,3.763,3.5774,3.3684,3.3089,3.166,3.0182,3.0241,3.0,3.0145,3.3065,3.5121,3.6087,3.4606,3.3346,3.1738,2.8455,2.5993,2.4068,2.2741,2.1299,2.0001,1.8989,1.7699,1.4769,0.8667,0.6244,0.4465,0.2057,-0.3185,-0.7905,-1.0297,-1.0337,-1.0276,-1.0771,-1.0815,-1.0779,-1.0779,-1.1521,-1.2221,-1.2433,-1.0134,-0.6697,-0.2086,0.2677,0.5349,0.5214,0.6657,0.7414,0.7382,0.6463,0.521,0.3537,0.3765,0.6767,1.2149,1.334,1.4709,5.805,6.0275,6.1742,6.0469,5.8153,5.5506,0.0,0.0,4.6112,4.3045,4.195,4.0926,3.9005,3.9485,4.0428,4.1366,4.1917,0.0,0.0,0.0,0.0,0.0,0.0,0.0,0.0,0.0,0.0,0.0,0.0,0.0,0.0,5.3471,5.3518,5.3518,5.2706,5.1961,5.1251,5.0473,4.9729,4.9018,4.9018,4.9018,4.9018,4.9018,4.9018,0.0,0.0,0.0,0.0,4.3784,4.2161,4.0622,3.9567,3.859,3.7405,3.4053,3.255,3.1922,3.0097,2.7938,2.6046,2.6396,2.5483,2.4251,2.457,2.7381,3.0596,3.0533,2.7829,2.4258,2.1479,1.9728,1.8617,1.8493,1.7196,1.4511,0.8802,0.5082,0.2635,0.192,-0.233,-0.5804,-0.6199,-1.0782,-1.3421,-1.1061,-1.0484,-0.9868,-0.8473,-0.8133,-0.8038,-0.8038,-0.8058,-0.877,-1.0465,-0.662,-0.2907,-0.02,0.7422,1.219,1.2953,1.4641,1.556,1.5564,1.5599,1.434,1.1819,1.2662,1.4037,1.5757,1.5724,1.6355,5.5154,5.7463,5.915,5.8187,5.5444,5.2451,5.0767,4.6615,4.2787,4.1696,4.0502,3.9371,3.8437,3.8642,3.9364,4.0629,4.0851,0.0,0.0,0.0,0.0,0.0,0.0,0.0,0.0,0.0,0.0,0.0,0.0,0.0,0.0,5.2668,5.2469,5.1961,5.1691,5.1183,5.0473,4.9729,4.9221,4.9018,4.9018,4.9018,4.9018,4.9018,0.0,0.0,0.0,0.0,0.0,4.133,3.9707,3.8605,3.7548,3.6022,3.4219,3.3216,3.1225,2.8854,2.7296,2.5461,2.3786,2.3021,2.2408,2.2031,2.2056,2.4221,2.631,2.4697,2.1345,1.8295,1.8122,1.7015,1.5632,1.4504,1.0577,0.6123,0.2824,0.0208,-0.2488,-0.6241,-0.848,-0.9887,-1.0431,-1.204,-1.3049,-1.2299,-1.2035,-1.1485,-1.0149,-0.9895,-0.9415,-0.8316,-0.8206,-0.8398,-0.88,-0.7578,-0.4024,0.2306,0.6813,1.0109,1.2155,1.4447,1.6156,1.7066,1.6987,1.6115,1.4551,1.3921,1.3861,1.4459,1.6483,1.7079,0.0,5.4226,5.5776,5.5104,5.2858,0.0,0.0,4.4851,4.1429,4.0251,3.8963,3.7809,3.7043,3.7305,3.8023,3.9151,3.9494,0.0,0.0,0.0,0.0,0.0,0.0,0.0,0.0,0.0,0.0,0.0,0.0,0.0,0.0,0.0,5.039,4.9327,5.0287,5.0574,5.0101,4.9357,4.9018,4.9018,4.9018,4.8849,4.8578,4.8578,0.0,0.0,0.0,0.0,0.0,3.9553,3.7745,3.6364,3.5332,3.3804,3.1994,3.0519,2.858,2.6344,2.4617,2.2965,2.1328,2.0664,2.0202,1.9755,1.8962,2.0373,2.1705,1.9618,1.665,1.4094,1.4764,1.2891,1.0296,0.8259,0.4658,0.0759,-0.2808,-0.4511,-0.6389,-1.0215,-1.1484,-1.2216,-1.326,-1.3981,-1.431,-1.3882,-1.3724,-1.3039,-1.1063,-1.0689,-1.0095,-0.857,-0.7386,-0.6637,-0.6497,-0.74,-0.4583,0.3448,0.6537,0.9174,1.1716,1.4291,1.657,1.8272,1.8317,1.8118,1.7857,1.6074,1.4766,1.3921,1.6252,1.5403,0.0,0.0,0.0,0.0,0.0,0.0,0.0,4.399,0.0,3.8688,3.733,3.6329,3.511,3.5638,3.6563,3.7318,3.792,0.0,0.0,0.0,0.0,0.0,0.0,0.0,0.0,0.0,0.0,0.0,0.0,0.0,0.0,0.0,4.7654,4.6205,4.8597,4.9873,4.9936,4.9323,4.9018,4.9018,4.9018,4.8646,4.8003,4.7936,0.0,0.0,0.0,0.0,0.0,3.8393,3.6364,3.414,3.3132,3.1907,3.0299,2.6804,2.5178,2.4526,2.2312,2.0436,1.9036,1.9214,1.8618,1.7499,1.5434,1.5946,1.6976,1.5518,1.3423,1.1625,1.1625,0.7919,0.3349,0.0111,-0.0669,-0.2117,-0.7727,-0.8749,-0.9068,-1.0617,-1.1726,-1.309,-1.4873,-1.6175,-1.6678,-1.5671,-1.541,-1.4316,-1.1478,-1.1002,-1.0264,-0.8709,-0.6061,-0.4256,-0.404,-0.6098,-0.4254,0.3199,0.6385,0.9083,1.1453,1.3862,1.6406,1.9092,1.9265,1.9951,2.1016,1.8688,1.6278,1.3896,1.4606,1.1452,4.4283,0.0,4.7926,4.7287,4.7037,4.6193,0.0,4.1912,4.0272,3.774,0.0,0.0,3.4724,3.4871,3.5481,3.6668,0.0,0.0,0.0,0.0,0.0,0.0,0.0,0.0,0.0,0.0,0.0,0.0,0.0,0.0,0.0,0.0,4.7141,4.6205,4.6823,4.7468,4.8199,4.874,4.9018,4.9018,4.9018,4.8917,4.8714,4.8173,0.0,0.0,0.0,0.0,3.9247,3.7377,3.5251,3.3047,3.2005,3.0258,2.815,2.62,2.4811,2.3619,2.1017,1.9774,1.9111,1.7081,1.6353,1.5873,1.4245,1.4094,1.4352,1.3039,1.116,0.9529,0.9557,0.5365,-0.0223,-0.5601,-0.6837,-0.716,-0.8634,-0.8823,-0.918,-1.0543,-1.1,-1.1983,-1.4253,-1.5047,-1.5654,-1.6678,-1.6769,-1.5744,-1.3056,-1.2715,-1.1675,-0.9126,-0.8125,-0.6712,-0.4239,-0.2675,-0.1052,0.0828,0.5364,0.8282,0.8864,0.9453,1.1919,1.6448,1.7546,1.8226,1.8503,1.6971,1.5281,1.3202,0.8556,0.447,4.2006,4.387,4.5559,4.5178,4.4626,4.3657,4.1768,0.0,0.0,0.0,0.0,0.0,0.0,0.0,0.0,0.0,0.0,0.0,0.0,0.0,0.0,0.0,0.0,0.0,0.0,0.0,0.0,0.0,0.0,0.0,0.0,0.0,4.5273,4.4899,4.5342,4.5992,4.6968,4.7868,4.8219,4.7885,4.7851,4.7517,4.6848,4.6043,4.4849,0.0,0.0,0.0,3.7641,3.5518,3.3326,3.1104,3.0011,2.7985,2.5625,2.43,2.2915,2.1456,1.8665,1.7305,1.6486,1.5127,1.5011,1.5122,1.3307,1.3315,1.3575,1.2146,1.0422,0.8313,0.5489,0.0335,-0.4923,-0.8091,-0.8923,-0.9069,-0.9055,-0.9049,-0.9453,-1.0773,-1.0833,-1.1636,-1.4333,-1.473,-1.5214,-1.6711,-1.6941,-1.6317,-1.4356,-1.3539,-1.2266,-1.0124,-0.9354,-0.8152,-0.6418,-0.3723,-0.1514,-0.0212,0.2525,0.479,0.6057,0.7428,1.0259,1.4846,1.6184,1.6508,1.5927,1.5817,1.4485,1.1885,0.6199,0.1651,4.0724,4.231,4.38,4.389,4.2908,4.1662,4.0567,0.0,0.0,0.0,0.0,0.0,0.0,0.0,0.0,0.0,0.0,0.0,0.0,0.0,0.0,0.0,0.0,0.0,0.0,0.0,0.0,0.0,0.0,0.0,0.0,0.0,0.0,4.2672,4.3482,4.437,4.5217,4.6601,4.6914,4.6323,4.6257,4.5567,4.4322,4.3299,4.2059,0.0,0.0,0.0,3.552,3.3579,3.1344,2.905,2.8049,2.6031,2.3583,2.2165,2.0625,1.8887,1.6037,1.4277,1.3416,1.3394,1.4055,1.4355,1.1794,1.1435,1.1765,1.0358,0.8843,0.6284,0.0781,-0.4819,-0.893,-0.8903,-0.9117,-0.9205,-0.9164,-0.915,-0.9589,-1.0675,-1.0631,-1.1248,-1.4145,-1.4344,-1.4702,-1.6386,-1.6673,-1.6251,-1.5104,-1.3876,-1.2684,-1.1476,-1.0139,-0.9182,-0.896,-0.6594,-0.4221,-0.1863,-0.086,0.0743,0.3287,0.6542,0.9895,1.3149,1.4484,1.468,1.3534,1.4983,1.4185,1.1235,0.5569,0.042,3.9542,4.0513,4.1499,4.1911,4.1877,4.1314,3.9694,0.0,0.0,0.0,0.0,0.0,0.0,0.0,0.0,0.0,0.0,0.0,0.0,0.0,0.0,0.0,0.0,0.0,0.0,0.0,0.0,0.0,0.0,0.0,0.0,0.0,0.0,3.9676,3.9844,4.0237,4.0831,4.4006,4.552,4.5391,4.4812,4.446,4.4168,4.2501,4.1194,0.0,0.0,3.6041,3.3301,3.2962,3.0814,2.7861,2.7673,2.6031,2.3583,2.2165,2.0082,1.737,1.4641,1.3617,1.3443,1.2432,1.2374,1.2003,0.7118,0.4186,0.2394,0.1902,0.1559,0.0557,-0.2901,-0.6444,-0.9157,-0.9157,-0.9259,-0.9313,-0.9178,-0.915,-0.9229,-0.921,-0.9152,-0.9831,-1.2378,-1.2669,-1.349,-1.626,-1.65,-1.603,-1.508,-1.4827,-1.4107,-1.2664,-1.1441,-1.0225,-0.8996,-0.8472,-0.8048,-0.761,-0.3071,-0.0108,0.0638,0.5707,0.8758,0.9354,1.1429,1.2362,1.224,1.4585,1.5499,1.478,0.5042,-0.249,3.8734,3.9535,3.972,3.8556,3.9412,4.0408,3.9624,0.0,0.0,0.0,0.0,0.0,0.0,0.0,0.0,0.0,0.0,0.0,0.0,0.0,0.0,0.0,0.0,0.0,0.0,0.0,0.0,0.0,0.0,0.0,0.0,0.0,0.0,0.0,3.8253,3.8556,3.8472,4.0047,4.1295,4.2014,4.1419,4.0974,4.0568,3.9224,3.8034,3.6978,0.0,3.3783,3.1734,3.0458,2.9076,2.7484,2.6031,2.4356,2.2282,1.9449,1.718,1.5251,1.3053,1.1898,1.1183,1.0697,0.8388,0.5279,0.2948,0.0113,-0.2618,-0.4369,-0.4801,-0.5142,-0.6487,-0.7997,-0.9089,-0.915,-0.9279,-0.9361,-0.9293,-0.9273,-0.9232,-0.9083,-0.8933,-0.9428,-1.1151,-1.2077,-1.319,-1.4971,-1.5849,-1.617,-1.572,-1.5028,-1.4106,-1.29,-1.1647,-1.0349,-0.901,-0.8927,-0.8954,-0.8876,-0.344,-0.011,-0.0,0.2502,0.4658,0.6338,0.7405,0.7793,0.7608,1.0274,1.1584,1.1362,0.3588,-0.2301,3.7886,3.8738,3.8622,3.6853,0.0,3.8584,3.782,0.0,0.0,0.0,0.0,0.0,0.0,0.0,0.0,0.0,0.0,0.0,0.0,0.0,0.0,0.0,0.0,0.0,0.0,0.0,0.0,0.0,0.0,0.0,0.0,0.0,0.0,0.0,3.5824,3.6113,3.5724,3.5607,3.6715,3.8979,3.8339,3.7605,3.6739,3.5837,3.4711,3.3534,3.2425,3.1321,3.0076,2.8265,2.72,2.6512,2.4473,2.2501,2.0323,1.6572,1.4452,1.3203,1.1561,1.0256,0.9306,0.9361,0.5199,-0.0114,-0.1364,-0.3532,-0.6052,-0.837,-0.8943,-0.897,-0.9028,-0.9042,-0.9209,-0.9674,-0.9946,-1.0047,-0.9968,-0.9982,-0.9824,-0.9257,-0.9042,-0.9471,-1.098,-1.2096,-1.3237,-1.4607,-1.5716,-1.638,-1.638,-1.5369,-1.4383,-1.3681,-1.2145,-1.0592,-0.9037,-0.8967,-0.8981,-0.8856,-0.4578,-0.1785,-0.1115,-0.1005,-0.0,0.2297,0.2406,0.2609,0.3112,0.5173,0.6093,0.6069,0.1867,-0.1656,3.6868,3.792,3.8757,3.9272,3.76,0.0,3.2193,3.2176,0.0,3.2777,0.0,0.0,0.0,0.0,0.0,0.0,0.0,0.0,0.0,0.0,0.0,0.0,0.0,0.0,0.0,0.0,0.0,0.0,0.0,0.0,0.0,0.0,0.0,0.0,0.0,3.097,3.1472,3.0924,3.3211,3.8145,3.6899,3.5732,3.4605,3.3527,3.2425,3.1161,3.0145,2.8936,2.784,2.7673,2.6127,2.398,2.3782,2.1383,1.7648,1.4779,1.2965,1.1661,1.0026,0.9496,0.9696,0.9103,0.5051,-0.0683,-0.6439,-0.8533,-0.895,-0.9171,-0.9259,-0.932,-0.9178,-0.9245,-0.9729,-1.1386,-1.1921,-1.1963,-1.1628,-1.1678,-1.1181,-0.9252,-0.9055,-0.9928,-1.2269,-1.272,-1.376,-1.6562,-1.6847,-1.6673,-1.6673,-1.6573,-1.6381,-1.6058,-1.4026,-1.1647,-0.914,-0.9062,-0.9083,-0.8947,-0.851,-0.7049,-0.4247,-0.4136,-0.4021,-0.3904,-0.3904,-0.245,0.0334,0.0445,0.0558,0.0559,0.0224,-0.1565,3.5882,3.5732,3.4779,3.3638,3.2963,0.0,0.0,3.313,3.2125,3.2345,0.0,0.0,0.0,0.0,0.0,0.0,0.0,0.0,0.0,0.0,0.0,0.0,0.0,0.0,0.0,0.0,0.0,0.0,0.0,0.0,0.0,0.0,0.0,0.0,0.0,2.8391,2.8105,2.7469,2.8314,3.0721,3.1584,3.1695,3.1233,3.0007,2.8807,2.7535,2.6235,2.5024,2.3943,2.4099,2.3622,2.2536,2.0814,1.8725,1.6366,1.3497,1.2238,1.1733,1.0066,0.8207,0.6373,0.415,0.0681,-0.3375,-0.7639,-0.8897,-0.9049,-0.9137,-0.9873,-1.0713,-1.076,-1.0815,-1.1372,-1.3054,-1.3508,-1.3527,-1.3481,-1.351,-1.3183,-1.2135,-1.1997,-1.2284,-1.2979,-1.3891,-1.479,-1.5695,-1.6523,-1.6914,-1.6727,-1.5884,-1.4975,-1.4219,-1.1903,-0.9998,-0.9167,-0.9123,-0.9171,-0.9211,-0.9118,-0.8622,-0.75,-0.747,-0.7519,-0.7519,-0.7323,-0.6714,-0.5568,-0.3706,-0.2794,-0.2796,-0.2937,-0.4651,3.5031,3.4006,3.2136,3.1039,0.0,0.0,3.3067,3.3045,3.2364,3.2401,0.0,0.0,0.0,0.0,0.0,0.0,0.0,0.0,0.0,0.0,0.0,0.0,0.0,0.0,0.0,0.0,0.0,0.0,0.0,0.0,0.0,0.0,0.0,0.0,0.0,2.5838,2.4889,2.4417,2.438,2.4758,2.63,2.717,2.7525,2.6615,2.5469,2.4263,2.3402,2.2586,2.1857,2.2133,2.1675,2.0513,1.8252,1.6303,1.4395,1.2374,1.1541,1.1261,0.9988,0.8176,0.5432,-0.081,-0.4221,-0.6312,-0.8307,-0.8988,-0.9035,-0.9184,-1.0052,-1.1151,-1.2374,-1.2605,-1.303,-1.4604,-1.5023,-1.5055,-1.4981,-1.4677,-1.4029,-1.3218,-1.3086,-1.3282,-1.3407,-1.468,-1.5791,-1.5964,-1.6781,-1.7288,-1.6901,-1.5605,-1.4012,-1.2288,-1.0566,-0.9432,-0.925,-0.9239,-0.932,-0.9374,-0.9365,-0.9332,-0.9259,-0.9367,-0.9429,-0.9429,-0.9205,-0.9036,-0.9043,-0.6935,-0.5989,-0.603,-0.6289,-0.7361,3.4129,3.2943,3.163,0.0,0.0,0.0,0.0,3.0801,3.3328,0.0,0.0,0.0,0.0,0.0,0.0,0.0,0.0,0.0,0.0,0.0,0.0,0.0,0.0,0.0,0.0,0.0,0.0,0.0,0.0,0.0,0.0,0.0,0.0,0.0,2.3683,2.2968,2.1643,2.1643,2.1643,2.1643,2.1643,2.2298,2.352,2.3422,2.278,2.1676,2.1952,2.2012,2.2029,2.2388,2.0696,1.7701,1.6453,1.4065,1.1544,1.1544,1.0745,0.9863,0.9774,0.97,0.76,-0.485,-0.8891,-0.8957,-0.891,-0.9055,-0.9184,-0.934,-0.949,-1.0346,-1.3718,-1.4555,-1.4677,-1.5806,-1.6284,-1.6515,-1.6357,-1.5248,-1.3732,-1.2161,-1.1927,-1.2454,-1.3744,-1.5288,-1.6673,-1.7873,-1.8036,-1.7809,-1.7235,-1.589,-1.3887,-1.0946,-1.0783,-1.0414,-0.9257,-0.9435,-0.9544,-0.9395,-0.9659,-0.9686,-0.9395,-0.9388,-0.9388,-0.9388,-0.9388,-0.9395,-0.9175,-0.903,-0.9043,-0.9442,-0.9415,-0.9415,3.0783,2.8698,0.0,0.0,0.0,0.0,0.0,0.0,0.0,0.0,0.0,0.0,0.0,0.0,0.0,0.0,0.0,0.0,0.0,0.0,0.0,0.0,0.0,0.0,0.0,0.0,0.0,0.0,0.0,0.0,0.0,0.0,0.0,0.0,2.1862,2.0641,2.0231,1.9317,1.8812,1.8812,1.8812,2.001,2.2214,2.1204,2.0507,2.0158,1.9473,1.9192,1.9234,1.9775,1.8789,1.6803,1.5506,1.3664,1.1645,1.0606,1.013,0.9741,0.9787,0.6719,0.1914,-0.3889,-0.7327,-0.9051,-0.9001,-0.8974,-0.9055,-0.9313,-1.0215,-1.1678,-1.3713,-1.5248,-1.6599,-1.8058,-1.8455,-1.8494,-1.8531,-1.7274,-1.6309,-1.6756,-1.5954,-1.5576,-1.693,-1.7576,-1.7994,-1.826,-1.7436,-1.5841,-1.3317,-1.2755,-1.1801,-0.9802,-0.9716,-0.9802,-0.9598,-0.9612,-0.968,-0.9842,-0.9829,-0.9734,-0.9551,-0.9639,-0.9693,-0.9693,-0.9591,-0.9544,-0.9432,-0.9278,-0.9918,-1.1009,-1.0047,-1.0208,2.8309,0.0,0.0,0.0,0.0,0.0,0.0,0.0,0.0,0.0,0.0,0.0,0.0,0.0,0.0,0.0,0.0,0.0,0.0,0.0,0.0,0.0,0.0,0.0,0.0,0.0,0.0,0.0,0.0,0.0,0.0,0.0,0.0,0.0,2.0296,1.9258,1.8626,1.7934,1.7582,1.7582,1.7582,1.8499,2.0025,1.9213,1.8812,1.8826,1.8211,1.8103,1.8154,1.803,1.6984,1.5303,1.4025,1.2513,1.0791,0.9968,0.8945,0.8005,0.9296,0.3793,-0.4234,-0.5962,-0.7786,-0.9334,-0.9164,-0.9117,-0.9164,-0.9401,-1.0623,-1.2276,-1.3986,-1.5675,-1.7394,-1.8722,-1.9105,-1.9185,-1.9185,-1.7877,-1.7029,-1.793,-1.7329,-1.6807,-1.6894,-1.7439,-1.7629,-1.694,-1.5806,-1.421,-1.1716,-1.1469,-1.0962,-0.9564,-0.9359,-0.9546,-0.9781,-0.9787,-0.9854,-0.9903,-0.9824,-0.9711,-0.9694,-0.9815,-0.9822,-0.9822,-0.9734,-0.9693,-0.9693,-0.9544,-1.031,-1.1887,-1.0989,-1.1043,0.0,0.0,0.0,0.0,0.0,0.0,0.0,0.0,0.0,0.0,0.0,0.0,0.0,0.0,0.0,0.0,0.0,0.0,0.0,0.0,0.0,0.0,0.0,0.0,0.0,0.0,0.0,0.0,0.0,0.0,0.0,0.0,0.0,0.0,1.9182,1.864,1.7298,1.7448,1.7582,0.0,1.7582,1.7582,1.7582,1.7582,1.7595,1.7635,1.7769,1.7952,1.8171,1.6822,1.5281,1.3611,1.2463,1.102,0.9612,0.9533,0.7543,0.5291,0.7921,0.0861,-0.9406,-0.9734,-0.9666,-0.9486,-0.9435,-0.9381,-0.9415,-0.9564,-1.0776,-1.2443,-1.4183,-1.5784,-1.7322,-1.8341,-1.8771,-1.8958,-1.8958,-1.7665,-1.668,-1.716,-1.7079,-1.6492,-1.5074,-1.602,-1.6306,-1.4336,-1.3798,-1.2983,-1.1496,-1.1405,-1.0895,-0.9758,-0.9566,-0.9471,-0.9349,-0.9615,-0.9697,-0.9447,-0.9435,-0.9367,-0.9356,-0.9691,-0.9836,-0.9822,-0.9943,-1.0065,-1.0058,-1.0046,-1.0994,-1.2689,-1.2386,-1.2403,0.0,0.0,0.0,0.0,0.0,0.0,0.0,0.0,0.0,0.0,0.0,0.0,0.0,0.0,0.0,0.0,0.0,0.0,0.0,0.0,0.0,0.0,0.0,0.0,0.0,0.0,0.0,0.0,0.0,0.0,0.0,0.0,0.0,1.9418,1.8306,1.7626,1.7488,1.7555,1.7582,0.0,1.7582,1.7582,1.7582,1.7582,1.7716,1.7822,1.6555,1.6308,1.667,1.544,1.3788,1.2267,1.2141,1.1129,0.9632,0.9667,0.7622,0.4671,0.2712,-0.1478,-0.639,-0.8985,-0.9652,-0.9585,-0.9429,-0.9381,-0.9415,-0.9564,-1.0776,-1.2443,-1.4183,-1.5784,-1.7418,-1.8853,-1.9225,-1.9265,-1.9265,-1.8068,-1.7253,-1.8635,-1.7806,-1.6844,-1.6492,-1.6727,-1.6065,-1.3202,-1.2699,-1.2076,-1.0508,-1.039,-1.0191,-0.9861,-1.0015,-0.8997,-0.6235,-0.6066,-0.6198,-0.6272,-0.6078,-0.5998,-0.591,-0.8403,-0.9848,-0.9849,-1.1027,-1.1736,-1.1736,-1.2892,-1.4311,-1.5891,-1.4667,-1.4785,0.0,0.0,0.0,0.0,0.0,0.0,0.0,0.0,0.0,0.0,0.0,0.0,0.0,0.0,0.0,0.0,0.0,0.0,0.0,0.0,0.0,0.0,0.0,0.0,0.0,0.0,0.0,0.0,0.0,0.0,0.0,1.8425,1.7967,1.7825,1.7401,1.6832,1.611,1.6361,1.6168,1.553,1.553,1.553,1.553,1.6287,1.6587,1.6712,1.5053,1.4592,1.4735,1.3399,1.2406,1.1566,1.1138,1.0397,0.9526,0.9727,0.8664,0.6544,0.1727,-0.2093,-0.5406,-0.8696,-0.9754,-0.9693,-0.9612,-0.9591,-0.9605,-0.9686,-1.089,-1.2328,-1.326,-1.5192,-1.7208,-1.804,-1.8881,-1.9372,-1.9372,-1.8765,-1.8402,-1.9243,-1.8868,-1.7836,-1.6161,-1.468,-1.3134,-1.1619,-1.1401,-1.1033,-1.0168,-1.0129,-0.9398,-0.7704,-0.8963,-0.9459,-0.7837,-0.7666,-0.6994,-0.5436,-0.5139,-0.4956,-0.5134,-0.6629,-0.8676,-1.1316,-1.1881,-1.2577,-1.3407,-1.4242,-1.5429,-1.6962,-1.6138,-1.6256,0.0,0.0,0.0,0.0,0.0,0.0,0.0,0.0,0.0,0.0,0.0,0.0,0.0,0.0,0.0,0.0,0.0,0.0,0.0,0.0,0.0,0.0,0.0,0.0,0.0,0.0,0.0,0.0,0.0,0.0,1.6464,1.6526,1.6334,1.5691,1.6386,1.5934,1.4299,1.4756,1.4449,1.3264,1.3264,1.3264,1.3372,1.419,1.4725,1.4984,1.3505,1.2871,1.2852,1.1526,1.0915,1.0819,0.9821,0.9123,0.8778,0.9457,0.9794,0.8682,0.0986,-0.3079,-0.541,-0.8769,-0.9741,-0.9822,-0.9822,-0.9822,-0.9822,-0.9822,-1.102,-1.2217,-1.2217,-1.4351,-1.6609,-1.6962,-1.804,-1.901,-1.9359,-1.9372,-1.9372,-1.9372,-1.9116,-1.79,-1.481,-1.1939,-1.0141,-1.0297,-1.0317,-1.0331,-1.025,-0.9626,-0.8361,-0.6193,-0.7162,-0.8823,-1.0531,-1.0699,-0.9448,-0.6423,-0.6027,-0.5712,-0.5346,-0.5917,-0.8574,-1.3518,-1.2964,-1.3407,-1.4955,-1.5311,-1.6149,-1.7443,-1.7443,-1.7325,0.0,0.0,0.0,0.0,0.0,0.0,0.0,0.0,0.0,0.0,0.0,0.0,0.0,0.0,0.0,0.0,0.0,0.0,0.0,0.0,0.0,0.0,0.0,0.0,0.0,0.0,0.0,0.0,0.0,0.0,1.6647,1.6446,1.5901,1.4944,1.485,1.4379,1.3184,1.3454,1.348,1.3264,1.3264,1.3264,1.3254,1.1996,1.2228,1.346,1.1599,1.1018,1.1337,1.0003,0.9328,0.9245,0.9347,0.7674,0.5542,0.8696,0.9829,0.8049,-0.4192,-0.6917,-0.541,-0.8744,-0.9842,-0.9822,-0.9822,-0.9822,-0.9822,-0.9822,-1.102,-1.2217,-1.2217,-1.3526,-1.5311,-1.6609,-1.7208,-1.7689,-1.9127,-1.9372,-1.9372,-1.9372,-1.7304,-1.4912,-1.3075,-1.1385,-1.0297,-1.0439,-1.0466,-1.0521,-1.0677,-0.7957,-0.7049,-0.9582,-0.475,-0.3811,-1.0162,-1.0705,-1.0365,-0.9676,-0.9664,-0.8226,-0.5059,-0.9443,-1.311,-1.572,-1.4769,-1.5074,-1.6727,-1.8052,-1.8881,-1.9127,-1.9127,-1.8286,0.0,0.0,0.0,0.0,0.0,0.0,0.0,0.0,0.0,0.0,0.0,0.0,0.0,0.0,0.0,0.0,0.0,0.0,0.0,0.0,0.0,0.0,0.0,0.0,0.0,0.0,0.0,0.0,0.0,1.5914,1.5218,1.4996,1.44,1.3226,1.3257,1.273,1.1594,1.1806,1.154,1.0781,1.0783,1.0733,1.0725,0.982,1.0363,1.1889,1.0144,0.9451,0.9689,0.9127,0.7937,0.6619,0.8425,0.82,0.673,0.492,0.1945,-0.197,-0.7803,-0.8903,-0.7872,-0.9361,-0.9842,-0.9822,-0.9822,-0.9822,-0.9822,-0.9822,-1.0301,-1.0899,-1.0899,-1.2097,-1.3646,-1.5311,-1.6374,-1.7443,-1.901,-1.9372,-1.9466,-1.9786,-1.7865,-1.6132,-1.5919,-1.3571,-1.1849,-1.2011,-1.1264,-1.0656,-1.0744,-0.822,-0.6749,-0.7675,-0.4864,-0.5137,-1.0251,-1.0658,-1.0618,-1.0531,-1.0399,-0.9664,-0.821,-1.1411,-1.3927,-1.5533,-1.5829,-1.6738,-1.8402,-1.901,-1.9372,-1.9372,-1.9372,-1.8532,0.0,0.0,0.0,0.0,0.0,0.0,0.0,0.0,0.0,0.0,0.0,0.0,0.0,0.0,0.0,0.0,0.0,0.0,0.0,0.0,0.0,0.0,0.0,0.0,0.0,0.0,0.0,0.0,0.0,1.4758,1.3488,1.3392,1.2813,1.1463,1.1667,1.1245,0.9864,1.0184,0.9808,0.8818,0.8743,0.8689,0.8642,0.8384,0.9006,1.016,0.8996,0.8554,0.8635,0.8649,0.7512,0.5721,0.6374,0.6614,0.5907,-0.0238,-0.5593,-0.9814,-0.9801,-0.9767,-0.9856,-0.9849,-0.9836,-0.9822,-0.9822,-0.9822,-0.9822,-0.9822,-0.9822,-0.9829,-0.9869,-1.0723,-1.218,-1.427,-1.5677,-1.6926,-1.9023,-1.9426,-1.9482,-1.9533,-1.8446,-1.7602,-1.7794,-1.5603,-1.3673,-1.3299,-1.215,-1.1247,-1.0751,-0.9146,-0.7665,-0.6849,-0.6736,-0.7818,-1.0485,-1.0751,-1.0731,-1.0663,-1.0545,-1.0524,-1.0609,-1.2706,-1.4163,-1.4928,-1.6834,-1.8307,-1.9372,-1.9372,-1.9372,-1.9372,-1.9372,-1.8532,0.0,0.0,0.0,0.0,0.0,0.0,0.0,0.0,0.0,0.0,0.0,0.0,0.0,0.0,0.0,0.0,0.0,0.0,0.0,0.0,0.0,0.0,0.0,0.0,0.0,0.0,0.0,0.0,0.0,1.3392,1.2047,1.2047,1.1463,1.0092,1.0271,0.9673,0.8385,0.8673,0.8749,0.8506,0.8648,0.8635,0.8486,0.8336,0.8385,0.8392,0.8296,0.8465,0.8635,0.8791,0.8783,0.8109,0.258,0.0458,-0.0353,-0.6857,-0.9566,-0.9808,-0.9754,-0.9856,-0.9849,-0.9829,-0.9822,-0.9822,-0.9822,-0.9822,-0.9822,-0.9822,-0.9822,-0.9856,-0.9998,-1.0039,-1.0929,-1.4423,-1.5054,-1.5686,-1.87,-1.9586,-1.9298,-1.7853,-1.7883,-1.7588,-1.6097,-1.5762,-1.5255,-1.3578,-1.3193,-1.2553,-1.0884,-1.0604,-1.0515,-1.0411,-1.038,-1.0535,-1.0638,-1.0751,-1.0683,-1.0514,-1.0507,-1.0446,-1.031,-1.3403,-1.5032,-1.4821,-1.8204,-1.9801,-1.9372,-1.9372,-1.9372,-1.9372,-1.9372,-1.8532,0.6633,0.0,0.0,0.0,0.0,0.0,0.0,0.0,0.0,0.0,0.0,0.0,0.0,0.0,0.0,0.0,0.0,0.0,0.0,0.0,0.0,0.0,0.0,0.0,0.0,0.0,0.0,0.0,0.0,0.0,1.0779,1.0681,1.0092,0.8726,0.8777,0.8664,0.8269,0.8465,0.8533,0.8479,0.8445,0.8397,0.8343,0.8208,0.814,0.8126,0.8066,0.7135,0.5803,0.763,0.6325,0.2985,0.0781,-0.0,-0.0696,-0.698,-0.9523,-0.9768,-0.9613,-0.9647,-0.9829,-0.9822,-0.9822,-0.9822,-0.9822,-0.9822,-0.9842,-0.9937,-0.9964,-1.0005,-1.0161,-1.0195,-1.0832,-1.3126,-1.5185,-1.6586,-1.663,-1.8261,-1.9787,-1.9537,-1.9645,-1.9587,-1.9234,-1.8314,-1.7345,-1.6689,-1.5654,-1.4362,-1.2553,-1.3392,-1.3153,-1.0884,-1.1718,-1.1984,-1.0738,-1.0731,-1.0704,-1.0643,-1.0636,-1.0616,-1.0568,-1.3527,-1.5092,-1.4888,-1.8264,-1.9853,-1.9639,-1.9639,-1.9639,-1.9639,-1.9452,-1.8621,0.6499,0.0,0.0,0.0,0.0,0.0,0.0,0.0,0.0,0.0,0.0,0.0,0.0,0.0,0.0,0.0,0.0,0.0,0.0,0.0,0.0,0.0,0.0,0.0,0.0,0.0,0.0,0.0,0.0,0.0,0.9323,0.9225,0.8841,0.797,0.7932,0.8106,0.8208,0.8247,0.8294,0.835,0.8309,0.8262,0.8208,0.8019,0.7559,0.6731,0.7591,0.6433,0.403,0.4942,0.3216,-0.0,-0.0,-0.0,-0.0575,-0.5635,-0.8323,-0.9486,-0.9506,-0.956,-0.9754,-0.9802,-0.9822,-0.9822,-0.9822,-0.9822,-0.9849,-1.0005,-1.0046,-1.0093,-1.0297,-1.077,-1.1554,-1.2496,-1.4866,-1.6615,-1.5367,-1.7368,-1.9338,-1.9709,-1.9863,-2.0242,-2.0943,-2.0195,-1.9152,-1.864,-1.7474,-1.6172,-1.4362,-1.4623,-1.4101,-1.1762,-1.2157,-1.2025,-1.085,-1.0765,-1.0799,-1.0799,-1.0799,-1.1059,-1.1585,-1.3952,-1.5327,-1.5876,-1.8555,-1.9947,-1.9947,-1.9947,-1.9947,-1.9947,-1.9746,-1.8954,0.0,0.0,0.0,0.0,0.0,0.0,0.0,0.0,0.0,0.0,0.0,0.0,0.0,0.0,0.0,0.0,0.0,0.0,0.0,0.0,0.0,0.0,0.0,0.0,0.0,0.0,0.0,0.0,0.0,0.9323,0.7911,0.7807,0.7717,0.755,0.7799,0.7885,0.7885,0.7922,0.7922,0.7892,0.8241,0.8235,0.7885,0.7992,0.6553,0.4117,0.6882,0.6535,0.392,0.114,-0.0,-0.0,-0.0,-0.0,-0.0344,-0.3431,-0.6369,-0.8974,-0.9446,-0.9605,-0.9632,-0.9774,-0.9822,-0.9822,-0.9822,-0.9822,-0.9849,-1.0005,-1.0053,-1.012,-1.0419,-1.1896,-1.3152,-1.2847,-1.4198,-1.5473,-1.5346,-1.674,-1.8011,-1.8136,-1.8336,-1.9024,-2.0843,-2.1109,-2.0589,-1.8768,-1.864,-1.7988,-1.6172,-1.4493,-1.3456,-1.3325,-1.1762,-1.0717,-1.0717,-1.086,-1.0941,-1.0941,-1.0941,-1.1738,-1.3461,-1.4789,-1.6108,-1.7614,-1.9351,-2.0214,-2.0214,-2.0227,-2.0241,-2.0241,-2.0241,-1.9517,0.6394,0.0,0.0,0.0,0.0,0.0,0.0,0.0,0.0,0.0,0.0,0.0,0.0,0.0,0.0,0.0,0.0,0.0,0.0,0.0,0.0,0.0,0.0,0.0,0.0,0.0,0.0,0.0,0.8855,0.8189,0.7767,0.7685,0.6864,0.5085,0.5116,0.5062,0.5127,0.5153,0.5153,0.5127,0.5157,0.5153,0.5127,0.7083,0.6564,0.4117,0.6793,0.7541,0.6529,0.1857,-0.0,-0.0,-0.0,-0.0,-0.0338,-0.3377,-0.6379,-0.8948,-0.9285,-0.9517,-0.9632,-0.9774,-0.9822,-0.9822,-0.9822,-0.9822,-0.9849,-1.0005,-1.0127,-1.0283,-1.0582,-1.108,-1.1358,-1.1315,-1.2604,-1.35,-1.2342,-1.3379,-1.5306,-1.7885,-1.8465,-1.9024,-2.0843,-2.1109,-2.0982,-2.0449,-2.0322,-1.9801,-1.7988,-1.7345,-1.6043,-1.3587,-1.2931,-1.2025,-1.085,-1.0758,-1.0785,-1.0785,-1.0785,-1.157,-1.3269,-1.4444,-1.5939,-1.7614,-1.9159,-1.992,-1.992,-2.0134,-2.0347,-2.0548,-2.0548,-1.9709,0.7077,0.0,0.0,0.0,0.0,0.0,0.0,0.4932,0.0,0.0,0.0,0.0,0.0,0.0,0.0,0.0,0.0,0.0,0.0,0.0,0.0,0.0,0.0,0.0,0.0,0.0,0.0,0.8699,0.8074,0.7208,0.6199,0.6982,0.6744,0.5365,0.34,0.2361,0.2286,0.2304,0.2314,0.2314,0.2314,0.2314,0.2414,0.3937,0.3833,0.2414,0.3944,0.5886,0.7535,0.2165,-0.0,-0.0,-0.0,-0.1538,-0.3813,-0.425,-0.642,-0.8904,-0.9245,-0.9388,-0.9537,-0.9686,-0.9774,-0.9822,-0.9822,-0.9822,-0.9869,-1.0086,-1.0297,-1.0507,-1.0677,-1.0717,-1.0717,-1.0717,-1.1505,-1.1894,-1.0982,-1.2025,-1.4101,-1.6818,-1.7474,-1.8244,-2.0716,-2.1109,-2.1109,-2.1109,-2.1109,-2.0716,-1.9674,-1.8896,-1.7731,-1.5654,-1.4874,-1.3709,-1.1894,-1.1829,-1.1607,-1.0812,-1.1473,-1.2656,-1.4358,-1.563,-1.71,-1.8606,-1.9455,-1.9867,-1.9987,-2.0281,-2.0191,-1.9827,-1.9827,-1.8794,0.0,0.0,0.0,0.0,0.0,0.0,0.3838,0.3823,0.4014,0.0,0.0,0.0,0.0,0.0,0.0,0.0,0.0,0.0,0.0,0.0,0.0,0.0,0.0,0.0,0.0,0.7312,0.7387,0.7629,0.7657,0.6467,0.3667,0.5349,0.6311,0.6322,0.2202,-0.0,-0.0,-0.0,-0.0,-0.0,-0.0,-0.0,-0.0,-0.0,-0.0,-0.0,-0.0,0.273,0.6721,0.1337,-0.0943,-0.096,-0.0962,-0.4038,-0.8109,-0.5824,-0.6604,-0.8883,-0.913,-0.9266,-0.9408,-0.9578,-0.972,-0.9822,-0.9822,-0.9822,-0.9883,-1.0195,-1.0466,-1.0677,-1.0711,-1.0717,-1.0717,-1.0982,-1.0982,-1.0982,-1.124,-1.2545,-1.4101,-1.5913,-1.6172,-1.7205,-2.0589,-2.1109,-2.1109,-2.1109,-2.1109,-2.1109,-2.1109,-1.9546,-1.8512,-1.8512,-1.6947,-1.5265,-1.3709,-1.3742,-1.3043,-1.1589,-1.2909,-1.4503,-1.6349,-1.7479,-1.8778,-2.0281,-2.0,-1.9987,-2.0281,-2.0451,-1.9701,-1.8244,-1.8244,-1.7345,0.0,0.0,0.0,0.0,0.0,0.0,0.3594,0.3429,0.3409,0.0,0.0,0.0,0.0,0.0,0.0,0.0,0.0,0.0,0.0,0.0,0.0,0.0,0.0,0.0,0.0,0.686,0.6954,0.6987,0.7128,0.532,0.0969,0.1164,0.1365,0.1387,0.0466,-0.0,-0.0,-0.0,-0.0,-0.0,-0.0,-0.0,-0.0,-0.0,-0.0,-0.0,-0.0,0.0606,0.1112,-0.4261,-0.6757,-0.7186,-0.718,-0.6404,-0.5596,-0.7393,-0.8406,-0.8897,-0.9252,-0.9354,-0.9422,-0.9693,-0.9795,-0.9822,-0.9822,-0.9822,-0.9883,-1.0195,-1.0324,-1.0419,-1.0656,-1.0717,-1.1108,-1.2413,-1.2808,-1.3193,-1.4614,-1.5135,-1.5913,-1.7602,-1.7988,-1.864,-2.0716,-2.1109,-2.1109,-2.1109,-2.1109,-2.1109,-2.1109,-1.9546,-1.8512,-1.8512,-1.6947,-1.5784,-1.5394,-1.5434,-1.5332,-1.4941,-1.5202,-1.6244,-1.7939,-1.8036,-1.8863,-2.0588,-2.0307,-2.0294,-2.0588,-1.9462,-1.807,-1.6431,-1.6431,-1.5524,0.0,0.0,0.0,0.5275,0.0,0.0,0.0,0.3025,0.2933,0.0,0.0,0.0,0.0,0.0,0.0,0.0,0.0,0.0,0.0,0.0,0.0,0.0,0.0,0.0,0.0,0.6607,0.6681,0.6936,0.4846,0.2512,0.0086,-0.0,-0.0,-0.0,-0.0,-0.0,-0.0,-0.0,-0.0,-0.0,-0.0,-0.0,-0.0,-0.0,-0.0,-0.0,-0.0,-0.1515,-0.425,-0.7244,-0.8543,-0.8779,-0.8869,-0.8029,-0.6826,-0.8406,-0.8856,-0.8988,-0.9191,-0.932,-0.9415,-0.9646,-0.9761,-0.9822,-0.9822,-0.993,-1.008,-1.0236,-1.0385,-1.0795,-1.1717,-1.2025,-1.2413,-1.4232,-1.4623,-1.4884,-1.5654,-1.656,-1.7474,-1.8384,-1.9152,-2.0068,-2.0982,-2.1109,-2.1109,-2.1109,-2.1109,-2.1109,-2.1109,-2.0335,-1.9801,-1.9801,-1.9024,-1.8116,-1.7216,-1.7216,-1.6818,-1.5913,-1.6689,-1.7602,-1.8512,-1.9157,-1.9927,-2.0681,-2.0535,-2.0535,-2.0681,-1.9157,-1.7602,-1.5913,-1.5913,-1.4493,0.0,0.0,0.0,0.0,0.0,0.3789,0.0,0.0,0.0,0.2588,0.0,0.0,0.0,0.0,0.0,0.0,0.0,0.0,0.0,0.0,0.0,0.0,0.0,0.0,0.0,0.6337,0.6105,0.5741,0.2177,-0.0,-0.0,-0.0,-0.0,-0.0,-0.0,-0.0,-0.0,-0.0,-0.0,-0.0,-0.0,-0.0,-0.0,-0.0,-0.0606,-0.1515,-0.1515,-0.3736,-0.7315,-0.8307,-0.8737,-0.8632,-0.8821,-0.8886,-0.8856,-0.8856,-0.8974,-0.9001,-0.9144,-0.93,-0.9449,-0.9598,-0.9747,-0.9863,-0.9863,-1.0059,-1.0283,-1.0317,-1.0746,-1.1461,-1.2923,-1.3578,-1.4232,-1.6043,-1.6431,-1.6431,-1.6818,-1.7988,-1.9024,-1.9024,-2.0195,-2.1109,-2.1109,-2.1109,-2.1109,-2.1109,-2.1109,-2.1109,-2.1109,-2.1109,-2.1109,-2.1109,-2.1109,-2.0589,-1.9152,-1.9024,-1.8384,-1.6947,-1.8244,-1.9024,-1.9024,-2.0322,-2.1002,-2.0762,-2.0762,-2.0762,-2.0762,-1.9574,-1.8116,-1.6431,-1.5654,-1.384,0.0,0.0,0.0,0.0,0.4693,0.0,0.0,0.0,0.2188,0.1836,0.0,0.0,0.0,0.0,0.0,0.0,0.0,0.0,0.0,0.0,0.0,0.0,0.0,0.0,0.0,0.0,0.4763,0.1109,0.0329,-0.0,-0.0,-0.0,-0.0,-0.0,-0.0,-0.0,-0.0,-0.0,-0.0,-0.0,-0.0,-0.0,-0.0,-0.0,-0.2626,-0.7101,-0.7101,-0.6062,-0.463,-0.7316,-0.8501,-0.8652,-0.8818,-0.8933,-0.894,-0.894,-0.9022,-0.915,-0.93,-0.9456,-0.9605,-0.9747,-0.9897,-1.0025,-1.0025,-1.0141,-1.0304,-1.0432,-1.1637,-1.2855,-1.3282,-1.4493,-1.6043,-1.7731,-1.8244,-1.864,-2.0195,-2.0716,-2.0843,-2.0843,-2.0982,-2.1109,-2.1109,-2.1109,-2.1109,-2.1109,-2.1109,-2.1109,-2.1109,-2.1109,-2.1109,-2.1109,-2.1109,-2.0982,-2.0843,-2.0843,-2.0716,-2.0462,-2.0716,-2.0843,-2.0843,-2.0982,-2.1096,-2.1069,-2.1056,-2.1056,-2.1056,-2.0829,-1.9941,-1.8116,-1.5005,-1.3325,0.0,0.0,0.0,0.0,0.0,0.0,0.2846,0.0,0.2014,0.0,0.0,0.0,0.0,0.0,0.0,0.0,0.0,0.0,0.0,0.0,0.0,0.0,0.0,0.0,0.0,0.0,0.0,0.0,0.0,-0.0,-0.0,-0.0,-0.0,-0.0,-0.0,-0.0,-0.0,-0.0,-0.0,-0.0,-0.0,-0.0,-0.0101,-0.3232,-0.5871,-0.8026,-0.8012,-0.7378,-0.6458,-0.7904,-0.8452,-0.8526,-0.8832,-0.8947,-0.894,-0.894,-0.9028,-0.9171,-0.9327,-0.9483,-0.9646,-0.9876,-0.9998,-1.0066,-1.0154,-1.029,-1.067,-1.1751,-1.2605,-1.3734,-1.5764,-1.6818,-1.7859,-1.9546,-2.0068,-2.0195,-2.0982,-2.1109,-2.1109,-2.1109,-2.1109,-2.1109,-2.1109,-2.1109,-2.1109,-2.1109,-2.1109,-2.1109,-2.1109,-2.1109,-2.1109,-2.1109,-2.1109,-2.1109,-2.1109,-2.1109,-2.1109,-2.1109,-2.1109,-2.1109,-2.1109,-2.1109,-2.1109,-2.1109,-2.1109,-2.1109,-2.1109,-2.1109,-2.0716,-1.9941,-1.7474,-1.5713,0.8925,0.0,0.0,0.0,0.0,0.0,0.0,0.0,0.0,0.0,0.0,0.0,0.0,0.0,0.0,0.0,0.0,0.0,0.0,0.0,0.0,0.0,0.0,0.0,0.0,0.0,0.0,0.0,-0.035,-0.0439,-0.0862,-0.0827,-0.0892,-0.0984,-0.1,-0.1023,-0.0964,-0.0993,-0.1021,-0.1142,-0.1062,-0.1084,-0.121,-0.5148,-0.729,-0.8012,-0.7992,-0.7979,-0.7985,-0.8384,-0.8499,-0.8513,-0.8818,-0.894,-0.894,-0.894,-0.9055,-0.9232,-0.934,-0.951,-0.97,-0.9917,-1.0046,-1.0259,-1.0868,-1.117,-1.1583,-1.3371,-1.4244,-1.5265,-1.7859,-1.8896,-1.9546,-2.0843,-2.1109,-2.1109,-2.1109,-2.1109,-2.1109,-2.1109,-2.1109,-2.1109,-2.1109,-2.1109,-2.1109,-2.1109,-2.1109,-2.1109,-2.1109,-2.1109,-2.1109,-2.1109,-2.1109,-2.1109,-2.1109,-2.1109,-2.1109,-2.1109,-2.1109,-2.1109,-2.1109,-2.1109,-2.1109,-2.1109,-2.1109,-2.1109,-2.1109,-2.1109,-2.1109,-2.1109,-1.9291,-1.7723,0.0,0.0,0.0,0.3789,0.0,0.0,0.0,0.0,0.2217,0.0,0.0,0.0,0.0,0.0,0.0,-0.0,0.0,0.0,0.0,0.0,0.0,0.0,0.0,0.0,0.0,0.0,0.0,-0.1701,-0.1186,-0.1528,-0.2953,-0.2998,-0.3169,-0.3437,-0.3521,-0.3507,-0.3476,-0.3482,-0.365,-0.3894,-0.3894,-0.3878,-0.3914,-0.4017,-0.5532,-0.7972,-0.7972,-0.7959,-0.8065,-0.8364,-0.8479,-0.8513,-0.8818,-0.894,-0.894,-0.894,-0.9123,-0.9374,-0.9381,-0.9571,-0.9815,-0.9822,-1.0032,-1.0651,-1.228,-1.3029,-1.3569,-1.5255,-1.7076,-1.8372,-1.8512,-1.9801,-2.0982,-2.1109,-2.1109,-2.1109,-2.1109,-2.1109,-2.1109,-2.1109,-2.1109,-2.1109,-2.1109,-2.1109,-2.1109,-2.1109,-2.1109,-2.1109,-2.1109,-2.1109,-2.1109,-2.1109,-2.1109,-2.1109,-2.1109,-2.1109,-2.1109,-2.1109,-2.1109,-2.1109,-2.1109,-2.1109,-2.1109,-2.1109,-2.1109,-2.1109,-2.1109,-2.1109,-2.1109,-2.1109,-1.9291,-1.8371,0.0,0.0,0.6311,0.4732,0.0,0.0,0.0,0.0,0.0,0.0,0.0,0.0,0.0,0.0,0.0797,0.0098,-0.0,0.0,0.0,0.0,0.0,0.0,0.0,0.0,0.0,0.0,0.0,-0.1593,-0.1524,-0.2075,0.0,-0.4688,-0.5315,-0.5682,-0.5847,-0.5893,-0.5889,-0.6143,-0.6317,-0.6389,-0.6571,-0.66,-0.6653,-0.6648,-0.7153,-0.7972,-0.7959,-0.8045,-0.8065,-0.8357,-0.8479,-0.8618,-0.9892,-1.0351,-1.0257,-0.9377,-0.988,-1.1017,-1.1248,-1.1988,-1.2835,-1.1882,-1.2365,-1.3491,-1.4383,-1.469,-1.5218,-1.7033,-1.7988,-1.8768,-1.9941,-2.0716,-2.1109,-2.1109,-2.1109,-2.1109,-2.1109,-2.1109,-2.1109,-2.1109,-2.1109,-2.1109,-2.1109,-2.1109,-2.1109,-2.1109,-2.1109,-2.1109,-2.1109,-2.1109,-2.1109,-2.1109,-2.1109,-2.1109,-2.1109,-2.1109,-2.1109,-2.1109,-2.1109,-2.1109,-2.1109,-1.9941,-1.9941,-2.1109,-1.9941,-1.9941,-2.1109,-2.1109,-2.1109,-2.1109,-2.0462,-2.0055,0.571,0.5726,0.0,0.3402,0.255,0.0,0.3161,0.0,0.0,0.0,0.0,0.0,0.0,0.0,0.0,0.069,0.0296,-0.0,0.0,-0.0476,0.0,0.0,0.0,0.0,0.0,0.0,-0.1211,-0.1577,-0.1702,-0.2367,0.0,0.0,-0.5872,-0.6682,-0.6854,-0.7007,-0.7128,-0.7375,-0.7574,-0.7631,-0.7787,-0.7936,-0.7972,-0.7965,-0.7959,-0.7959,-0.8045,-0.8072,-0.814,-0.8384,-0.8822,-0.9421,-1.0666,-1.1472,-1.1982,-1.1114,-1.1654,-1.273,-1.294,-1.3784,-1.4421,-1.3453,-1.3946,-1.4973,-1.6074,-1.6412,-1.6783,-1.8824,-1.9419,-1.9674,-2.0843,-2.1109,-2.1109,-2.1109,-2.1109,-2.1109,-2.1109,-2.1109,-2.1235,-2.1853,-2.1978,-2.1978,-2.1978,-2.1978,-2.1853,-2.1235,-2.1109,-2.1109,-2.1109,-2.1109,-2.1109,-2.1109,-2.1109,-2.1109,-2.1109,-2.1109,-2.1109,-2.1109,-2.1109,-2.1109,-2.1109,-2.0068,-1.9979,-2.1269,-2.0119,-1.9992,-2.1269,-2.1162,-2.1109,-2.1109,-2.1109,-2.1002]},{"header":{"parameterUnit":"m.s-1","parameterCategory":1,"la1":30.6,"la2":29.2853,"lo1":-89.7004,"lo2":-87.6739,"dy":0.0162,"dx":0.0183,"nx":112,"ny":82,"refTime":"2023-08-15T06:00:00:Z","depth":0,"parameterNumber":3,"parameterNumberName":"V-component_of_WINDS"},"data":[0.0,0.0,0.0,0.0,0.0,0.0,0.0,0.0,0.0,0.0,0.0,0.0,0.0,0.0,0.0,0.0,0.0,0.0,0.0,0.0,0.0,0.0,0.0,0.0,0.0,0.0,0.0,0.0,0.0,0.0,0.0,0.0,0.0,0.0,0.0,0.0,0.0,0.0,0.0,0.0,0.0,0.0,0.0,0.0,0.0,0.0,0.0,0.0,0.0,0.0,0.0,0.0,0.0,0.0,0.0,0.0,0.0,0.0,0.0,0.0,0.0,0.0,0.0,0.0,0.0,0.0,0.0,0.0,0.0,0.0,0.0,0.0,0.0,0.0,0.0,0.0,0.0,0.0,0.0,0.0,0.0,0.0,0.0,0.0,0.0,0.0,0.0,0.0,0.0,0.0,0.0,0.3442,0.7503,1.0178,1.0295,1.0563,1.088,1.1057,0.0,0.0,0.0,0.0,0.0,0.0,0.0,0.0,0.0,0.0,0.0,0.0,0.0,0.0,0.0,0.0,0.0,0.0,0.0,0.0,0.0,0.0,0.0,0.0,0.0,0.0,0.0,0.0,0.0,0.0,0.0,0.0,0.0,0.0,0.0,0.0,0.0,0.0,0.0,0.0,0.0,0.0,0.0,0.0,0.0,0.0,0.0,0.0,0.0,0.0,0.0,0.0,0.0,0.0,0.0,0.0,0.0,0.0,0.0,0.0,0.0,0.0,0.0,0.0,0.0,0.0,0.0,0.0,0.0,0.0,0.0,0.0,0.0,0.0,0.0,0.0,0.0,0.0,0.0,0.0,0.0,0.0,0.0,0.0,0.0,0.0,0.0,0.0,0.0,0.0,0.0,0.0,0.0,0.0,0.0,0.0,0.0,0.0,0.0,0.0,0.0,0.0,0.0,0.0,0.0596,0.5831,0.8416,0.9514,0.8856,0.9734,1.1032,1.2689,0.0,0.0,0.0,0.0,0.0,0.0,0.0,0.0,0.0,0.0,0.0,0.0,0.0,0.0,0.0,0.0,0.0,0.0,0.0,0.0,0.0,0.0,0.0,0.0,0.0,0.0,0.0,0.0,0.0,0.0,0.0,0.0,0.0,0.0,0.0,0.0,0.0,0.0,0.0,0.0,0.0,0.0,0.0,0.0,0.0,0.0,0.0,0.0,0.0,0.0,0.0,0.0,0.0,0.0,0.0,0.0,0.0,0.0,0.0,0.0,0.0,0.0,0.0,0.0,0.0,0.0,0.0,0.0,0.0,0.0,0.0,0.0,0.0,0.0,0.0,0.0,0.0,0.0,0.0,0.0,0.0,0.0,0.0,0.0,0.0,0.0,0.0,0.0,0.0,0.0,0.0,0.0,0.0,0.0,0.0,0.0,0.0,0.0,0.0,0.0,0.0,0.0,0.0,-0.1166,0.2576,0.7303,0.8738,0.9288,0.9041,0.9355,1.1148,1.4894,1.4111,0.0,0.0,0.0,0.0,0.0,0.0,0.0,0.0,0.0,0.0,0.0,0.0,0.0,0.0,0.0,0.0,0.0,0.0,0.0,0.0,0.0,0.0,0.0,0.0,0.0,0.0,0.0,0.0,0.0,0.0,0.0,0.0,0.0,0.0,0.0,0.0,0.0,0.0,0.0,0.0,0.0,0.0,0.0,0.0,0.0,0.0,0.0,0.0,0.0,0.0,0.0,0.0,0.0,0.0,0.0,0.0,0.0,0.0,0.0,0.0,0.0,0.0,0.0,0.0,0.0,0.0,0.0,0.0,0.0,0.0,0.0,0.0,0.0,0.0,0.0,0.0,0.0,0.0,0.0,0.0,0.0,0.0,0.0,0.0,0.0,0.0,0.0,0.0,0.0,0.0,0.0,0.0,0.0,0.0,0.0,0.0,0.0,0.0,0.0,0.0,0.0,0.0,0.1302,0.45,0.7602,0.8417,0.8805,0.89,0.9708,1.2042,1.6439,1.6775,0.0,0.0,0.0,0.0,0.0,0.0,0.0,0.0,0.0,0.0,0.0,0.0,0.0,0.0,0.0,0.0,0.0,0.0,0.0,0.0,0.0,0.0,0.0,0.0,0.0,0.0,0.0,0.0,0.0,0.0,0.0,0.0,0.0,0.0,0.0,0.0,0.0,0.0,0.0,0.0,0.0,0.0,0.0,0.0,0.0,0.0,0.0,0.0,0.0,0.0,0.0,0.0,0.0,0.0,0.0,0.0,0.0,0.0,0.0,0.0,0.0,0.0,0.0,0.0,0.0,0.0,0.0,0.0,0.0,0.0,0.0,0.0,0.0,0.0,0.0,0.0,0.0,0.0,0.0,0.0,0.0,0.0,0.0,0.0,0.0,0.0,0.0,0.0,0.0,0.0,0.0,0.0,0.0,0.0,0.0,0.0,0.0,0.0,0.0,0.0,0.0,0.0,0.1772,0.482,0.6212,0.7164,0.7525,0.7131,1.116,1.4513,1.6319,1.9918,0.0,0.0,0.0,0.0,0.0,0.0,0.0,0.0,0.0,0.0,0.0,0.0,0.0,0.0,0.0,0.0,0.0,0.0,0.0,0.0,0.0,0.0,0.0,0.0,0.0,0.0,0.0,0.0,0.0,0.0,0.0,0.0,0.0,0.0,0.0,0.0,0.0,0.0,0.0,0.0,0.0,0.0,0.0,0.0,0.0,0.0,0.0,0.0,0.0,0.0,0.0,0.0,0.0,0.0,0.0,0.0,0.0,0.0,0.0,0.0,0.0,0.0,0.0,0.0,0.0,0.0,0.0,0.0,0.0,0.0,0.0,0.0,0.0,0.0,0.0,0.0,0.0,0.0,0.0,0.0,0.0,0.0,0.0,0.0,0.0,0.0,0.0,0.0,0.0,0.0,0.0,0.0,0.0,0.0,0.0,0.0,0.0,0.0,0.0,0.0,0.0,0.0,0.1248,0.4013,0.0,0.7364,0.7812,0.7378,0.9766,1.3351,1.817,0.0,0.0,0.0,0.0,0.0,0.0,0.0,0.0,0.0,0.0,0.0,0.0,0.0,0.0,0.0,0.0,0.0,0.0,0.0,0.0,0.0,0.0,0.0,0.0,0.0,0.0,0.0,0.0,0.0,0.0,0.0,0.0,0.0,0.0,0.0,0.0,0.0,0.0,0.0,0.0,0.0,0.0,0.0,0.0,0.0,0.0,0.0,0.0,0.0,0.0,0.0,0.0,0.0,0.0,0.0,0.0,0.0,0.0,0.0,0.0,0.0,0.0,0.0,0.0,0.0,0.0,0.0,0.0,0.0,0.0,0.0,0.0,0.0,0.0,0.0,0.0,0.0,0.0,0.0,0.0,0.0,0.0,0.0,0.0,0.0,0.0,0.0,0.0,0.0,0.0,0.0,0.0,0.0,0.0,0.0,0.0,0.0,0.0,0.0,0.0,0.0,0.0,-0.1879,0.1148,0.3982,0.0,0.7243,0.7711,0.7627,0.9661,1.3402,1.9198,0.0,0.0,0.0,0.0,0.0,0.0,0.0,0.0,0.0,0.0,0.0,0.0,0.0,0.0,0.0,0.0,0.0,0.0,0.0,0.0,0.0,0.0,0.0,0.0,0.0,0.0,0.0,0.0,0.0,0.0,0.0,0.0,0.0,0.0,0.0,0.0,0.0,0.0,0.0,0.0,0.0,0.0,0.0,0.0,0.0,0.0,0.0,0.0,0.0,0.0,0.0,0.0,0.0,0.0,0.0,0.0,0.0,0.0,0.0,0.0,0.0,0.0,0.0,0.0,0.0,0.0,0.0,0.0,0.0,0.0,0.0,0.0,0.0,0.0,0.0,0.0,0.0,0.0,0.0,0.0,0.0,0.0,0.0,0.0,0.0,0.0,0.0,0.0,0.0,0.0,0.0,0.0,0.0,0.0,0.0,0.0,0.0,0.0,0.0,0.0,0.0,0.0,-0.2274,0.1775,0.5017,0.6085,0.6549,0.7021,0.7575,1.1454,1.5404,0.0,0.0,0.0,0.0,0.0,0.0,0.0,0.0,0.0,0.0,0.0,0.0,0.0,0.0,0.0,0.0,0.0,0.0,0.0,0.0,0.0,0.0,0.0,0.0,0.0,0.0,0.0,0.0,0.0,0.0,0.0,0.0,0.0,0.0,0.0,0.0,0.0,0.0,0.0,0.0,0.0,0.0,0.0,0.0,0.0,0.0,0.0,0.0,0.0,0.0,0.0,0.0,0.0,0.0,0.0,0.0,0.0,0.0,0.0,0.0,0.0,0.0,0.0,0.0,0.0,0.0,0.0,0.0,0.0,0.0,0.0,0.0,0.0,0.0,0.0,0.0,0.0,0.0,0.0,0.0,0.0,0.0,0.0,0.0,0.0,0.0,0.0,0.0,0.0,0.0,0.0,0.0,0.0,0.0,0.0,0.0,0.0,0.0,0.0,0.0,0.0,0.0,0.0,-0.26,0.1769,0.5229,0.6376,0.6939,0.7432,0.7974,1.0042,1.3896,1.9959,0.0,0.0,0.0,0.0,0.0,0.0,0.0,0.0,0.0,0.0,0.0,0.0,0.0,0.0,0.0,0.0,0.0,0.0,0.0,0.0,0.0,0.0,0.0,0.0,0.0,0.0,0.0,0.0,0.0,0.0,0.0,0.0,0.0,0.0,0.0,0.0,0.0,0.0,0.0,0.0,0.0,0.0,0.0,0.0,0.0,0.0,0.0,0.0,0.0,0.0,0.0,0.0,0.0,0.0,0.0,0.0,0.0,0.0,0.0,0.0,0.0,0.0,0.0,0.0,0.0,0.0,0.0,0.0,0.0,0.0,0.0,0.0,0.0,0.0,0.0,0.0,0.0,0.0,0.0,0.0,0.0,0.0,0.0,0.0,0.0,0.0,0.0,0.0,0.0,0.0,0.0,0.0,0.0,0.0,0.0,0.0,0.0,0.0,0.0,0.0,0.0,0.0,-0.341,0.1587,0.5479,0.6639,0.727,0.7826,0.8353,0.9502,1.2697,1.8656,0.0,0.0,0.0,0.0,0.0,0.0,0.0,0.0,0.0,0.0,0.0,0.0,0.0,0.0,0.0,0.0,0.0,0.0,0.0,0.0,0.0,0.0,0.0,0.0,0.0,0.0,0.0,0.0,0.0,0.0,0.0,0.0,0.0,0.0,0.0,0.0,0.0,0.0,0.0,0.0,0.0,0.0,0.0,0.0,0.0,0.0,0.0,0.0,0.0,0.0,0.0,0.0,0.0,0.0,0.0,0.0,0.0,0.0,0.0,0.0,0.0,0.0,0.0,0.0,0.0,0.0,0.0,0.0,0.0,0.0,0.0,0.0,0.0,0.0,0.0,0.0,0.0,0.0,0.0,0.0,0.0,0.0,0.0,0.0,0.0,0.0,0.0,0.0,0.0,0.0,0.0,0.0,0.0,0.0,0.0,0.0,0.0,0.0,0.0,0.0,0.0,0.0,-0.4468,0.1332,0.5825,0.6972,0.7572,0.8167,0.8839,0.9804,1.2119,1.6268,0.0,0.0,0.0,0.0,0.0,0.0,0.0,0.0,0.0,0.0,0.0,0.0,0.0,0.0,0.0,0.0,0.0,0.0,0.0,0.0,0.0,0.0,0.0,0.0,0.0,0.0,0.0,0.0,0.0,0.0,0.0,0.0,0.0,0.0,0.0,0.0,0.0,0.0,0.0,0.0,0.0,0.0,0.0,0.0,0.0,0.0,0.0,0.0,0.0,0.0,0.0,0.0,0.0,0.0,0.0,0.0,0.0,0.0,0.0,0.0,-0.4552,0.0,0.0,0.0,0.0,0.0,0.0,0.0,0.0,0.0,0.0,0.0,0.0,0.0,0.0,0.0,0.0,0.0,0.0,0.0,0.0,0.0,0.0,0.0,0.0,0.0,0.0,0.0,0.0,0.0,0.0,0.0,0.0,0.0,0.0,0.0,0.0,0.0,0.0,0.0,0.0,0.0,-0.5007,0.1474,0.6435,0.7572,0.7836,0.8618,1.0359,1.1105,1.3407,1.7973,1.8351,0.0,0.0,0.0,0.0,0.0,0.0,0.0,0.0,0.0,0.0,0.0,0.0,0.0,0.0,0.0,0.0,0.0,0.0,0.0,0.0,0.0,0.0,0.0,0.0,0.0,0.0,0.0,0.0,0.0,0.0,0.0,0.0,0.0,0.0,0.0,0.0,0.0,0.0,0.0,0.0,0.0,0.0,0.0,0.0,0.0,0.0,0.0,0.0,0.0,0.0,0.0,0.0,0.0,0.0,0.0,0.0,0.0,0.0,0.0,0.0,-0.4773,0.0,0.0,0.0,0.0,0.0,0.0,0.0,0.0,0.0,0.0,0.0,0.0,0.0,0.0,0.0,0.0,0.0,0.0,0.0,0.0,0.0,0.0,0.0,0.0,0.0,0.0,0.0,0.0,0.0,0.0,0.0,0.0,0.0,0.0,0.0,0.0,0.0,0.0,0.0,0.0,-0.216,0.3422,0.7428,0.8282,0.8936,0.9846,1.1217,1.1758,1.3305,1.6363,1.6641,0.0,0.0,0.0,0.0,0.0,0.0,0.0,0.0,0.0,0.0,0.0,0.0,0.0,0.0,0.0,0.0,0.0,0.0,0.0,0.0,0.0,0.0,0.0,0.0,0.0,0.0,0.0,0.0,0.0,0.0,0.0,0.0,0.0,0.0,0.0,0.0,0.0,0.0,0.0,0.0,0.0,0.0,0.0,0.0,0.0,0.0,0.0,0.0,0.0,0.0,0.0,0.0,0.0,0.0,-0.6129,-0.5917,-0.6201,-0.6282,-0.6153,-0.5536,-0.5472,-0.5888,0.0,0.0,0.0,0.0,0.0,0.0,0.0,0.0,0.0,0.0,0.0,0.0,0.0,0.0,0.0,0.0,0.0,0.0,0.0,0.0,0.0,0.0,0.0,0.0,0.0,-0.0894,0.2715,0.0,0.0,0.0,0.0,0.0,0.0,0.0,0.0,0.0,0.0,0.0,0.0,0.1299,0.5614,0.8479,0.9159,1.0148,1.1123,1.1864,1.2144,1.2741,1.3762,1.4534,1.5126,0.0,0.0,0.0,0.0,0.0,0.0,0.0,0.0,0.0,0.0,0.0,0.0,0.0,0.0,0.0,0.0,0.0,0.0,0.0,0.0,0.0,0.0,0.0,0.0,0.0,0.0,0.0,0.0,0.0,0.0,0.0,0.0,-0.8509,-0.8354,0.0,0.0,0.0,0.0,0.0,0.0,0.0,0.0,0.0,0.0,0.0,0.0,0.0,0.0,-0.888,-0.7782,-0.7228,-0.727,-0.7637,-0.763,-0.7297,-0.7409,-0.7409,-0.7369,-0.6789,0.0,-0.5631,-0.5915,0.0,0.0,0.0,0.0,0.0,0.0,0.0,0.0,0.0,0.0,0.0,0.0,0.0,0.0,0.0,0.0,0.0,0.0,0.0,0.0,0.0,0.0,-0.2947,-0.1591,-0.0464,0.0855,0.0,0.0101,-0.3322,-0.4537,0.0,0.0,0.0,0.0,0.0,0.0,0.0,0.0,0.1853,0.5984,0.9236,1.0436,1.0705,1.1369,1.2816,1.2413,1.2325,1.2755,1.2959,1.2719,1.1991,1.1591,0.0,0.0,0.0,0.0,0.0,0.0,0.0,0.0,0.0,0.0,0.0,0.0,0.0,0.0,0.0,0.0,0.0,0.0,0.0,0.0,0.0,0.0,0.0,0.0,0.0,0.0,0.0,0.0,0.0,-0.8931,-0.9417,-0.929,-0.928,-0.9114,0.0,0.0,0.0,0.0,0.0,0.0,0.0,0.0,0.0,-1.0913,-1.0626,-1.0572,-1.0899,-0.9733,-0.9154,-0.9143,-0.8585,-0.8221,-0.8092,-0.8092,-0.8092,-0.8085,-0.7858,-0.7414,-0.6844,-0.6486,-0.6826,-0.7491,0.0,0.0,0.0,0.0,0.0,-0.9129,-0.8553,-0.8015,0.0,0.0,0.0,0.0,0.0,0.0,0.0,0.0,0.0,0.0,0.0,0.0,0.0,-0.3768,-0.2252,-0.0952,0.0633,0.0165,-0.0319,0.0,0.0848,-0.0268,-0.4041,0.0,0.0,0.0,0.0,0.0,0.6297,0.8945,1.072,1.1309,1.1705,1.225,1.2856,1.1987,1.1743,1.2578,1.0109,0.7957,0.6577,0.6178,0.3736,0.0,0.0,0.0,0.0,0.0,0.0,0.0,0.0,0.0,0.0,0.0,0.0,0.0,0.0,0.0,0.0,0.0,0.0,0.0,0.0,0.0,0.0,0.0,0.0,0.0,0.0,0.0,0.0,-0.9913,-1.0651,-1.0338,-1.0503,-1.0397,0.0,0.0,0.0,0.0,0.0,0.0,-1.1733,-1.211,-1.2447,-1.2831,-1.2811,-1.2863,-1.3008,-1.1409,-1.0638,-1.0587,-0.9234,-0.856,-0.8601,-0.856,-0.854,-0.854,-0.8499,-0.8357,-0.8012,-0.7176,-0.7074,-0.768,-0.8203,-0.8565,-0.8918,-0.8672,-0.8921,-0.925,-0.8613,-0.8181,-0.7772,-0.7772,0.0,-0.9476,-1.0296,0.0,0.0,0.0,0.0,-1.0771,-0.9164,-0.8788,-0.8195,-0.5942,-0.417,-0.2891,-0.2743,-0.1419,0.0522,0.0,0.3935,0.3396,0.1174,0.0,0.0,0.0,0.0,0.5905,0.9664,1.0824,1.1366,1.1516,1.2049,1.2276,1.2006,1.1199,1.0626,1.0541,0.6797,0.3613,0.1449,0.0433,-0.2833,-0.8681,0.0,0.0,0.0,0.0,0.0,0.0,0.0,0.0,0.0,0.0,0.0,0.0,0.0,0.0,0.0,0.0,0.0,0.0,0.0,0.0,0.0,0.0,0.0,0.0,0.0,0.0,0.0,0.0,0.0,-1.2131,-1.4035,0.0,0.0,0.0,0.0,-1.1364,-1.1572,-1.2397,-1.3976,-1.4214,-1.493,-1.6341,-1.554,-1.5187,-1.5447,-1.2578,-1.1104,-1.1268,-0.9507,-0.8777,-0.8913,-0.8764,-0.8696,-0.8689,-0.8547,-0.8472,-0.8425,-0.7963,-0.7597,-0.7536,-0.8383,-0.886,-0.9122,-0.8827,-0.8623,-0.8421,-0.7469,-0.7183,-0.7109,-0.7109,-0.7771,-0.8908,-1.123,-1.1754,0.0,0.0,-1.1637,-0.9537,-0.912,-0.7431,-0.5766,-0.5481,-0.5339,-0.5234,-0.5225,-0.4694,-0.3071,0.0,0.2445,0.3309,0.4119,0.0,0.5249,0.285,0.5892,0.883,0.9732,0.9873,1.0167,1.0762,1.0864,1.0645,0.9936,1.0104,0.8672,0.4931,0.3224,0.0878,-0.247,-0.4889,-0.5736,-0.4798,-0.9416,0.0,0.0,0.0,0.0,0.0,0.0,0.0,0.0,0.0,0.0,0.0,0.0,0.0,0.0,0.0,0.0,0.0,0.0,0.0,0.0,0.0,0.0,0.0,0.0,0.0,0.0,0.0,0.0,-1.4437,-1.5261,0.0,0.0,-1.4204,-1.3925,-1.3459,-1.4393,-1.5343,-1.613,-1.6531,-1.6937,-1.7555,-1.7421,-1.7399,-1.7502,-1.5493,-1.394,-1.2907,-1.1397,-1.0175,-0.9218,-0.9062,-0.9049,-0.913,-0.8886,-0.8777,-0.8757,-0.8499,-0.8194,-0.7758,-0.7923,-0.8077,-0.8176,-0.8077,-0.8007,-0.8037,-0.754,-0.7434,-0.757,-0.8731,-0.9836,-1.0832,-1.133,-1.1386,-1.1142,-1.017,-0.9092,-0.8025,-0.7236,-0.6395,-0.5811,-0.6277,-0.6356,-0.6276,-0.6069,-0.556,-0.4528,-0.2739,0.0,0.2584,0.4225,0.525,0.5964,0.6137,0.7312,0.8475,0.9194,0.9781,1.028,1.0553,1.0921,1.0846,1.0158,0.915,0.6764,0.2705,0.0926,-0.1424,-0.471,-0.5946,-0.6237,-0.5399,-0.5954,-0.8684,0.0,0.0,0.0,0.0,0.0,0.0,0.0,0.0,0.0,0.0,0.0,0.0,0.0,0.0,0.0,0.0,0.0,0.0,0.0,0.0,0.0,0.0,0.0,0.0,0.0,0.0,-1.5547,-1.6121,-1.6717,-1.6847,-1.6276,-1.5952,-1.5745,-1.5641,-1.6566,-1.7328,-1.7729,-1.8223,-1.849,-1.849,-1.8784,-1.8891,-1.8784,-1.7278,-1.5863,-1.4831,-1.2831,-1.1208,-1.0178,-0.9502,-0.9286,-0.9367,-0.9171,-0.9062,-0.9001,-0.8852,-0.8581,-0.8241,-0.7997,-0.7834,-0.7753,-0.7807,-0.7855,-0.7875,-0.778,-0.7999,-0.8543,-0.9995,-1.1283,-1.2171,-1.2074,-1.1709,-1.0952,-0.901,-0.8128,-0.7499,-0.6289,-0.6212,-0.655,-0.6954,-0.7258,-0.727,-0.6759,-0.6157,-0.538,-0.4157,-0.0829,0.1944,0.2548,0.3925,0.5261,0.6069,0.6473,0.7007,0.7811,0.8833,0.9469,0.9606,1.0293,1.0354,0.9395,0.6556,0.3721,0.115,-0.2075,-0.4585,-0.6072,-0.5842,-0.5952,-0.6401,-0.184,-0.1267,-0.4853,0.0,0.0,0.0,0.0,0.0,0.0,0.0,0.0,0.0,0.0,0.0,0.0,0.0,0.0,0.0,0.0,0.0,0.0,0.0,0.0,0.0,0.0,0.0,-1.3633,-1.547,-1.6879,-1.7041,-1.8467,-1.8945,-1.7782,-1.7943,-1.7983,-1.7675,-1.7943,-1.837,-1.8931,-1.9239,-1.9399,-1.9399,-1.9666,-1.9679,-1.9386,-1.7662,-1.6815,-1.6689,-1.348,-1.1914,-1.1799,-1.0192,-0.9504,-0.9511,-0.9381,-0.9293,-0.915,-0.9001,-0.8852,-0.8696,-0.854,-0.8303,-0.8065,-0.8214,-0.8174,-0.8038,-0.8038,-0.8909,-1.007,-1.0891,-1.1704,-1.2577,-1.3404,-1.2713,-1.1467,-1.0168,-0.9148,-0.8112,-0.6533,-0.698,-0.7769,-0.7449,-0.791,-0.8243,-0.7351,-0.6793,-0.5698,-0.3266,-0.0122,0.1512,-0.0395,0.1968,0.371,0.2588,0.3632,0.0,0.5858,0.6909,0.7807,0.8236,0.9162,0.9169,0.7634,0.2578,-0.0359,0.0,-0.5891,-0.8607,-0.6839,-0.5114,-0.516,-0.7265,0.1971,0.6559,0.6104,0.0,0.0,0.0,0.0,0.0,0.0,0.0,0.0,0.0,0.0,0.0,0.0,0.0,0.0,0.0,0.0,0.0,0.0,0.0,0.0,0.0,0.0,-1.6773,-1.5874,-1.7076,-1.829,-1.8977,-1.9853,-2.0107,-1.9559,-1.9586,-1.9506,-1.9212,-1.9466,-1.9706,-1.9867,-1.9947,-2.0,-2.0,-2.0067,-1.9973,-1.9679,-1.9233,-1.8244,-1.6856,-1.5971,-1.5003,-1.3829,-1.2038,-1.135,-1.1336,-0.9925,-0.9252,-0.93,-0.9042,-0.8852,-0.8696,-0.854,-0.837,-0.8214,-0.8255,-0.8772,-0.941,-0.941,-1.0928,-1.2767,-1.2808,-1.3573,-1.4436,-1.409,-1.3741,-1.3144,-1.1605,-1.038,-0.9385,-0.8824,-0.832,-0.8181,-0.9332,-0.9674,-0.953,-0.8293,-0.7555,-0.6646,-0.5003,-0.2186,0.1089,0.4534,0.5894,0.6759,0.7585,0.8234,0.0,0.9706,1.0223,1.1735,1.4789,1.2808,1.1381,1.1705,0.5517,0.01,-0.3468,-0.7132,-0.9469,-1.0128,-0.9343,-0.779,-0.5472,-0.3071,-0.3402,0.0,0.0,0.0,0.0,0.0,0.0,0.0,0.0,0.0,0.0,0.0,0.0,0.0,0.0,0.0,0.0,0.0,0.0,0.0,0.0,0.0,0.0,-1.7001,-1.8225,-1.7943,-1.8604,-1.9359,-2.0241,-2.0655,-2.0748,-2.0441,-2.0414,-2.0294,-2.0,-2.0134,-2.0227,-2.0227,-2.0347,-2.0361,-2.0241,-2.0227,-2.0147,-1.9987,-1.9867,-1.922,-1.8214,-1.7481,-1.6594,-1.5537,-1.3868,-1.3177,0.0,-1.1294,-1.0446,-1.0286,-0.9418,-0.9001,0.0,0.0,0.0,0.0,0.0,-0.8907,-1.0002,-1.0002,-1.1745,-1.3849,-1.3696,-1.4434,-1.5297,-1.479,-1.4549,-1.415,-1.2551,-1.1638,-1.0929,-1.0108,-0.9677,-0.9665,-1.053,-1.0864,-1.0682,-0.9533,-0.8932,-0.8137,-0.6731,-0.4282,0.0,0.2543,0.6359,0.8997,0.9236,1.0626,1.2258,1.4058,1.3811,1.3987,1.5304,1.0916,0.7483,0.6373,-0.0968,0.0,0.0,0.0,-1.3816,-1.295,-1.2606,0.0,0.0,0.0,-0.7127,-0.8723,0.0,0.0,0.0,-1.6078,-1.9133,0.0,0.0,0.0,0.0,0.0,0.0,0.0,0.0,0.0,0.0,0.0,0.0,0.0,0.0,0.0,0.0,-1.81,-1.9167,-1.9865,-1.9933,-2.0241,-2.1015,-2.1109,-2.1002,-2.0748,-2.0722,-2.0615,-2.0347,-2.0334,-2.0334,-2.0334,0.0,0.0,0.0,0.0,-2.0321,-2.0281,-2.0027,-1.9867,-1.98,-1.8319,-1.7577,-1.7208,-1.5548,-1.4708,-1.444,-1.2875,-1.1955,-1.1405,-1.0133,-0.9511,-0.9368,-0.9244,-0.8869,-0.8582,-0.8521,-0.9327,-1.0485,-1.0485,0.0,0.0,-1.4064,-1.4691,-1.5444,-1.5404,-1.5217,-1.4718,-1.3275,-1.2841,-1.2458,-1.1018,-1.1064,-1.1547,-1.1456,-1.1702,-1.1742,-1.0876,-1.0468,-0.9786,-0.8433,-0.6549,-0.4808,-0.3327,0.4535,1.0319,0.9343,1.2024,1.5303,1.8437,1.7258,1.523,1.284,0.0,0.0,-0.3005,-1.1359,-1.614,-1.564,-1.9319,-1.9706,-1.5775,-1.5661,-1.4023,-1.052,-0.9763,-0.8392,-0.6309,-0.6703,-0.8158,-1.0667,-1.8709,-1.6025,0.0,0.0,0.0,0.0,0.0,0.0,0.0,0.0,0.0,0.0,0.0,0.0,0.0,0.0,0.0,-1.9903,-2.0479,-2.0943,-2.0523,-2.0708,-2.0922,-2.1082,-2.1109,-2.1082,-2.1029,-2.1029,-2.1002,-2.0949,-2.0935,-2.0935,-2.0935,-2.0989,0.0,-2.0935,-2.0935,-2.0828,-2.0588,-2.0535,-2.0267,-1.98,0.0,0.0,-1.8881,-1.7208,-1.5792,-1.4316,-1.2641,-1.1077,-0.9752,-1.0508,-1.1388,-1.2281,-1.1048,-1.0306,-1.0166,-1.1189,-1.219,-1.3199,-1.3199,-1.4172,-1.5439,-1.5439,-1.5589,-1.5698,-1.5471,-1.5351,0.0,-1.4705,-1.3661,-1.2901,-1.3243,-1.2634,-1.198,-1.2619,-1.2685,-1.2421,-1.1499,-1.1158,-1.0617,-0.9311,-0.9122,-0.8429,-0.593,0.2125,0.9227,1.2405,1.5961,1.908,2.1423,1.8875,1.6564,1.5741,0.7843,0.145,-0.1566,-0.9828,-1.6131,-1.9146,-2.1453,-2.1854,-2.0048,-2.0606,-1.9991,-1.8034,-1.8774,-1.8166,-1.6177,-1.8029,-1.942,-2.0062,-1.145,-0.3661,0.0,0.0,0.0,0.0,0.0,0.0,0.0,0.0,0.0,0.0,0.0,-1.9669,0.0,0.0,-2.2669,-2.2602,-2.2506,-2.2271,-2.2167,-2.1505,-2.1109,-2.1109,-2.1109,-2.1109,-2.1109,-2.1109,-2.1109,-2.1109,-2.1109,-2.1109,-2.1109,-2.1109,-2.1109,-2.1109,-2.0962,-2.0895,-2.0895,-2.0601,-2.0307,-2.0013,-1.9867,-1.9653,-1.9359,-1.8378,-1.7062,-1.5401,-1.369,-1.189,-1.0362,-1.0855,-1.1973,-1.3244,-1.3022,-1.2372,-1.1531,-1.2034,-1.2921,-1.3872,-1.3872,-1.4758,-1.5832,-1.5832,-1.5832,-1.5805,-1.5658,-1.5618,-1.5551,-1.5257,-1.4695,-1.4142,-1.4502,-1.3853,-1.3302,-1.3543,-1.3414,-1.3081,-1.2452,-1.2713,-1.2839,-1.2155,-1.2359,-1.213,-1.0489,-0.4087,0.3771,1.2467,1.7049,2.0984,2.4909,2.1581,1.727,1.2988,0.3239,-0.4762,-0.9276,-1.6717,-2.2306,-2.5035,-2.5844,-2.6149,-2.5878,-2.614,-2.5697,-2.4368,-2.4347,-2.3294,-2.1135,-2.1381,-2.1074,-2.0054,-0.9212,-0.0748,0.0,0.0,0.0,0.0,0.0,0.0,0.0,0.0,-1.8268,-1.9602,-2.1371,-2.3026,-2.3954,-2.4491,-2.4941,-2.5383,-2.4126,-2.326,-2.3529,-2.2215,-2.1109,-2.1109,-2.1109,-2.1109,-2.1109,-2.1109,-2.1109,-2.1109,-2.1109,-2.1109,-2.1109,-2.1109,-2.1109,-2.1109,-2.0882,-2.0869,-2.1109,-2.0588,-2.0294,-2.0227,-1.9933,-1.9653,-1.9359,-1.9065,-1.8071,-1.648,-1.459,-1.3029,-1.1868,-1.1928,-1.2832,-1.4212,-1.5141,-1.4596,-1.3427,-1.2964,-1.3437,-1.4268,-1.4268,-1.4949,-1.5832,-1.5832,-1.5832,-1.5832,-1.5832,-1.5832,-1.5778,-1.5551,-1.5444,-1.5337,-1.511,-1.483,-1.4549,-1.4309,-1.4028,-1.3761,-1.3899,-1.4468,-1.5061,-1.5295,-1.5343,-1.5141,-1.4801,-1.0789,-0.3372,0.9349,1.5352,2.0321,2.5551,2.2207,1.6359,0.8457,-0.2107,-1.1472,-1.8484,-2.4351,-2.8211,-2.9473,-2.9502,-2.9749,-3.0286,-3.0319,-3.0009,-2.9292,-2.8199,-2.6794,-2.5191,-2.3075,-2.1074,-1.8997,-0.9475,-0.1389,-1.9174,-1.8518,-1.7657,-1.7513,-1.6832,-1.6728,0.0,0.0,-2.1457,-2.4331,-2.5809,-2.6994,-2.8584,-2.8069,-2.749,-2.7902,-2.5521,-2.3529,-2.3574,-2.2215,-2.1109,-2.1109,-2.1109,-2.1109,-2.1109,-2.1109,-2.1109,-2.1109,-2.1109,-2.1109,-2.1109,-2.1109,-2.1109,-2.1109,-2.1082,-2.1082,-2.1109,-2.0788,-2.0494,-2.0227,-1.9933,-1.9653,-1.9359,-1.9065,-1.7956,-1.6198,-1.4176,-1.3217,-1.3197,-1.446,-1.5743,-1.7121,-1.7054,-1.6806,-1.6599,-1.6038,-1.5757,-1.5629,-1.5629,-1.5629,-1.5832,-1.5832,-1.5832,-1.5832,-1.5832,-1.5832,-1.5818,-1.5792,-1.5591,-1.5391,-1.5351,-1.5137,-1.491,-1.487,-1.4643,-1.4729,-1.6154,-1.5995,-1.5919,-1.6976,-1.6938,-1.6575,-1.6211,-1.4926,-1.0076,0.1094,0.9082,1.5053,1.8443,1.6427,1.2047,0.5336,-0.3384,-1.2623,-2.2375,-2.5492,-2.7241,-2.7897,-2.8938,-2.9525,-2.9633,-3.0392,-3.1108,-3.1771,-3.0879,-3.083,-3.1666,-2.8449,-2.6245,-2.4651,-1.1172,-0.1773,-1.8559,-1.8483,0.0,0.0,-1.7711,-1.8278,-1.9391,-2.0906,-2.2881,-2.5439,-2.7328,-2.8902,-3.08,-3.0526,-3.0054,0.0,-2.7228,-2.5024,-2.5024,-2.2668,-2.0788,-2.0615,-2.0601,-2.0668,-2.0842,-2.0855,-2.0855,-2.0855,-2.1015,-2.1109,-2.1109,-2.1109,-2.1109,-2.1109,-2.1109,-2.1109,-2.1109,-2.0655,-2.0361,-2.0227,-1.9773,-1.9492,-1.9359,-1.9065,-1.7853,-1.594,-1.4168,-1.3804,-1.4556,-1.5198,-1.6274,-1.7555,-1.7261,-1.7048,-1.686,-1.662,-1.6339,-1.6086,-1.6086,-1.5979,-1.5832,-1.5832,-1.5832,-1.5832,-1.5832,-1.5832,-1.5832,-1.5832,-1.5738,-1.5645,-1.5645,-1.5565,-1.5431,-1.5257,-1.5124,-1.5363,-1.6521,-1.7063,-1.7624,-1.888,-1.9765,-2.012,-1.9753,-1.9088,-1.6866,-1.1428,-0.2786,0.3647,0.5216,0.6038,0.3686,-0.3555,-0.9129,-1.4968,-2.1581,-2.3463,-2.5025,-2.6905,-2.8466,-2.9599,-3.0212,-3.1031,-3.1775,-3.2426,-3.1769,-3.1324,-3.11,-2.7633,-2.4402,-2.1303,-1.172,-0.4125,-1.8556,0.0,0.0,-1.8342,-1.8755,-1.9731,-2.0621,-2.227,-2.4189,-2.6281,-2.8265,-3.0031,-3.1465,-3.1513,0.0,-3.1523,-2.8438,-2.5984,-2.5984,-2.2833,-2.0468,-2.0254,-2.0013,-1.9987,-2.0281,-2.0468,-2.0548,-2.0548,-2.0828,-2.0989,-2.0989,-2.1069,-2.1109,-2.1109,-2.1109,-2.1109,-2.1109,-2.0521,-2.0227,-2.0227,-1.9639,-1.9372,-1.9359,-1.8971,-1.7725,-1.5896,-1.4883,-1.4877,-1.5411,-1.5849,-1.6605,-1.7555,-1.7355,-1.7141,-1.6941,-1.6941,-1.6607,-1.6152,-1.6152,-1.6005,-1.5832,-1.5832,-1.5832,-1.5832,-1.5832,-1.5832,-1.5832,-1.5832,-1.5832,-1.5832,-1.5832,-1.5832,-1.5778,-1.5565,-1.5511,-1.5906,-1.7265,-1.8113,-1.9041,-2.0717,-2.199,-2.2661,-2.2478,-2.2396,-2.1996,-2.1043,-1.5056,-0.9586,-0.664,-0.3837,-0.4306,-0.9972,-1.3057,-1.6105,-1.9489,-2.1499,-2.349,-2.5747,-2.7769,-2.9289,-3.0304,-3.1043,-3.1774,-3.2508,-3.2178,-3.1436,-3.0413,-2.6835,-2.2923,-1.857,-1.2473,-0.6492,0.0,0.0,-2.0509,-2.0424,-2.0305,-2.0835,-2.3647,-2.4833,-2.5844,-2.7571,-2.9292,-3.0498,-3.0248,-3.0936,-3.1523,-3.1523,-2.8438,-2.5984,-2.5984,-2.2627,-2.0241,-2.0227,-1.9479,-1.9078,0.0,-1.992,-2.0254,-2.0254,-2.0521,-2.0695,-2.0695,-2.0962,-2.1109,-2.1109,-2.1109,-2.1109,-2.1109,-2.0521,-2.0227,-2.0227,-1.9639,-1.9372,-1.9345,-1.8771,-1.7533,-1.6005,-1.7051,-1.6711,-1.553,-1.6935,-1.7582,-1.7582,-1.7569,-1.7569,-1.7555,-1.7555,-1.6834,-1.5845,-1.5845,-1.5832,-1.5832,-1.5832,-1.5832,-1.5832,-1.5832,-1.5832,-1.5832,-1.5832,-1.5832,-1.5832,-1.5832,-1.5832,-1.5832,-1.5818,-1.5818,-1.6452,-1.8915,-1.9109,-1.9783,-2.2656,-2.2966,-2.2892,-2.3372,-2.4137,-2.4795,-2.4978,-2.6169,-2.3778,-1.4649,-1.1517,-1.0404,-1.107,-1.3037,-1.5028,-1.6955,-2.0636,-2.3287,-2.4389,-2.663,-2.8364,-2.9217,-2.9846,-3.0858,-3.2373,-3.2418,-3.2112,-3.1438,-2.8031,-2.3984,-1.9443,-1.3769,-0.83,0.0,0.0,-2.1356,-2.1026,-2.1451,-2.2311,-2.3653,-2.4288,-2.5017,-2.6345,-2.713,-2.7638,-2.8209,-2.8303,-2.871,-2.9699,-2.685,-2.4754,-2.583,-2.2818,-2.0307,-1.9733,-1.9399,0.0,0.0,0.0,0.0,-2.1303,-2.1925,-2.2241,-2.2119,-2.2544,-2.2215,-2.1109,-2.1109,-2.1109,-2.1109,-2.0521,-2.0227,-2.0227,-1.9639,-1.9372,-1.9359,-1.8958,-1.8387,-1.7644,-1.7793,-1.7449,-1.6935,-1.7371,-1.7582,-1.7582,-1.7582,-1.7462,-1.7288,-1.7288,-1.6914,-1.6406,-1.6406,-1.6286,-1.6086,-1.5885,-1.5832,-1.5832,-1.5832,-1.5832,-1.5832,-1.5832,-1.5832,-1.5832,-1.5832,-1.5832,-1.6008,-1.6857,-1.7044,-1.7762,-2.0206,-2.0569,-2.1153,-2.3308,-2.3908,-2.448,-2.5564,-2.6688,-2.8012,-2.9651,-3.1029,-2.9367,-2.231,-2.1568,-1.9988,-1.5585,-1.423,-1.4495,-1.6708,-1.8767,-2.1009,-2.3652,-2.5728,-2.7507,-2.9011,-3.0188,-3.133,-3.2466,-3.2439,-3.2085,-3.1486,-2.6863,-2.2567,-1.8458,-1.2067,-0.7445,0.0,-2.1582,-2.2479,-2.2217,-2.2859,-2.3621,-2.4128,-2.4142,-2.4303,-2.4896,-2.5264,-2.5634,-2.6101,-2.6287,-2.6819,-2.7943,-2.5377,-2.3754,-2.5136,-2.2303,-1.996,-1.9706,-1.9399,0.0,0.0,0.0,0.0,-2.1606,-2.2453,-2.3142,-2.3607,-2.4161,-2.3931,-2.2937,-2.2812,-2.2812,-2.2812,-2.219,-2.1518,-2.0726,-2.0336,-1.9924,-1.9359,-1.9065,-1.8771,-1.8477,-1.8183,-1.7876,-1.7687,-1.8094,-1.8304,-1.8394,-1.8902,-1.8993,-1.8716,-1.8203,-1.7886,-1.7677,-1.6968,-1.6513,-1.6246,-1.6046,-1.5912,-1.5832,-1.5832,-1.5832,-1.5927,-1.6386,-1.6103,-1.6008,-1.6936,-1.6842,-1.6749,-1.8041,-1.8319,-1.8872,-2.0836,-2.1302,-2.1951,-2.4116,-2.4836,-2.567,-2.7494,-2.9764,-3.2099,-3.4349,-3.5958,-3.4586,-2.8359,-2.8168,-2.6291,-2.0335,-1.717,-1.6376,-1.8501,-1.9298,-2.0968,-2.4095,-2.5861,-2.7459,-2.8939,-3.0452,-3.1734,-3.2876,-3.2822,-3.2643,-3.2222,-2.7332,-2.293,-1.9054,-1.2903,-0.853,-2.2749,-2.3294,-2.3846,-2.4179,-2.4462,-2.473,-2.4983,-2.4369,-2.3708,-2.3351,-2.3782,-2.4283,0.0,0.0,-2.5891,-2.6445,-2.4394,-2.3153,-2.4105,-2.1303,-1.9448,0.0,0.0,0.0,0.0,0.0,0.0,-2.1375,0.0,-2.3386,-2.4928,-2.5691,-2.6073,-2.5984,-2.5984,-2.5984,-2.5984,-2.5274,-2.3873,-2.1729,-2.1729,-2.0931,-1.9475,-1.9179,-1.8883,-1.8477,-1.8196,-1.7889,-1.7714,-1.902,-1.9642,-1.9746,-2.1151,-2.1744,-2.1541,-2.0231,-1.9731,-1.9435,-1.7636,-1.6652,-1.6313,-1.6299,-1.6099,-1.5872,-1.5858,-1.5845,-1.613,-1.7434,-1.6857,-1.656,-1.8872,-1.8688,-1.8149,-1.9314,-1.9588,-1.9951,-2.1123,-2.148,-2.2282,-2.506,-2.5756,-2.6729,-2.924,-3.3172,-3.6678,-3.886,-4.0819,-3.9596,-3.2946,-3.1652,-2.9674,-2.5239,-2.1822,-2.048,-2.2129,-2.2136,-2.3194,-2.573,-2.7062,-2.8118,-2.9085,-3.0659,-3.221,-3.3745,-3.3745,-3.3713,-3.363,-2.9302,-2.516,-2.1144,-1.6305,-1.1758,-2.2189,-2.3119,-2.4165,-2.469,-2.4917,-2.4877,-2.4516,-2.4058,-2.3555,-2.2495,-2.2314,-2.2195,0.0,0.0,0.0,-2.574,-2.5014,0.0,-2.5337,-2.3762,0.0,0.0,0.0,-2.0219,-2.1074,-2.1145,0.0,0.0,-2.4428,-2.4862,-2.6936,-2.7282,-2.6917,-2.5968,-2.5984,-2.5984,-2.5984,-2.5658,-2.4828,-2.378,-2.378,-2.2839,-2.1031,-2.0943,-2.0061,-1.849,-1.841,-1.821,-1.801,-1.9121,-1.9777,-2.0076,-2.1248,-2.1744,-2.1643,-2.1338,-2.1135,-2.1119,-2.0639,-1.8861,-1.6887,-1.6673,-1.654,-1.6446,-1.6233,-1.6814,-1.7567,-1.8043,-1.8318,-1.8719,-1.9717,-1.951,-1.9314,-2.0567,-2.0836,-2.1212,-2.2403,-2.3327,-2.4196,-2.5407,-2.7704,-3.0133,-3.2372,-3.524,-3.8063,-4.0393,-4.1519,-4.1247,-3.8901,-3.7087,-3.4701,-3.1365,-2.8048,-2.6145,-2.6128,-2.4978,-2.5154,-2.7406,-2.7809,-2.894,-3.1126,-3.2736,-3.4321,-3.5971,-3.5971,-3.5454,-3.4418,-3.0392,-2.6901,-2.3908,-1.897,-1.6381,-2.309,-2.3941,-2.489,-2.5344,-2.517,-2.4756,-2.4593,-2.3759,-2.2763,-2.2188,-2.159,0.0,0.0,0.0,0.0,0.0,0.0,0.0,-2.4795,-2.3769,-2.234,0.0,-2.0508,0.0,-2.1228,-2.1891,-2.3278,0.0,-2.57,-2.6346,-2.848,-2.8801,-2.8615,-2.817,-2.8188,-2.8098,-2.7902,-2.7687,-2.684,-2.5518,-2.5518,-2.4072,-2.1586,-2.1586,-2.0543,-1.8677,0.0,-1.8755,-1.8963,-2.0241,-2.1115,-2.1837,-2.2955,-2.3484,-2.3384,-2.2767,-2.2567,-2.2466,-2.1845,-2.0617,-1.9066,-1.8607,-1.8356,-1.8193,-1.8015,-1.854,-1.9431,-1.9987,-2.0124,-2.0348,-2.1419,-2.1186,-2.0975,-2.2473,-2.2872,-2.3134,-2.4382,-2.5062,-2.5793,-2.6565,-2.9372,-3.2283,-3.4329,-3.7133,-3.9815,-4.2117,-4.3071,-4.3216,-4.2368,-4.0178,-3.7853,-3.5792,-3.2793,-3.0955,-3.0983,-2.8828,-2.8216,-3.0046,-3.031,-3.1106,-3.257,-3.4426,-3.5999,-3.7169,-3.7218,-3.6821,-3.5992,-3.267,-3.008,-2.8136,-2.4691,-2.2959,-2.5089,-2.5595,-2.5932,-2.6047,-2.5264,-2.4622,-2.4823,-2.3309,-2.1853,-2.1857,0.0,0.0,-1.8988,0.0,-2.1267,-2.1595,0.0,-2.3278,-2.336,-2.2782,-2.2023,-2.1505,-2.1257,-2.1218,-2.1698,-2.2974,-2.4379,-2.605,-2.6575,-2.7623,-2.9707,-3.0039,-3.041,-3.0879,-3.0898,-3.0703,-3.0293,-3.0293,-2.9165,-2.7085,-2.7085,-2.5362,-2.2138,-2.2024,-2.0856,-1.9131,0.0,0.0,-2.0287,-2.182,-2.2945,-2.3872,-2.5156,-2.5742,-2.5528,-2.4412,-2.3998,-2.38,-2.2667,-2.2315,-2.2161,-2.1095,-2.0599,-2.0317,-2.0268,-2.0674,-2.1309,-2.2393,-2.196,-2.176,-2.3731,-2.3305,-2.2915,-2.4719,-2.5084,-2.5294,-2.6318,-2.6648,-2.7035,-2.8323,-3.079,-3.3482,-3.5763,-3.8735,-4.1558,-4.3652,-4.4686,-4.4858,-4.3939,-4.1758,-3.9978,-3.9041,-3.6555,-3.5253,-3.6058,-3.324,-3.2048,-3.3352,-3.3662,-3.391,-3.4088,-3.6077,-3.7519,-3.8218,-3.8322,-3.8254,-3.8025,-3.5789,-3.4194,-3.3079,-3.1705,-3.0283,-2.8176,-2.8144,-2.7994,-2.6398,-2.5117,-2.4219,-2.4108,-2.2762,0.0,0.0,0.0,-2.0121,-1.8587,-1.9953,0.0,-2.1402,0.0,0.0,0.0,0.0,-2.2767,0.0,0.0,0.0,0.0,0.0,0.0,0.0,0.0,0.0,-3.049,-3.0371,-3.041,-3.0879,-3.0898,-3.0859,-3.0762,-3.0762,-3.0217,-2.9119,-2.9119,-2.779,-2.5261,-2.4044,-2.2401,-2.0759,0.0,0.0,-2.0602,-2.2944,-2.3919,-2.4134,-2.5252,-2.5742,-2.5645,-2.543,-2.5333,-2.5333,-2.5118,-2.543,-2.5496,-2.2472,-2.1512,-2.1412,-2.1097,-2.1747,-2.269,-2.2997,-2.3428,-2.4175,-2.5931,-2.5619,-2.5109,-2.6494,-2.6523,-2.6235,-2.6483,-2.7197,-2.8402,-3.0316,-3.2269,-3.4575,-3.7584,-4.001,-4.2196,-4.4175,-4.4612,-4.4399,-4.3435,-4.2915,-4.2268,-4.135,-4.0193,-3.9563,-3.9685,-3.7449,-3.6173,-3.6479,-3.61,-3.6366,-3.7481,-3.8668,-3.9836,-4.1051,-4.138,-4.0922,-3.977,-3.9406,-3.8516,-3.7209,-3.6238,-3.6001,-3.0453,-2.9864,-2.8981,-2.7602,-2.5465,-2.3593,-2.3792,0.0,0.0,0.0,0.0,-2.0223,-1.895,0.0,0.0,0.0,0.0,0.0,0.0,0.0,0.0,0.0,0.0,0.0,0.0,0.0,0.0,0.0,0.0,0.0,-2.9212,-2.9212,-2.9792,-3.0879,-3.0898,-3.0898,-3.0898,-3.0644,-3.0215,-2.957,-2.9336,-2.81,-2.6045,-2.5371,-2.4055,-2.2561,-2.2561,0.0,-2.3087,-2.4105,-2.4886,-2.5289,-2.5585,-2.611,-2.6668,-2.6668,-2.7125,-2.7673,-2.7673,-2.7878,-2.7893,-2.6235,-2.5121,-2.4256,-2.351,-2.3736,-2.46,-2.5236,-2.5764,-2.6372,-2.7618,-2.7542,-2.7546,-2.8999,-2.9801,-3.0188,-3.0188,-3.0292,-3.0865,-3.2269,-3.3988,-3.6097,-3.8811,-4.1034,-4.2986,-4.4414,-4.466,-4.4297,-4.3336,-4.3067,-4.2662,-4.186,-4.1181,-4.0885,-4.12,-4.004,-3.9257,-3.9257,-3.9205,-3.9426,-4.011,-4.0926,-4.1837,-4.2777,-4.2917,-4.2701,-4.2122,-4.2157,-4.1832,-4.1192,-4.096,-4.1105,-3.2578,-3.1745,-3.0498,-2.9529,-2.6369,-2.3537,-2.4231,-2.2049,0.0,0.0,-2.1144,-2.0231,-1.9059,0.0,0.0,0.0,0.0,0.0,0.0,0.0,0.0,0.0,0.0,0.0,0.0,0.0,0.0,0.0,0.0,0.0,-2.7975,-2.8246,-2.9157,-3.0879,-3.0898,-3.084,-3.0742,-3.0371,-2.9941,-2.9434,-2.9082,-2.8128,-2.6608,-2.6264,-2.548,-2.4267,-2.4267,0.0,0.0,-2.5313,-2.585,-2.6586,-2.6249,-2.6839,-2.8049,-2.8287,-2.8914,-2.9806,-3.0055,-3.0143,-3.0252,-2.9984,-2.8743,-2.7218,-2.6309,-2.6269,-2.6648,-2.7673,-2.8121,-2.8549,-2.9441,-2.9735,-3.0254,-3.1707,-3.3101,-3.4044,-3.4044,-3.3808,-3.3856,-3.4673,-3.6209,-3.8084,-4.0185,-4.221,-4.3763,-4.4636,-4.4806,-4.442,-4.3439,-4.3066,-4.2701,-4.2279,-4.1747,-4.1619,-4.2235,-4.198,-4.1757,-4.1757,-4.1905,-4.2026,-4.2169,-4.2733,-4.3304,-4.3895,-4.4017,-4.4109,-4.4198,-4.4279,-4.4255,-4.4234,-4.4338,-4.4413,-3.4503,-3.4444,-3.4259,-3.1712,-2.8129,-2.5428,-2.5771,0.0,0.0,0.0,-2.0587,-1.9873,-1.8271,-1.8847,0.0,0.0,0.0,0.0,0.0,0.0,0.0,0.0,0.0,0.0,0.0,0.0,0.0,0.0,0.0,0.0,0.0,-2.839,-2.9157,-3.0879,-3.0898,-3.0684,-3.0273,-3.0215,-2.9785,-2.8984,-2.8945,-2.8583,-2.8067,-2.6717,-2.6045,-2.5936,0.0,0.0,0.0,-2.6275,-2.7102,-2.7473,-2.7431,-2.8143,-2.9396,-3.0345,-3.0744,-3.1009,-3.1958,-3.265,-3.2868,-3.1722,-3.0406,-2.9145,-2.9076,-2.9006,-2.9028,-2.9212,-2.9942,-3.092,-3.2142,-3.2875,-3.3477,-3.4351,-3.5082,-3.5585,-3.5585,-3.621,-3.7012,-3.7969,-3.9192,-4.0639,-4.2468,-4.3645,-4.4475,-4.5007,-4.5053,-4.4724,-4.3767,-4.3646,-4.3615,-4.3515,-4.3198,-4.3204,-4.3743,-4.3704,-4.3646,-4.3646,-4.3177,-4.3139,-4.3694,-4.3754,-4.4059,-4.4594,-4.5048,-4.524,-4.5251,-4.5509,-4.5508,-4.5261,-4.4676,-4.4228,-3.5879,-3.5623,-3.4809,-3.33,-2.953,-2.5945,-2.587,0.0,0.0,-2.1312,-2.0983,-2.0442,-2.0002,-2.0066,-2.0135,0.0,0.0,0.0,0.0,0.0,0.0,0.0,0.0,0.0,0.0,0.0,0.0,0.0,0.0,0.0,0.0,-2.8426,-2.9157,-3.0879,-3.0625,-3.0391,-3.0195,-2.9687,-2.9258,-2.8906,-2.8652,-2.8457,-2.8301,-2.7726,-2.7384,-2.7384,0.0,0.0,0.0,-2.7683,-2.8216,-2.8979,-2.879,-2.9806,-3.152,-3.1932,-3.3257,-3.4982,-3.538,-3.5746,-3.5889,-3.5433,-3.4892,-3.394,-3.1466,-3.0985,-3.1549,-3.2819,-3.3519,-3.4339,-3.6439,-3.7943,-3.8746,-3.8328,-3.8942,-3.9615,-3.9424,-3.9354,-3.9559,-4.0415,-4.1429,-4.2482,-4.3662,-4.4565,-4.5133,-4.5201,-4.5145,-4.4881,-4.4315,-4.4233,-4.4233,-4.4233,-4.3811,-4.3763,-4.4378,-4.459,-4.4738,-4.4761,-4.4526,-4.4461,-4.4606,-4.4415,-4.4429,-4.4642,-4.5,-4.5257,-4.5336,-4.5636,-4.5624,-4.5316,-4.4674,-4.4083,-3.5012,-3.5218,-3.4518,-3.4242,-3.0556,-2.675,0.0,0.0,-2.0818,-2.1708,-2.1156,-2.0634,-2.1049,-2.0729,-2.0651,0.0,0.0,0.0,0.0,0.0,0.0,0.0,0.0,0.0,0.0,0.0,0.0,0.0,0.0,0.0,0.0,-2.8847,-2.9648,-3.0898,-3.043,-3.0137,-3.0019,-2.9277,-2.8848,-2.873,-2.8437,-2.8301,-2.8301,-2.8301,-2.8301,-2.8262,0.0,0.0,0.0,-2.8858,-2.9387,-3.033,-3.0397,-3.1632,-3.3436,-3.4331,-3.5931,-3.774,-3.8572,-3.875,-3.8631,-3.8882,-3.892,-3.8411,-3.5769,-3.4816,-3.5002,-3.6467,-3.7361,-3.8331,-4.0638,-4.2209,-4.2977,-4.2102,-4.2719,-4.3385,-4.3155,-4.2729,-4.259,-4.3082,-4.3736,-4.4346,-4.4875,-4.5553,-4.6005,-4.597,-4.5681,-4.5414,-4.5299,-4.5048,-4.4896,-4.4896,-4.455,-4.4444,-4.4831,-4.5246,-4.5486,-4.5499,-4.539,-4.5192,-4.4893,-4.4544,-4.4306,-4.4113,-4.4573,-4.4855,-4.4939,-4.5312,-4.5278,-4.4949,-4.4325,-4.3643,-3.1682,-3.3068,-3.4048,-3.4561,-3.141,-2.8129,0.0,0.0,-2.0893,-2.1344,-2.0915,-2.0517,-2.0413,-2.0336,-2.0377,-2.0512,-2.1243,0.0,0.0,0.0,0.0,0.0,0.0,0.0,0.0,0.0,0.0,0.0,0.0,0.0,0.0,-2.9792,-3.0898,-3.0898,-3.043,-3.0,-2.959,-2.9141,-2.8711,-2.8301,-2.8301,-2.8301,-2.8301,-2.8301,-2.8301,0.0,0.0,0.0,0.0,-2.9672,-3.0491,-3.1311,-3.2327,-3.3546,-3.5034,-3.7986,-3.862,-3.8382,-4.1047,-4.1419,-4.0885,-4.1634,-4.1788,-4.1794,-4.2557,-4.1368,-3.9694,-3.9792,-4.1257,-4.3095,-4.4284,-4.4836,-4.5224,-4.5486,-4.5992,-4.6376,-4.6359,-4.6402,-4.641,-4.6288,-4.6387,-4.6435,-4.6306,-4.6701,-4.7191,-4.7438,-4.6809,-4.6424,-4.6857,-4.6124,-4.5586,-4.5586,-4.5701,-4.5649,-4.5331,-4.5655,-4.5884,-4.5898,-4.5571,-4.51,-4.444,-4.4077,-4.3637,-4.3054,-4.3747,-4.4135,-4.4108,-4.4524,-4.4519,-4.4189,-4.3495,-4.2886,-2.9481,-3.0714,-3.1285,-3.1265,-2.9016,-2.6725,-2.5728,-2.3115,-2.0984,-2.1245,-2.0748,-2.0386,-2.0978,-2.0763,-2.082,-2.1603,-2.218,0.0,0.0,0.0,0.0,0.0,0.0,0.0,0.0,0.0,0.0,0.0,0.0,0.0,0.0,-3.0102,-3.0293,-3.0,-2.9844,-2.9551,-2.9141,-2.8711,-2.8418,-2.8301,-2.8301,-2.8301,-2.8301,-2.8301,0.0,0.0,0.0,0.0,0.0,-3.1286,-3.2587,-3.3707,-3.4709,-3.618,-3.7837,-3.872,-4.0146,-4.1787,-4.3053,-4.344,-4.3357,-4.3988,-4.4216,-4.4187,-4.448,-4.325,-4.2104,-4.343,-4.5258,-4.6743,-4.66,-4.739,-4.811,-4.7442,-4.7709,-4.8128,-4.7885,-4.7773,-4.7474,-4.6615,-4.6896,-4.7019,-4.61,-4.6554,-4.7052,-4.7133,-4.6959,-4.6935,-4.7242,-4.7057,-4.6797,-4.6568,-4.7142,-4.7029,-4.5803,-4.5902,-4.5996,-4.5919,-4.5587,-4.5132,-4.4584,-4.3812,-4.3211,-4.2776,-4.2849,-4.3101,-4.3489,-4.3818,-4.396,-4.3849,-4.3506,-4.3359,0.0,-2.763,-2.8114,-2.8229,-2.6787,0.0,0.0,-2.2362,-2.0995,-2.1065,-2.0826,-2.0743,-2.1387,-2.1322,-2.1403,-2.2264,-2.2687,0.0,0.0,0.0,0.0,0.0,0.0,0.0,0.0,0.0,0.0,0.0,0.0,0.0,0.0,0.0,-3.1182,-3.0673,-2.9769,-2.9199,-2.8926,-2.8496,-2.8301,-2.8301,-2.8301,-2.8203,-2.8047,-2.8047,0.0,0.0,0.0,0.0,0.0,-3.2896,-3.4436,-3.5891,-3.6908,-3.8208,-3.9686,-4.0685,-4.1975,-4.3413,-4.4639,-4.5072,-4.5223,-4.5873,-4.6462,-4.6823,-4.6349,-4.549,-4.5,-4.65,-4.8015,-4.9152,-4.8669,-4.94,-5.0046,-4.9353,-4.9508,-4.9721,-4.9451,-4.909,-4.8526,-4.7548,-4.7378,-4.7235,-4.6628,-4.6824,-4.7174,-4.7627,-4.747,-4.7419,-4.7919,-4.7724,-4.7494,-4.7395,-4.7989,-4.7981,-4.6975,-4.6722,-4.6533,-4.6395,-4.5786,-4.5092,-4.4499,-4.3658,-4.2887,-4.2275,-4.2127,-4.2171,-4.2325,-4.2992,-4.35,-4.3818,-4.3759,-4.4107,0.0,0.0,0.0,0.0,0.0,0.0,0.0,-2.1813,0.0,-2.1006,-2.112,-2.1293,-2.1727,-2.1839,-2.197,-2.2534,-2.3124,0.0,0.0,0.0,0.0,0.0,0.0,0.0,0.0,0.0,0.0,0.0,0.0,0.0,0.0,0.0,-3.3213,-3.2353,-3.0219,-2.9085,-2.8976,-2.8476,-2.8301,-2.8301,-2.8301,-2.8086,-2.7715,-2.7676,0.0,0.0,0.0,0.0,0.0,-3.4418,-3.5891,-3.775,-3.8792,-3.9756,-4.0946,-4.3315,-4.383,-4.3571,-4.5747,-4.6445,-4.653,-4.7259,-4.8502,-4.9415,-4.8215,-4.8007,-4.8274,-4.8844,-4.9663,-5.0355,-5.0355,-5.0713,-5.1101,-5.1094,-5.1089,-5.105,-5.0941,-5.026,-4.9528,-4.89,-4.7922,-4.7203,-4.7532,-4.7311,-4.7426,-4.859,-4.8141,-4.7947,-4.8745,-4.8134,-4.7777,-4.8164,-4.849,-4.8642,-4.8621,-4.7934,-4.7427,-4.7235,-4.6162,-4.515,-4.4285,-4.3632,-4.274,-4.1653,-4.1789,-4.1595,-4.1024,-4.2221,-4.3249,-4.4072,-4.4294,-4.5092,-2.1122,0.0,-2.2094,-2.18,-2.1312,-2.0809,0.0,-2.0103,-2.0079,-2.0705,0.0,0.0,-2.2122,-2.2109,-2.2387,-2.336,0.0,0.0,0.0,0.0,0.0,0.0,0.0,0.0,0.0,0.0,0.0,0.0,0.0,0.0,0.0,0.0,-3.2855,-3.2353,-3.1732,-3.0974,-2.9972,-2.8854,-2.8301,-2.8301,-2.8301,-2.8242,-2.8125,-2.7812,0.0,0.0,0.0,0.0,-3.3079,-3.5007,-3.6985,-3.8865,-3.9878,-4.1267,-4.2733,-4.382,-4.4531,-4.5131,-4.6656,-4.7155,-4.7301,-4.8237,-4.923,-4.9961,-4.9271,-4.9558,-5.0053,-4.9967,-5.034,-5.0794,-5.0947,-5.1047,-5.1093,-5.1139,-5.1068,-5.0945,-5.0914,-5.0683,-5.0143,-4.9075,-4.8615,-4.806,-4.6987,-4.6657,-4.6786,-4.7426,-4.7353,-4.7745,-4.9155,-4.9164,-4.91,-4.9239,-4.9889,-5.0139,-4.9702,-4.8989,-4.8192,-4.7415,-4.7078,-4.6376,-4.5074,-4.4475,-4.3717,-4.285,-4.2623,-4.2422,-4.2302,-4.336,-4.4066,-4.457,-4.5611,-4.6426,-2.0715,-2.0808,-2.0883,-2.0589,-2.0103,-1.9781,-1.9588,0.0,0.0,0.0,0.0,0.0,0.0,0.0,0.0,0.0,0.0,0.0,0.0,0.0,0.0,0.0,0.0,0.0,0.0,0.0,0.0,0.0,0.0,0.0,0.0,0.0,-3.4426,-3.4142,-3.3552,-3.2655,-3.1235,-2.9911,-2.9116,-2.8914,-2.8894,-2.8692,-2.8288,-2.8631,-2.9125,0.0,0.0,0.0,-3.4492,-3.662,-3.8677,-4.0535,-4.1496,-4.2888,-4.4384,-4.4989,-4.5711,-4.6542,-4.7688,-4.8198,-4.8567,-4.9865,-5.0675,-5.105,-5.0543,-5.1026,-5.1563,-5.0594,-5.0658,-5.1046,-5.1152,-5.1132,-5.1131,-5.1082,-5.126,-5.1433,-5.1356,-5.1318,-5.1006,-5.0145,-4.9372,-4.8466,-4.7249,-4.6717,-4.6479,-4.6544,-4.6544,-4.7056,-4.8465,-4.8821,-4.9197,-4.9762,-5.0469,-5.0756,-5.0453,-5.0096,-4.9547,-4.8632,-4.8176,-4.7572,-4.6797,-4.6243,-4.5338,-4.405,-4.3576,-4.3287,-4.3171,-4.3752,-4.4581,-4.5545,-4.6306,-4.7276,-2.1087,-2.098,-2.0774,-2.0583,-2.0008,-1.9538,-1.9567,0.0,0.0,0.0,0.0,0.0,0.0,0.0,0.0,0.0,0.0,0.0,0.0,0.0,0.0,0.0,0.0,0.0,0.0,0.0,0.0,0.0,0.0,0.0,0.0,0.0,0.0,-3.6769,-3.5685,-3.451,-3.3459,-3.1433,-3.0321,-2.9939,-2.9754,-2.931,-2.8646,-2.9758,-3.0698,0.0,0.0,0.0,-3.6782,-3.8458,-4.03,-4.2269,-4.2986,-4.4192,-4.5545,-4.6209,-4.6874,-4.7643,-4.8635,-4.9384,-5.007,-5.1328,-5.2001,-5.2203,-5.1599,-5.2119,-5.2527,-5.091,-5.0798,-5.1178,-5.1127,-5.1219,-5.1299,-5.1145,-5.1702,-5.2202,-5.1972,-5.1895,-5.1736,-5.1323,-5.0015,-4.8718,-4.7754,-4.6919,-4.6275,-4.5955,-4.581,-4.621,-4.7541,-4.7995,-4.8607,-4.9708,-5.0396,-5.0778,-5.0818,-5.0942,-5.0801,-5.02,-4.925,-4.8666,-4.8522,-4.8072,-4.7057,-4.5481,-4.491,-4.4517,-4.4266,-4.4457,-4.5333,-4.6795,-4.7054,-4.8084,-2.1806,-2.1655,-2.1373,-2.0554,-2.0087,-1.9816,-1.9575,0.0,0.0,0.0,0.0,0.0,0.0,0.0,0.0,0.0,0.0,0.0,0.0,0.0,0.0,0.0,0.0,0.0,0.0,0.0,0.0,0.0,0.0,0.0,0.0,0.0,0.0,-3.8483,-3.8309,-3.8351,-3.8747,-3.3767,-3.1285,-3.1197,-3.0798,-3.0414,-3.0356,-3.102,-3.204,0.0,0.0,-3.5884,-3.8648,-3.8937,-4.0707,-4.3108,-4.3229,-4.4192,-4.5545,-4.6209,-4.7024,-4.805,-4.9033,-5.038,-5.1517,-5.0806,-5.1543,-5.2513,-5.1463,-5.1745,-5.2211,-5.1254,-5.1031,-5.1091,-5.1089,-5.1552,-5.1933,-5.1933,-5.251,-5.2818,-5.2049,-5.1895,-5.1682,-5.0932,-4.9989,-4.8865,-4.7435,-4.6468,-4.591,-4.5917,-4.5333,-4.5584,-4.7467,-4.7751,-4.8009,-4.8531,-4.9556,-5.0259,-5.0375,-5.0624,-5.0812,-5.0919,-5.0219,-4.9453,-4.8707,-4.8218,-4.7838,-4.7566,-4.715,-4.6955,-4.6906,-4.7335,-4.7701,-4.797,-4.8999,-4.9586,-2.2363,-2.2141,-2.213,-2.3052,-2.1959,-2.0589,-2.0408,0.0,0.0,0.0,0.0,0.0,0.0,0.0,0.0,0.0,0.0,0.0,0.0,0.0,0.0,0.0,0.0,0.0,0.0,0.0,0.0,0.0,0.0,0.0,0.0,0.0,0.0,0.0,-3.8588,-3.8894,-4.0013,-3.6376,-3.4345,-3.4023,-3.3391,-3.2885,-3.2705,-3.3649,-3.4699,-3.571,0.0,-3.8018,-3.9895,-4.0974,-4.2109,-4.335,-4.4192,-4.5093,-4.6196,-4.7838,-4.9196,-5.0277,-5.0932,-5.1535,-5.2054,-5.1997,-5.2221,-5.243,-5.1908,-5.1992,-5.2122,-5.122,-5.1025,-5.107,-5.0995,-5.1215,-5.1548,-5.1895,-5.2626,-5.3087,-5.2702,-5.2587,-5.2356,-5.151,-5.0664,-4.966,-4.83,-4.7553,-4.6769,-4.5737,-4.5068,-4.5037,-4.5981,-4.6252,-4.6869,-4.8145,-4.8986,-4.9755,-5.0452,-5.0625,-5.0779,-5.0991,-5.0782,-5.0469,-5.0,-4.982,-4.9508,-4.8966,-4.8817,-4.8519,-4.8034,-4.8334,-4.872,-4.9213,-4.9753,-5.0182,-2.2877,-2.2591,-2.2864,-2.4858,0.0,-2.2389,-2.3063,0.0,0.0,0.0,0.0,0.0,0.0,0.0,0.0,0.0,0.0,0.0,0.0,0.0,0.0,0.0,0.0,0.0,0.0,0.0,0.0,0.0,0.0,0.0,0.0,0.0,0.0,0.0,-3.944,-3.9758,-4.1096,-3.9373,-3.7854,-3.6668,-3.5752,-3.5221,-3.517,-3.6309,-3.7386,-3.8238,-3.9335,-4.0269,-4.1207,-4.2704,-4.3529,-4.3905,-4.5074,-4.6133,-4.7303,-4.9528,-5.1243,-5.2466,-5.2692,-5.2762,-5.2779,-5.3087,-5.2791,-5.2265,-5.2091,-5.2146,-5.2111,-5.1393,-5.1376,-5.153,-5.1202,-5.1279,-5.1567,-5.2197,-5.302,-5.3558,-5.3135,-5.3212,-5.3003,-5.1836,-5.1279,-5.0486,-4.902,-4.8515,-4.773,-4.5978,-4.5321,-4.5002,-4.5002,-4.5275,-4.5966,-4.732,-4.8261,-4.9305,-5.0606,-5.0856,-5.0933,-5.0875,-5.1045,-5.1102,-5.1081,-5.1162,-5.0859,-5.0104,-5.0098,-4.9775,-4.912,-4.9221,-4.9627,-5.0338,-5.0317,-5.0598,-2.3262,-2.3124,-2.3173,-2.3831,-2.4652,0.0,-2.8987,-2.9355,0.0,-3.0432,0.0,0.0,0.0,0.0,0.0,0.0,0.0,0.0,0.0,0.0,0.0,0.0,0.0,0.0,0.0,0.0,0.0,0.0,0.0,0.0,0.0,0.0,0.0,0.0,0.0,-4.302,-4.3717,-4.2956,-4.1013,-3.7979,-3.6739,-3.6521,-3.7272,-3.8399,-3.9335,-4.0245,-4.1302,-4.23,-4.3075,-4.3229,-4.4135,-4.5338,-4.5442,-4.692,-4.9154,-5.0295,-5.2002,-5.3709,-5.3443,-5.3857,-5.4297,-5.2974,-5.2453,-5.2183,-5.1513,-5.1683,-5.2088,-5.201,-5.251,-5.2856,-5.2049,-5.2433,-5.314,-5.3569,-5.4332,-5.4523,-5.2997,-5.3226,-5.3173,-5.1162,-5.1356,-5.1075,-4.8753,-4.8314,-4.7988,-4.7095,-4.6287,-4.581,-4.581,-4.5846,-4.5625,-4.5035,-4.6974,-4.8986,-5.0547,-5.1395,-5.151,-5.0741,-5.0855,-5.096,-5.1113,-5.1122,-5.1092,-5.1023,-5.1023,-5.0996,-5.1014,-5.1014,-5.113,-5.1286,-5.1288,-5.1226,-2.4203,-2.4904,-2.6089,-2.7729,-2.8528,0.0,0.0,-3.0626,-3.1846,-3.151,0.0,0.0,0.0,0.0,0.0,0.0,0.0,0.0,0.0,0.0,0.0,0.0,0.0,0.0,0.0,0.0,0.0,0.0,0.0,0.0,0.0,0.0,0.0,0.0,0.0,-4.351,-4.4759,-4.3959,-4.3186,-4.2284,-4.0608,-4.0025,-4.0337,-4.1112,-4.1914,-4.2807,-4.3662,-4.4456,-4.5269,-4.5805,-4.636,-4.6984,-4.8155,-4.9423,-5.0746,-5.2189,-5.3541,-5.4613,-5.4309,-5.4108,-5.3843,-5.2727,-5.1988,-5.1491,-5.1112,-5.1106,-5.1318,-5.1818,-5.2001,-5.2073,-5.2303,-5.2571,-5.2933,-5.3348,-5.3678,-5.3754,-5.308,-5.3194,-5.2873,-5.1038,-5.095,-5.0681,-4.9297,-4.8844,-4.8375,-4.7596,-4.6984,-4.6471,-4.5957,-4.6131,-4.6434,-4.6875,-4.8643,-5.0265,-5.1336,-5.1741,-5.201,-5.2241,-5.2376,-5.2223,-5.1725,-5.2321,-5.2669,-5.2669,-5.2105,-5.1872,-5.1889,-5.139,-5.1174,-5.1213,-5.1713,-5.1862,-2.5219,-2.633,-2.7812,-2.9713,0.0,0.0,-3.1379,-3.2191,-3.3367,-3.4144,0.0,0.0,0.0,0.0,0.0,0.0,0.0,0.0,0.0,0.0,0.0,0.0,0.0,0.0,0.0,0.0,0.0,0.0,0.0,0.0,0.0,0.0,0.0,0.0,0.0,-4.4305,-4.5603,-4.4971,-4.4902,-4.5363,-4.3987,-4.3271,-4.2999,-4.3431,-4.4113,-4.4921,-4.5683,-4.6309,-4.6873,-4.7736,-4.8117,-4.8326,-4.9808,-5.0931,-5.1908,-5.3069,-5.4295,-5.535,-5.5237,-5.4705,-5.3946,-5.3041,-5.2173,-5.1411,-5.1008,-5.0971,-5.1241,-5.2087,-5.2324,-5.2461,-5.3069,-5.3014,-5.275,-5.2661,-5.2827,-5.294,-5.2677,-5.2924,-5.2817,-5.1575,-5.1528,-5.1357,-5.0476,-4.9958,-4.9331,-4.8412,-4.8053,-4.7498,-4.6434,-4.6638,-4.7304,-4.8386,-4.971,-5.0891,-5.1798,-5.2395,-5.2856,-5.3164,-5.38,-5.3608,-5.251,-5.3126,-5.3472,-5.3472,-5.2877,-5.2589,-5.2627,-5.1803,-5.1567,-5.1917,-5.2161,-5.2376,-2.6426,-2.7036,-2.7739,0.0,0.0,0.0,0.0,-3.4815,-3.4064,0.0,0.0,0.0,0.0,0.0,0.0,0.0,0.0,0.0,0.0,0.0,0.0,0.0,0.0,0.0,0.0,0.0,0.0,0.0,0.0,0.0,0.0,0.0,0.0,0.0,-4.5494,-4.5815,-4.6413,-4.6413,-4.6413,-4.6413,-4.6413,-4.5971,-4.5182,-4.5233,-4.569,-4.6484,-4.7346,-4.7748,-4.7784,-4.8564,-4.9055,-4.9301,-4.9896,-5.1148,-5.2616,-5.2616,-5.402,-5.5934,-5.6148,-5.5724,-5.4946,-5.408,-5.3128,-5.2127,-5.1183,-5.1356,-5.2087,-5.2972,-5.3818,-5.4495,-5.4511,-5.3849,-5.2924,-5.17,-5.2043,-5.238,-5.1487,-5.2315,-5.3097,-5.2677,-5.3251,-5.3411,-5.2205,-5.1611,-5.0934,-4.9779,-4.9554,-4.893,-4.7352,-4.749,-4.8033,-4.8867,-4.9663,-5.0619,-5.1836,-5.351,-5.4126,-5.328,-5.478,-5.4934,-5.328,-5.3241,-5.3241,-5.3241,-5.3241,-5.328,-5.3397,-5.255,-5.2627,-5.3549,-5.2721,-5.2721,-2.8331,-2.9848,0.0,0.0,0.0,0.0,0.0,0.0,0.0,0.0,0.0,0.0,0.0,0.0,0.0,0.0,0.0,0.0,0.0,0.0,0.0,0.0,0.0,0.0,0.0,0.0,0.0,0.0,0.0,0.0,0.0,0.0,0.0,0.0,-4.6353,-4.691,-4.7088,-4.7512,-4.7756,-4.7756,-4.7756,-4.714,-4.6055,-4.6529,-4.6883,-4.7204,-4.8502,-4.9034,-4.9143,-5.0526,-5.1275,-5.1714,-5.2769,-5.3316,-5.3633,-5.4565,-5.533,-5.5955,-5.6225,-5.5729,-5.481,-5.3922,-5.2972,-5.1991,-5.1048,-5.0894,-5.1356,-5.2818,-5.3168,-5.3226,-5.3505,-5.3616,-5.3459,-5.2819,-5.2847,-5.2957,-5.2696,-5.3162,-5.3344,-5.2344,-5.2594,-5.2585,-5.1343,-5.1043,-5.0814,-5.0512,-5.0637,-5.0626,-5.0136,-5.0685,-5.1116,-5.102,-5.1792,-5.2888,-5.4434,-5.4511,-5.4895,-5.5818,-5.5742,-5.5203,-5.4164,-5.4664,-5.4972,-5.4972,-5.4395,-5.4126,-5.4185,-5.33,-5.2867,-5.293,-5.3558,-5.3766,-2.9572,0.0,0.0,0.0,0.0,0.0,0.0,0.0,0.0,0.0,0.0,0.0,0.0,0.0,0.0,0.0,0.0,0.0,0.0,0.0,0.0,0.0,0.0,0.0,0.0,0.0,0.0,0.0,0.0,0.0,0.0,0.0,0.0,0.0,-4.6677,-4.7368,-4.7284,-4.7968,-4.8306,-4.8306,-4.8306,-4.7879,-4.7176,-4.7554,-4.7756,-4.7793,-4.9032,-4.9738,-5.0218,-5.163,-5.2271,-5.2503,-5.3747,-5.4199,-5.425,-5.5122,-5.5692,-5.6072,-5.6308,-5.6004,-5.5346,-5.444,-5.3696,-5.2933,-5.1972,-5.1702,-5.1972,-5.3318,-5.3407,-5.3172,-5.3596,-5.3778,-5.3534,-5.2504,-5.2491,-5.2711,-5.2711,-5.3045,-5.32,-5.2821,-5.2939,-5.2902,-5.2382,-5.2121,-5.1933,-5.1751,-5.17,-5.1676,-5.1777,-5.2272,-5.27,-5.2892,-5.3762,-5.4839,-5.6186,-5.6225,-5.6609,-5.7632,-5.717,-5.6515,-5.5686,-5.5665,-5.5703,-5.5703,-5.5203,-5.4972,-5.4972,-5.4126,-5.3667,-5.362,-5.4011,-5.4279,0.0,0.0,0.0,0.0,0.0,0.0,0.0,0.0,0.0,0.0,0.0,0.0,0.0,0.0,0.0,0.0,0.0,0.0,0.0,0.0,0.0,0.0,0.0,0.0,0.0,0.0,0.0,0.0,0.0,0.0,0.0,0.0,0.0,0.0,-4.6597,-4.732,-4.7204,-4.7939,-4.8306,0.0,-4.8306,-4.8306,-4.8306,-4.8306,-4.8343,-4.8453,-4.9152,-5.0,-5.0959,-5.2159,-5.2428,-5.216,-5.3449,-5.4164,-5.4511,-5.4762,-5.5426,-5.6236,-5.636,-5.64,-5.621,-5.5203,-5.4818,-5.4493,-5.351,-5.3203,-5.3395,-5.4241,-5.4173,-5.3895,-5.4352,-5.4153,-5.3311,-5.1437,-5.1573,-5.2087,-5.2087,-5.2416,-5.2901,-5.3609,-5.3758,-5.3941,-5.4355,-5.4083,-5.3753,-5.3503,-5.2878,-5.2561,-5.2946,-5.3085,-5.3551,-5.4643,-5.5668,-5.6596,-5.7408,-5.8235,-5.8736,-5.8816,-5.8739,-5.8315,-5.7446,-5.64,-5.578,-5.5703,-5.5682,-5.566,-5.5621,-5.4869,-5.4647,-5.496,-5.4188,-5.4264,0.0,0.0,0.0,0.0,0.0,0.0,0.0,0.0,0.0,0.0,0.0,0.0,0.0,0.0,0.0,0.0,0.0,0.0,0.0,0.0,0.0,0.0,0.0,0.0,0.0,0.0,0.0,0.0,0.0,0.0,0.0,0.0,0.0,-4.688,-4.7074,-4.7457,-4.8049,-4.8233,-4.8306,0.0,-4.8306,-4.8306,-4.8306,-4.8306,-4.8673,-4.9299,-4.9121,-4.9821,-5.1305,-5.2544,-5.284,-5.2612,-5.4204,-5.47,-5.4626,-5.5532,-5.6007,-5.6212,-5.6458,-5.6426,-5.6082,-5.5171,-5.4741,-5.4357,-5.3472,-5.3203,-5.3395,-5.4241,-5.4173,-5.3895,-5.4352,-5.4153,-5.3608,-5.2872,-5.2821,-5.2931,-5.2931,-5.3228,-5.3497,-5.3363,-5.3604,-5.3832,-5.3941,-5.3869,-5.4233,-5.5522,-5.5559,-5.5618,-5.6015,-5.6752,-5.7066,-5.6648,-5.7533,-5.8452,-5.9322,-5.8946,-5.8972,-5.9671,-5.9063,-5.8286,-5.7431,-5.708,-5.6571,-5.5857,-5.5437,-5.5212,-5.5212,-5.4752,-5.4358,-5.4081,-5.4264,-5.4231,0.0,0.0,0.0,0.0,0.0,0.0,0.0,0.0,0.0,0.0,0.0,0.0,0.0,0.0,0.0,0.0,0.0,0.0,0.0,0.0,0.0,0.0,0.0,0.0,0.0,0.0,0.0,0.0,0.0,0.0,0.0,-4.5892,-4.5906,-4.5542,-4.6541,-4.7206,-4.7457,-4.8197,-4.8674,-4.8881,-4.8881,-4.8881,-4.8881,-4.8676,-4.8863,-4.9233,-4.9235,-4.9658,-5.0553,-5.1811,-5.2178,-5.2171,-5.414,-5.4764,-5.4724,-5.5878,-5.629,-5.634,-5.6536,-5.6406,-5.6146,-5.5692,-5.5318,-5.4972,-5.4511,-5.4395,-5.4472,-5.4934,-5.4748,-5.4482,-5.4705,-5.4322,-5.3758,-5.3526,-5.3318,-5.3225,-5.3225,-5.3359,-5.3444,-5.323,-5.3654,-5.4088,-5.4123,-5.4786,-5.5779,-5.7111,-5.7315,-5.7426,-5.7665,-5.8187,-5.8508,-5.8518,-5.909,-5.9724,-6.0549,-6.0256,-6.022,-6.0616,-6.025,-5.9638,-5.8682,-5.8178,-5.7197,-5.5618,-5.5301,-5.5026,-5.479,-5.4579,-5.4255,-5.3795,-5.4048,-5.4013,0.0,0.0,0.0,0.0,0.0,0.0,0.0,0.0,0.0,0.0,0.0,0.0,0.0,0.0,0.0,0.0,0.0,0.0,0.0,0.0,0.0,0.0,0.0,0.0,0.0,0.0,0.0,0.0,0.0,0.0,-4.493,-4.5406,-4.5185,-4.4005,-4.5955,-4.694,-4.6769,-4.8263,-4.9171,-4.9504,-4.9504,-4.9504,-4.9475,-4.9084,-4.8926,-4.9011,-4.9114,-4.9325,-4.9693,-5.0939,-5.1353,-5.1453,-5.364,-5.4515,-5.4651,-5.5766,-5.6263,-5.6406,-5.6515,-5.64,-5.6185,-5.6155,-5.5955,-5.5703,-5.5703,-5.5703,-5.5703,-5.5703,-5.5399,-5.5107,-5.5107,-5.451,-5.3905,-5.3795,-5.3526,-5.3314,-5.3188,-5.3225,-5.3225,-5.3225,-5.3981,-5.4684,-5.4792,-5.6167,-5.7511,-5.8396,-5.8511,-5.8588,-5.888,-5.9104,-5.9493,-6.019,-6.0515,-6.0848,-6.1289,-6.1458,-6.1386,-6.1109,-6.1188,-6.0708,-5.9604,-5.8765,-5.7371,-5.5245,-5.5057,-5.479,-5.4387,-5.4288,-5.4086,-5.3683,-5.3683,-5.372,0.0,0.0,0.0,0.0,0.0,0.0,0.0,0.0,0.0,0.0,0.0,0.0,0.0,0.0,0.0,0.0,0.0,0.0,0.0,0.0,0.0,0.0,0.0,0.0,0.0,0.0,0.0,0.0,0.0,0.0,-4.5736,-4.5186,-4.5215,-4.5992,-4.6392,-4.7031,-4.7947,-4.8926,-4.9445,-4.9504,-4.9504,-4.9504,-4.9466,-4.9022,-4.9045,-4.937,-4.8315,-4.8691,-5.01,-5.1459,-5.1585,-5.1124,-5.301,-5.3752,-5.3856,-5.4901,-5.5742,-5.6381,-5.6407,-5.6335,-5.6185,-5.6001,-5.5818,-5.5703,-5.5703,-5.5703,-5.5703,-5.5703,-5.5399,-5.5107,-5.5107,-5.476,-5.4288,-5.3905,-5.3758,-5.3643,-5.3272,-5.3225,-5.3225,-5.3225,-5.4466,-5.5654,-5.6074,-5.7238,-5.8396,-5.9204,-5.9358,-5.9665,-6.055,-6.1479,-6.1865,-6.1366,-6.2084,-6.2305,-6.1549,-6.1497,-6.1119,-6.0243,-6.0166,-5.9473,-5.7826,-5.7194,-5.6226,-5.4822,-5.4641,-5.4355,-5.3869,-5.3563,-5.3318,-5.3272,-5.3272,-5.3484,0.0,0.0,0.0,0.0,0.0,0.0,0.0,0.0,0.0,0.0,0.0,0.0,0.0,0.0,0.0,0.0,0.0,0.0,0.0,0.0,0.0,0.0,0.0,0.0,0.0,0.0,0.0,0.0,0.0,-4.463,-4.4831,-4.4494,-4.4649,-4.5377,-4.5856,-4.6694,-4.7834,-4.8707,-4.9493,-5.0183,-4.9663,-4.9434,-4.9396,-4.8269,-4.8235,-4.9048,-4.8242,-4.8621,-4.9848,-5.047,-5.0829,-5.1136,-5.2453,-5.3279,-5.3839,-5.4858,-5.5708,-5.6411,-5.6416,-5.6213,-5.6012,-5.5941,-5.5818,-5.5703,-5.5703,-5.5703,-5.5703,-5.5703,-5.5577,-5.5423,-5.5423,-5.5134,-5.4731,-5.4288,-5.3977,-5.3683,-5.3314,-5.3225,-5.3482,-5.4363,-5.4983,-5.5801,-5.7404,-5.8204,-5.8898,-5.9702,-6.0046,-6.0435,-6.0935,-6.1405,-6.1624,-6.1397,-6.1801,-6.1818,-6.1257,-6.1228,-6.0997,-6.0496,-6.0519,-6.0166,-5.9357,-5.8029,-5.6914,-5.6011,-5.475,-5.3906,-5.3444,-5.3314,-5.3225,-5.3225,-5.3225,-5.344,0.0,0.0,0.0,0.0,0.0,0.0,0.0,0.0,0.0,0.0,0.0,0.0,0.0,0.0,0.0,0.0,0.0,0.0,0.0,0.0,0.0,0.0,0.0,0.0,0.0,0.0,0.0,0.0,0.0,-4.3791,-4.4117,-4.4146,-4.4318,-4.4726,-4.5521,-4.6391,-4.7422,-4.8433,-4.9307,-5.001,-4.9586,-4.9279,-4.9009,-4.7548,-4.7434,-4.8318,-4.7952,-4.8509,-4.9605,-4.9682,-5.0262,-5.1205,-5.1915,-5.2908,-5.3935,-5.4648,-5.5539,-5.6379,-5.6302,-5.6109,-5.5895,-5.5857,-5.578,-5.5703,-5.5703,-5.5703,-5.5703,-5.5703,-5.5703,-5.5742,-5.5972,-5.5815,-5.5515,-5.5177,-5.4672,-5.4093,-5.335,-5.3371,-5.3891,-5.5159,-5.5532,-5.6256,-5.82,-5.8744,-5.9223,-5.9989,-6.0391,-6.0685,-6.0973,-6.1195,-6.132,-6.1298,-6.1507,-6.1458,-6.102,-6.0973,-6.0858,-6.0473,-6.0573,-6.0458,-6.0165,-5.8519,-5.7339,-5.67,-5.5062,-5.3931,-5.3225,-5.3225,-5.3225,-5.3225,-5.3225,-5.344,0.0,0.0,0.0,0.0,0.0,0.0,0.0,0.0,0.0,0.0,0.0,0.0,0.0,0.0,0.0,0.0,0.0,0.0,0.0,0.0,0.0,0.0,0.0,0.0,0.0,0.0,0.0,0.0,0.0,-4.4146,-4.4572,-4.4572,-4.4726,-4.5055,-4.5856,-4.6505,-4.6952,-4.8567,-4.899,-4.824,-4.9048,-4.8971,-4.8125,-4.7278,-4.6952,-4.6991,-4.7048,-4.8009,-4.9605,-4.9856,-5.0452,-5.1198,-5.138,-5.2498,-5.3983,-5.3901,-5.4955,-5.634,-5.6032,-5.5895,-5.5857,-5.5742,-5.5703,-5.5703,-5.5703,-5.5703,-5.5703,-5.5703,-5.5703,-5.5895,-5.6703,-5.6934,-5.6889,-5.6791,-5.6182,-5.5157,-5.3547,-5.3812,-5.4496,-5.4946,-5.629,-5.7528,-5.8044,-5.8823,-5.9521,-6.0006,-6.0132,-6.0349,-6.095,-6.1713,-6.2005,-6.1389,-6.2028,-6.2121,-6.1112,-6.0973,-6.0589,-5.9627,-5.9588,-5.9242,-5.8473,-5.7481,-5.6592,-5.5799,-5.5612,-5.4773,-5.3225,-5.3225,-5.3225,-5.3225,-5.3225,-5.344,-3.536,0.0,0.0,0.0,0.0,0.0,0.0,0.0,0.0,0.0,0.0,0.0,0.0,0.0,0.0,0.0,0.0,0.0,0.0,0.0,0.0,0.0,0.0,0.0,0.0,0.0,0.0,0.0,0.0,0.0,-4.4896,-4.4919,-4.5055,-4.5419,-4.5688,-4.6186,-4.6894,-4.8009,-4.8394,-4.8086,-4.7894,-4.7625,-4.7317,-4.6547,-4.6163,-4.6086,-4.6334,-4.704,-4.8128,-4.8861,-4.9716,-5.0615,-5.1166,-5.2109,-5.3159,-5.3019,-5.401,-5.5395,-5.5224,-5.5416,-5.5742,-5.5703,-5.5703,-5.5703,-5.5703,-5.5703,-5.5818,-5.6357,-5.6511,-5.6742,-5.7627,-5.7819,-5.7743,-5.7425,-5.6673,-5.5993,-5.5695,-5.4976,-5.4736,-5.5945,-5.6651,-5.7291,-5.7905,-5.853,-5.9028,-5.9176,-5.9458,-5.9823,-6.0349,-6.0408,-6.0581,-6.095,-6.0994,-6.0942,-6.0896,-6.0858,-6.0704,-6.0358,-6.0319,-6.0204,-5.9935,-5.8014,-5.6819,-5.6549,-5.5387,-5.4546,-5.3959,-5.3959,-5.3959,-5.3959,-5.3445,-5.3699,-3.594,0.0,0.0,0.0,0.0,0.0,0.0,0.0,0.0,0.0,0.0,0.0,0.0,0.0,0.0,0.0,0.0,0.0,0.0,0.0,0.0,0.0,0.0,0.0,0.0,0.0,0.0,0.0,0.0,0.0,-4.4822,-4.4842,-4.4959,-4.5201,-4.5565,-4.597,-4.6547,-4.7373,-4.7643,-4.7355,-4.7124,-4.6855,-4.6547,-4.6065,-4.5786,-4.5718,-4.5979,-4.651,-4.725,-4.8028,-4.9074,-5.0234,-5.0781,-5.168,-5.2692,-5.2511,-5.3299,-5.4493,-5.4608,-5.4916,-5.5318,-5.5588,-5.5703,-5.5703,-5.5703,-5.5703,-5.5857,-5.6742,-5.6973,-5.7242,-5.8396,-5.8827,-5.8757,-5.8165,-5.7484,-5.7003,-5.7352,-5.6369,-5.5766,-5.6836,-5.7279,-5.756,-5.7932,-5.8238,-5.8508,-5.8673,-5.899,-5.9319,-5.9823,-5.976,-5.9885,-6.0508,-6.043,-6.0456,-6.0757,-6.105,-6.1243,-6.1243,-6.1243,-6.1156,-6.1019,-5.8677,-5.7201,-5.6767,-5.5455,-5.4803,-5.4803,-5.4803,-5.4803,-5.4803,-5.4252,-5.4658,0.0,0.0,0.0,0.0,0.0,0.0,0.0,0.0,0.0,0.0,0.0,0.0,0.0,0.0,0.0,0.0,0.0,0.0,0.0,0.0,0.0,0.0,0.0,0.0,0.0,0.0,0.0,0.0,0.0,-4.4822,-4.4299,-4.4278,-4.4333,-4.452,-4.5389,-4.589,-4.589,-4.6716,-4.6716,-4.5928,-4.674,-4.6701,-4.589,-4.5911,-4.5902,-4.5909,-4.6051,-4.6496,-4.7181,-4.7486,-4.8594,-5.0156,-5.0195,-5.1211,-5.2616,-5.2348,-5.282,-5.3629,-5.4262,-5.4472,-5.4626,-5.5434,-5.5703,-5.5703,-5.5703,-5.5703,-5.5857,-5.6742,-5.7011,-5.7396,-5.9088,-5.9805,-5.9941,-5.9168,-5.8577,-5.8253,-5.8287,-5.7902,-5.756,-5.7521,-5.8154,-5.8549,-5.8051,-5.7997,-5.8142,-5.8632,-5.8673,-5.8835,-5.9319,-5.9792,-6.0074,-6.0103,-6.0508,-6.0781,-6.0781,-6.1589,-6.205,-6.205,-6.205,-6.1825,-6.1353,-5.9317,-5.7594,-5.6293,-5.5802,-5.5537,-5.5537,-5.5574,-5.5611,-5.5611,-5.5611,-5.6282,-3.7704,0.0,0.0,0.0,0.0,0.0,0.0,0.0,0.0,0.0,0.0,0.0,0.0,0.0,0.0,0.0,0.0,0.0,0.0,0.0,0.0,0.0,0.0,0.0,0.0,0.0,0.0,0.0,-4.3522,-4.3652,-4.3492,-4.3585,-4.3959,-4.4633,-4.4905,-4.5304,-4.5886,-4.6119,-4.6119,-4.5886,-4.6158,-4.6119,-4.5886,-4.602,-4.5979,-4.5909,-4.6143,-4.6304,-4.6457,-4.7268,-4.8242,-4.9336,-4.9961,-5.0859,-5.1718,-5.153,-5.1953,-5.2762,-5.3338,-5.3972,-5.4626,-5.5434,-5.5703,-5.5703,-5.5703,-5.5703,-5.5857,-5.6742,-5.7434,-5.8319,-6.0012,-6.0517,-6.0545,-6.0315,-5.9939,-5.9663,-5.9993,-5.9731,-5.9185,-5.8499,-5.8564,-5.8549,-5.8051,-5.7997,-5.8042,-5.815,-5.8194,-5.8332,-5.8835,-5.9028,-5.9354,-6.0044,-6.0189,-6.0456,-6.0757,-6.1012,-6.1166,-6.1166,-6.1166,-6.0942,-6.0475,-5.8477,-5.6993,-5.6293,-5.5249,-5.473,-5.473,-5.5317,-5.5904,-5.6455,-5.6455,-5.6836,-3.8654,0.0,0.0,0.0,0.0,0.0,0.0,-3.9458,0.0,0.0,0.0,0.0,0.0,0.0,0.0,0.0,0.0,0.0,0.0,0.0,0.0,0.0,0.0,0.0,0.0,0.0,0.0,-4.2757,-4.3038,-4.3073,-4.2756,-4.2873,-4.3188,-4.3695,-4.444,-4.5055,-4.5528,-4.588,-4.6075,-4.6075,-4.6075,-4.6075,-4.6069,-4.616,-4.613,-4.6069,-4.6238,-4.6268,-4.6265,-4.7216,-4.8125,-4.8945,-4.9453,-5.0328,-5.1304,-5.1152,-5.1358,-5.1819,-5.2433,-5.3241,-5.4087,-5.4934,-5.5434,-5.5703,-5.5703,-5.5703,-5.5972,-5.7203,-5.8396,-5.9588,-6.055,-6.0781,-6.0781,-6.0781,-6.0597,-6.0482,-6.0734,-6.0456,-5.9885,-5.9139,-5.899,-5.8756,-5.8097,-5.7997,-5.7997,-5.7997,-5.7997,-5.8097,-5.8375,-5.8591,-5.8913,-5.9458,-5.9658,-5.9977,-6.0482,-6.0853,-6.1134,-6.132,-6.116,-6.0846,-6.0387,-5.8333,-5.6818,-5.6014,-5.4938,-5.4583,-5.4913,-5.5721,-5.6625,-5.758,-5.758,-5.7843,0.0,0.0,0.0,0.0,0.0,0.0,-4.0796,-3.9699,-3.8188,0.0,0.0,0.0,0.0,0.0,0.0,0.0,0.0,0.0,0.0,0.0,0.0,0.0,0.0,0.0,0.0,-4.147,-4.1893,-4.2722,-4.2876,-4.2637,-4.191,-4.2044,-4.2226,-4.2304,-4.3851,-4.4805,-4.5,-4.5781,-4.6211,-4.6289,-4.6289,-4.6289,-4.6289,-4.6289,-4.6289,-4.6289,-4.6289,-4.6287,-4.6351,-4.7129,-4.7998,-4.8897,-4.8975,-4.9915,-5.1198,-5.1114,-5.102,-5.1029,-5.1779,-5.2549,-5.3356,-5.4318,-5.5126,-5.5703,-5.5703,-5.5703,-5.6049,-5.7819,-5.9358,-6.055,-6.0742,-6.0781,-6.0781,-6.0734,-6.0734,-6.0734,-6.0647,-6.0311,-5.9885,-5.9389,-5.9319,-5.9028,-5.8142,-5.7997,-5.7997,-5.7997,-5.7997,-5.7997,-5.7997,-5.8418,-5.8713,-5.8713,-5.9102,-5.9559,-5.9977,-6.073,-6.1363,-6.1774,-6.1392,-6.0995,-6.0486,-5.854,-5.6945,-5.5721,-5.495,-5.4913,-5.5721,-5.6573,-5.7624,-5.8756,-5.8756,-5.9028,0.0,0.0,0.0,0.0,0.0,0.0,-4.0073,-4.0205,-3.9972,0.0,0.0,0.0,0.0,0.0,0.0,0.0,0.0,0.0,0.0,0.0,0.0,0.0,0.0,0.0,0.0,-3.9407,-3.9946,-4.0138,-4.0947,-4.1102,-4.0379,-4.1038,-4.1696,-4.236,-4.2732,-4.3594,-4.5,-4.5156,-4.5625,-4.6289,-4.6289,-4.6289,-4.6289,-4.6289,-4.6289,-4.6289,-4.6289,-4.6285,-4.6315,-4.6367,-4.7332,-4.881,-4.9521,-5.0336,-5.1101,-5.099,-5.0912,-5.1106,-5.2472,-5.3049,-5.3433,-5.4972,-5.5549,-5.5703,-5.5703,-5.5703,-5.6049,-5.7819,-5.855,-5.9088,-6.0435,-6.0781,-6.0671,-6.0338,-6.0255,-6.0132,-5.9722,-5.9592,-5.9389,-5.8951,-5.8835,-5.8673,-5.8097,-5.7997,-5.7997,-5.7997,-5.7997,-5.7997,-5.7997,-5.8418,-5.8713,-5.8713,-5.9102,-5.9424,-5.9526,-5.9677,-5.9824,-5.9923,-5.9857,-5.9583,-5.9136,-5.8084,-5.7204,-5.6565,-5.5794,-5.5757,-5.6565,-5.7746,-5.8646,-5.9248,-5.9248,-5.9492,0.0,0.0,0.0,-4.0754,0.0,0.0,0.0,-4.0708,-4.0676,0.0,0.0,0.0,0.0,0.0,0.0,0.0,0.0,0.0,0.0,0.0,0.0,0.0,0.0,0.0,0.0,-3.7469,-3.7892,-3.8839,-3.9469,-3.9647,-3.9258,-3.9687,-4.0273,-4.1133,-4.1562,-4.2422,-4.3672,-4.457,-4.5234,-4.5664,-4.6094,-4.6289,-4.6289,-4.6289,-4.6289,-4.6289,-4.6289,-4.6264,-4.625,-4.7063,-4.7837,-4.8548,-4.9048,-4.9984,-5.099,-5.0912,-5.0875,-5.0971,-5.2125,-5.2856,-5.3395,-5.4703,-5.5357,-5.5703,-5.5703,-5.6319,-5.7165,-5.805,-5.8896,-5.9696,-6.0278,-6.0456,-6.0338,-5.9855,-5.976,-5.9696,-5.9458,-5.9212,-5.899,-5.8753,-5.8508,-5.8282,-5.8042,-5.7997,-5.7997,-5.7997,-5.7997,-5.7997,-5.7997,-5.8231,-5.8332,-5.8332,-5.8549,-5.8796,-5.9065,-5.9065,-5.9139,-5.9389,-5.9176,-5.8951,-5.8713,-5.8095,-5.7463,-5.6822,-5.6418,-5.6418,-5.6822,-5.8095,-5.8951,-5.9389,-5.9389,-5.9792,0.0,0.0,0.0,0.0,0.0,-4.1232,0.0,0.0,0.0,-4.0855,0.0,0.0,0.0,0.0,0.0,0.0,0.0,0.0,0.0,0.0,0.0,0.0,0.0,0.0,0.0,-3.6406,-3.6485,-3.7848,-3.8337,-3.8437,-3.8125,-3.8437,-3.8984,-3.9883,-4.0586,-4.1406,-4.2383,-4.3789,-4.4687,-4.5,-4.5703,-4.6133,-4.6289,-4.6289,-4.6285,-4.6264,-4.6264,-4.6177,-4.6182,-4.772,-4.8318,-4.8337,-4.8779,-4.976,-5.0875,-5.0875,-5.0894,-5.1048,-5.1856,-5.2741,-5.3587,-5.4434,-5.528,-5.5934,-5.5934,-5.7049,-5.8319,-5.8511,-5.9427,-6.0367,-6.0151,-6.0006,-5.9855,-5.9354,-5.9248,-5.9248,-5.9139,-5.8835,-5.8549,-5.8549,-5.8238,-5.7997,-5.7997,-5.7997,-5.7997,-5.7997,-5.7997,-5.7997,-5.7997,-5.7997,-5.7997,-5.7997,-5.7997,-5.8142,-5.8508,-5.8549,-5.8753,-5.9102,-5.8756,-5.8549,-5.8549,-5.8194,-5.7703,-5.7042,-5.7042,-5.7042,-5.7042,-5.8079,-5.8796,-5.9248,-5.9458,-5.9946,0.0,0.0,0.0,0.0,-4.2004,0.0,0.0,0.0,-4.3578,-4.4259,0.0,0.0,0.0,0.0,0.0,0.0,0.0,0.0,0.0,0.0,0.0,0.0,0.0,0.0,0.0,0.0,-3.6802,-3.6311,-3.7733,-3.793,-3.6367,-3.7773,-3.8984,-3.9883,-4.0,-4.0781,-4.2383,-4.2617,-4.3476,-4.5,-4.5117,-4.5547,-4.6289,-4.6289,-4.6254,-4.6136,-4.6136,-4.6048,-4.5978,-4.6854,-4.7606,-4.8452,-5.001,-5.0664,-5.0702,-5.0702,-5.1164,-5.1895,-5.2741,-5.3626,-5.4472,-5.528,-5.6126,-5.6857,-5.6857,-5.7511,-5.8434,-5.9165,-5.9179,-5.9206,-5.9912,-5.9792,-5.9354,-5.8913,-5.8756,-5.8673,-5.8238,-5.8097,-5.8051,-5.8051,-5.8042,-5.7997,-5.7997,-5.7997,-5.7997,-5.7997,-5.7997,-5.7997,-5.7997,-5.7997,-5.7997,-5.7997,-5.7997,-5.8042,-5.8051,-5.8051,-5.8097,-5.8186,-5.8097,-5.8051,-5.8051,-5.8042,-5.796,-5.7886,-5.785,-5.785,-5.785,-5.8015,-5.8326,-5.8796,-5.9625,-6.0103,0.0,0.0,0.0,0.0,0.0,0.0,-4.3422,0.0,-4.3938,0.0,0.0,0.0,0.0,0.0,0.0,0.0,0.0,0.0,0.0,0.0,0.0,0.0,0.0,0.0,0.0,0.0,0.0,0.0,0.0,-3.9023,-3.8281,-3.7539,-3.75,-3.8359,-3.8867,-3.9726,-4.0937,-4.1914,-4.3008,-4.4258,-4.4766,-4.5469,-4.6289,-4.6215,-4.6151,-4.6103,-4.6026,-4.5935,-4.5955,-4.7234,-4.7932,-4.8355,-5.0087,-5.0741,-5.0702,-5.0702,-5.1202,-5.201,-5.2895,-5.378,-5.4703,-5.6011,-5.6703,-5.7088,-5.7588,-5.8357,-5.9004,-5.9077,-5.93,-5.949,-5.9348,-5.9139,-5.8874,-5.8418,-5.8282,-5.8238,-5.8042,-5.7997,-5.7997,-5.7997,-5.7997,-5.7997,-5.7997,-5.7997,-5.7997,-5.7997,-5.7997,-5.7997,-5.7997,-5.7997,-5.7997,-5.7997,-5.7997,-5.7997,-5.7997,-5.7997,-5.7997,-5.7997,-5.7997,-5.7997,-5.7997,-5.7997,-5.7997,-5.7997,-5.7997,-5.7997,-5.7997,-5.7997,-5.8097,-5.8326,-5.899,-5.916,-4.291,0.0,0.0,0.0,0.0,0.0,0.0,0.0,0.0,0.0,0.0,0.0,0.0,0.0,0.0,0.0,0.0,0.0,0.0,0.0,0.0,0.0,0.0,0.0,0.0,0.0,0.0,0.0,-4.0077,-4.0271,-3.9522,-3.7921,-3.7177,-3.7565,-3.819,-3.9049,-4.0145,-4.1355,-4.2527,-4.3618,-4.4245,-4.5143,-4.6195,-4.608,-4.6028,-4.6026,-4.5911,-4.5834,-4.5873,-4.7548,-4.8202,-4.8279,-5.001,-5.0702,-5.0702,-5.0702,-5.1356,-5.2356,-5.2972,-5.3933,-5.5011,-5.6242,-5.6973,-5.745,-5.7935,-5.8832,-5.9588,-5.9092,-5.933,-5.9559,-5.8874,-5.8591,-5.8418,-5.8051,-5.7997,-5.7997,-5.7997,-5.7997,-5.7997,-5.7997,-5.7997,-5.7997,-5.7997,-5.7997,-5.7997,-5.7997,-5.7997,-5.7997,-5.7997,-5.7997,-5.7997,-5.7997,-5.7997,-5.7997,-5.7997,-5.7997,-5.7997,-5.7997,-5.7997,-5.7997,-5.7997,-5.7997,-5.7997,-5.7997,-5.7997,-5.7997,-5.7997,-5.7997,-5.7997,-5.7997,-5.8503,-5.8426,0.0,0.0,0.0,-4.2252,0.0,0.0,0.0,0.0,-4.6158,0.0,0.0,0.0,0.0,0.0,0.0,-4.5,0.0,0.0,0.0,0.0,0.0,0.0,0.0,0.0,0.0,0.0,0.0,-4.1019,-4.1819,-4.1182,-3.8598,-3.9182,-3.9169,-3.8323,-3.8315,-3.9101,-4.075,-4.0828,-4.1716,-4.3419,-4.3419,-4.4323,-4.5888,-4.5918,-4.5879,-4.5796,-4.5796,-4.5719,-4.574,-4.7432,-4.8086,-4.8279,-5.001,-5.0702,-5.0702,-5.0702,-5.1741,-5.3164,-5.3203,-5.428,-5.5665,-5.5703,-5.6896,-5.8174,-5.7772,-5.8768,-5.9968,-5.9521,-5.9065,-5.8716,-5.8713,-5.8332,-5.8042,-5.7997,-5.7997,-5.7997,-5.7997,-5.7997,-5.7997,-5.7997,-5.7997,-5.7997,-5.7997,-5.7997,-5.7997,-5.7997,-5.7997,-5.7997,-5.7997,-5.7997,-5.7997,-5.7997,-5.7997,-5.7997,-5.7997,-5.7997,-5.7997,-5.7997,-5.7997,-5.7997,-5.7997,-5.7997,-5.7997,-5.7997,-5.7997,-5.7997,-5.7997,-5.7997,-5.7997,-5.7997,-5.8503,-5.8266,0.0,0.0,-4.2226,-4.2354,0.0,0.0,0.0,0.0,0.0,0.0,0.0,0.0,0.0,0.0,-4.5657,-4.5078,-4.5234,0.0,0.0,0.0,0.0,0.0,0.0,0.0,0.0,0.0,0.0,-4.2939,-4.3645,-4.3192,0.0,-3.9606,-3.8423,-3.7462,-3.799,-3.8852,-3.9998,-4.1106,-4.2265,-4.3399,-4.3965,-4.4829,-4.5887,-4.5849,-4.5812,-4.5796,-4.5719,-4.5624,-4.574,-4.7394,-4.8086,-4.826,-4.9729,-5.0313,-5.0412,-5.1219,-5.2039,-5.2968,-5.4077,-5.4638,-5.5047,-5.5899,-5.6355,-5.6738,-5.7687,-5.8375,-5.8845,-5.8915,-5.8835,-5.8632,-5.8326,-5.8097,-5.7997,-5.7997,-5.7997,-5.7997,-5.7997,-5.7997,-5.7997,-5.7997,-5.7997,-5.7997,-5.7997,-5.7997,-5.7997,-5.7997,-5.7997,-5.7997,-5.7997,-5.7997,-5.7997,-5.7997,-5.7997,-5.7997,-5.7997,-5.7997,-5.7997,-5.7997,-5.7997,-5.7997,-5.7997,-5.8326,-5.8326,-5.7997,-5.8326,-5.8326,-5.7997,-5.7997,-5.7997,-5.7997,-5.8186,-5.7832,-4.1957,-4.2073,0.0,-4.205,-4.3245,0.0,-4.5202,0.0,0.0,0.0,0.0,0.0,0.0,0.0,0.0,-4.5151,-4.5272,-4.5156,0.0,-4.363,0.0,0.0,0.0,0.0,0.0,0.0,-4.6234,-4.5168,-4.5867,-4.5172,0.0,0.0,-3.929,-3.7416,-3.7901,-3.8747,-3.9915,-4.13,-4.2415,-4.3278,-4.4162,-4.5009,-4.5796,-4.5757,-4.5719,-4.5719,-4.5624,-4.5778,-4.6163,-4.7548,-4.8183,-4.8468,-4.9648,-5.019,-5.0392,-5.119,-5.2031,-5.3024,-5.442,-5.4776,-5.4774,-5.5502,-5.542,-5.5395,-5.6995,-5.7712,-5.8052,-5.8368,-5.8461,-5.8375,-5.8051,-5.7997,-5.7997,-5.7997,-5.7997,-5.7997,-5.7997,-5.7997,-5.795,-5.7679,-5.7631,-5.7631,-5.7631,-5.7631,-5.7679,-5.795,-5.7997,-5.7997,-5.7997,-5.7997,-5.7997,-5.7997,-5.7997,-5.7997,-5.7997,-5.7997,-5.7997,-5.7997,-5.7997,-5.7997,-5.7997,-5.8282,-5.8437,-5.8437,-5.843,-5.8474,-5.8437,-5.8143,-5.7997,-5.7997,-5.7997,-5.7703]}]]